GFSNW_850_dewp_000.txt.gz
Dewpoint
-3 -3 -1 -2 -2 -4 -4 -0 4 2 2 5 5 6 5 5 5 5 5 5 6 6 7 7 7 7 6 5 4 6 5 6 7 6 2 -3 -3 -3 -4 2 2 -2 -1 1
-3 -1 -1 -2 -1 -4 -2 0 2 1 2 6 6 3 3 3 5 5 5 6 5 5 7 8 7 7 5 5 4 5 4 7 5 5 4 1 4 -0 -1 0 1 5 4 1
-6 -4 -1 -1 -1 -2 -3 -1 0 1 2 2 3 4 3 4 2 4 5 6 5 5 6 5 8 7 4 5 5 4 3 5 6 1 1 3 4 2 -0 1 3 1 2 -0
2 -5 -5 -4 -0 -1 -1 -0 2 1 3 2 2 2 2 3 3 3 4 5 5 5 6 6 6 5 4 3 2 4 4 6 5 4 4 4 4 3 3 3 2 3 1 -0
8 5 -4 -6 -3 -1 -2 1 2 -0 2 1 1 1 2 3 1 2 3 5 5 5 5 4 5 4 5 4 3 3 3 4 4 2 -1 1 3 3 3 3 2 2 1 2
7 7 6 2 -5 -4 -2 -1 -0 0 1 1 2 2 1 1 -0 -0 1 3 4 4 4 4 4 4 4 4 4 3 3 2 1 -1 2 2 1 -1 0 -0 -1 1 2 -1
7 7 7 8 4 -4 -3 -2 -1 0 0 -0 1 0 1 1 -0 -1 -2 2 1 -1 -2 -4 -4 -3 -2 -1 0 3 2 4 4 3 2 5 0 -1 0 1 -0 -1 -1 -0
7 7 7 7 8 7 1 -2 -2 -2 -2 -3 -2 -1 -1 -1 -1 -1 -1 -2 -2 -3 -4 -4 -3 -2 -2 -1 -0 -1 1 1 2 4 4 2 1 -1 1 2 0 -0 0 3
7 7 7 7 7 7 7 5 -0 0 1 2 -2 -3 -2 -2 -2 -3 -2 -3 -3 -3 -3 -2 2 5 -0 2 -0 3 2 1 2 6 7 7 1 -1 -1 -1 2 0 2 2
6 7 7 7 7 7 7 7 6 5 2 3 1 1 2 -2 -3 -2 -3 -2 -2 -2 0 2 3 2 -2 2 1 4 6 5 6 5 6 4 0 -1 -0 3 2 4 1 -2
6 7 7 8 7 7 8 7 6 5 4 5 5 3 1 -1 -2 2 -2 -0 -0 0 1 2 2 1 -1 1 -1 3 4 6 6 5 6 7 1 1 2 1 3 0 -1 -1
5 6 6 7 7 7 7 7 7 6 5 6 5 5 5 4 4 2 -1 2 0 -0 2 1 1 2 1 0 4 -2 2 2 3 4 5 1 1 1 1 -0 -1 -1 -0 1
5 5 6 6 6 7 7 7 6 5 5 5 5 5 4 5 5 5 2 0 -0 -1 -1 2 3 5 3 4 3 2 -0 -2 -0 1 0 0 -0 0 0 0 -1 -1 -0 -0
2 3 4 5 6 6 6 6 6 5 5 5 5 4 4 4 4 5 5 4 3 2 1 3 4 5 3 4 3 3 1 0 2 2 0 -1 -1 -1 -1 -1 -0 -0 -1 -2
-0 1 3 4 5 5 5 5 5 6 6 5 5 4 4 4 4 4 4 5 4 3 3 3 4 3 3 3 4 4 1 2 3 3 -0 0 0 0 1 1 0 -0 -1 -0
-3 -2 -1 2 3 4 5 5 5 5 5 5 4 4 3 3 4 4 4 5 4 3 3 3 3 3 3 4 5 2 2 2 1 1 1 1 0 -0 1 1 1 0 0 -1
-4 -3 2 3 3 3 4 5 4 4 5 4 4 4 2 2 3 4 4 4 4 3 3 3 3 3 4 4 4 1 1 1 1 2 2 1 0 -0 0 0 0 -0 -1 -4
2 2 3 3 3 3 4 4 4 4 4 4 2 2 2 2 3 3 3 4 3 3 3 3 4 3 3 4 2 1 1 1 1 1 1 1 1 0 0 -0 -1 -3 -15 -20
2 2 2 3 3 3 3 3 4 4 4 3 2 3 4 2 2 2 2 3 3 3 3 3 3 3 3 2 1 0 0 1 1 0 -0 -0 0 -0 -1 -1 -9 -21 -21 -20
2 2 2 2 2 2 2 2 3 3 3 2 1 1 2 1 2 2 2 2 2 3 2 1 2 2 0 0 0 0 1 1 1 -1 -2 -2 -1 -2 -2 -16 -22 -20 -20 -19
2 2 1 1 2 2 1 1 1 1 1 1 0 0 1 0 2 2 2 2 1 2 -0 2 1 1 -0 -1 -1 -1 -1 0 0 -0 0 0 -1 -3 -24 -22 -20 -20 -19 -20
1 1 1 1 0 0 0 1 -1 -1 1 -2 -0 -1 0 1 1 2 0 2 0 1 -2 -0 -0 -3 -4 -5 -4 -3 -1 -1 -1 -0 -1 -4 -20 -29 -24 -21 -20 -19 -19 -19
1 1 1 0 -1 0 1 1 -0 -1 -2 -3 -2 -1 -0 -0 0 1 1 0 0 -3 -1 -1 -3 -5 -6 -6 -4 -2 -1 -1 -1 -7 -16 -30 -27 -21 -20 -19 -18 -18 -18 -18
-1 1 1 -1 0 -0 0 -2 -1 -3 -4 -3 -2 -1 -1 -1 -1 -0 0 -1 -2 -1 -1 -2 -5 -6 -8 -7 -4 -2 -2 -2 -6 -22 -26 -24 -21 -19 -17 -16 -16 -17 -18 -18
-0 0 0 -0 -2 -3 -4 -3 -4 -4 -4 -3 -2 -2 -2 -2 -1 -1 -1 -1 -1 -3 -3 -5 -7 -9 -10 -7 -4 -3 -4 -6 -13 -26 -24 -20 -17 -16 -16 -15 -16 -18 -18 -17
-0 -0 0 -3 -3 -3 -4 -4 -4 -3 -3 -3 -2 -2 -1 -1 -2 -1 -2 -2 -2 -3 -5 -6 -8 -10 -10 -6 -4 -4 -4 -8 -23 -23 -18 -16 -16 -15 -15 -16 -17 -18 -17 -16
-0 -1 -1 -1 -2 -2 -3 -3 -3 -3 -2 -1 -2 -2 -2 -3 -2 -2 -4 -3 -5 -6 -10 -11 -13 -12 -8 -7 -5 -4 -5 -12 -18 -17 -16 -15 -14 -14 -14 -16 -17 -16 -16 -17

GFSNW_850_dewp_003.txt.gz
Dewpoint
-2 -3 -2 -3 -4 -4 -4 3 3 1 3 5 5 7 6 5 5 5 5 5 5 5 6 6 6 6 6 4 5 5 5 5 6 5 0 -2 -2 -2 -2 2 2 0 -0 -0
-4 -3 -1 -2 -3 -4 -3 3 3 2 4 6 6 4 4 4 5 5 5 5 5 5 6 7 6 6 5 5 5 6 5 6 6 6 4 2 4 1 -0 -1 3 4 2 -0
-3 -6 -4 -2 -1 -2 -4 1 3 1 4 4 4 5 5 5 3 4 5 5 4 5 5 5 7 6 4 5 5 4 4 5 6 5 3 2 4 4 2 2 4 2 1 1
5 2 -7 -3 -1 -3 -0 2 2 2 3 4 2 2 3 3 3 4 4 4 4 4 6 5 6 4 4 3 2 4 4 5 3 3 2 1 1 1 1 2 1 2 -0 -1
7 6 2 -7 -3 -3 2 1 -1 1 1 1 1 1 3 2 1 2 4 5 4 3 5 3 5 4 4 4 2 2 3 3 2 1 -3 -4 -2 -2 -2 -1 -0 -0 -0 0
7 7 6 4 -5 -4 2 -0 -0 0 1 1 -0 0 1 1 0 1 2 3 3 4 4 3 2 2 3 3 2 2 2 0 -1 -0 -3 -0 2 -1 -1 -1 -2 -2 1 -1
7 6 7 7 4 -5 -2 -0 2 0 -0 -1 -0 1 1 0 0 -1 -0 2 0 0 -2 -3 -3 -3 -4 -4 -3 -1 0 1 1 1 0 6 1 -2 -2 -1 -2 -2 -2 -2
6 7 7 6 7 5 0 -2 2 1 0 -2 -1 -1 -1 -1 -0 -0 -0 -1 -1 -2 -3 -2 0 -0 -0 -1 -0 -3 -3 -0 1 4 4 2 1 -0 -0 1 1 -2 -1 -2
7 7 7 7 6 7 7 7 5 4 3 2 -1 -2 -1 1 -1 -2 -2 -3 -2 -2 -3 -0 7 8 3 4 3 2 1 -1 1 5 7 8 2 -0 -1 -1 3 -0 -1 0
6 7 7 8 7 7 7 7 7 6 6 4 1 3 3 -1 -2 -1 -3 -2 -2 -2 -2 2 4 4 -1 5 3 5 5 4 4 4 6 5 0 -1 -1 4 2 3 2 2
5 6 7 7 7 7 7 7 7 6 6 6 5 3 2 -1 -1 4 -0 0 1 -1 2 3 3 3 1 1 1 2 4 6 6 5 6 8 0 0 3 0 1 3 1 -1
5 5 6 7 7 7 7 7 7 7 6 6 6 6 6 2 3 3 -0 2 1 0 3 2 2 2 1 1 4 0 3 2 3 5 5 1 1 1 1 1 1 0 0 -0
4 5 6 6 6 6 6 6 6 5 5 6 6 6 5 6 6 3 2 1 2 1 2 2 3 5 3 5 4 3 1 -0 2 1 0 -0 -1 -0 0 1 1 0 0 1
2 3 5 5 5 5 5 5 6 5 5 5 6 5 4 4 4 5 4 3 2 1 0 3 4 5 3 5 3 4 2 2 2 2 1 1 0 -1 0 -0 -1 -1 -1 -0
-0 2 3 4 4 4 5 5 5 5 6 5 6 5 5 4 4 4 5 3 3 3 3 4 4 4 4 4 4 5 2 2 3 3 0 0 0 1 1 1 0 -0 -0 -1
-1 -0 3 3 3 4 5 5 5 4 5 5 5 5 4 3 4 5 5 5 4 4 3 4 3 3 3 5 5 2 1 1 1 1 1 1 1 1 1 0 0 -0 -0 -0
-2 -0 2 2 3 3 4 5 4 4 5 4 5 5 4 2 3 4 4 4 4 4 3 3 4 4 4 4 4 1 -1 -0 0 0 0 1 1 1 1 -0 -0 -0 -0 -1
0 1 2 2 2 3 4 4 4 4 4 4 4 5 3 2 3 4 3 4 4 4 4 4 4 3 4 4 2 1 1 -0 -0 0 1 1 1 1 0 -0 -1 -2 -2 -7
2 2 2 3 3 3 2 3 2 4 4 4 2 4 4 2 3 3 3 3 4 3 4 3 3 3 4 3 1 0 -0 0 1 1 1 0 -0 -0 -0 -1 -2 -2 -10 -20
2 2 2 1 2 2 2 3 3 3 3 3 2 3 3 2 3 3 3 2 2 3 2 2 3 2 -0 -0 -0 0 1 1 1 1 0 -0 -1 -1 -2 -2 -7 -18 -23 -21
2 1 0 1 2 2 1 1 2 2 2 1 1 1 1 1 3 3 2 2 2 3 1 3 2 1 -0 -1 -0 -0 -1 -2 -2 0 0 -0 -0 -1 -2 -10 -24 -24 -20 -18
2 1 1 1 1 0 1 2 0 0 2 0 1 0 1 1 1 2 1 2 1 2 -1 1 0 -1 -3 -4 -5 -6 -5 -3 -1 -1 -1 -0 -0 -2 -12 -18 -21 -19 -18 -19
2 1 -0 -0 -1 2 1 1 1 1 -0 -2 -1 -0 0 1 1 1 1 2 2 -2 -1 -1 -2 -4 -5 -5 -6 -6 -4 -2 -2 -1 -1 -3 -13 -26 -25 -20 -19 -19 -18 -19
-1 1 1 0 0 -1 1 0 1 -2 -3 -2 -1 -1 -1 -1 0 0 1 -0 -1 0 -0 -0 -4 -6 -7 -10 -9 -6 -4 -2 -2 -5 -10 -23 -32 -24 -20 -19 -18 -17 -17 -17
-0 0 1 1 -1 -1 -2 -2 -4 -4 -3 -1 -1 -1 -1 -2 -0 -1 0 0 -0 -1 -1 -3 -6 -7 -10 -11 -9 -6 -3 -3 -6 -10 -21 -28 -25 -21 -19 -18 -17 -15 -16 -17
-0 -0 0 -2 -1 -1 -3 -3 -2 -3 -2 -3 -1 -1 -1 -0 -1 0 -0 -1 -1 -1 -2 -3 -4 -9 -13 -13 -9 -7 -4 -4 -5 -8 -21 -26 -21 -18 -17 -16 -15 -15 -16 -18
-0 -0 -1 -1 -1 -1 -2 -3 -3 -3 -2 -0 -0 -0 -0 -2 -0 -0 -2 -1 -2 -3 -4 -6 -11 -13 -15 -13 -11 -10 -7 -5 -5 -7 -19 -21 -16 -15 -15 -14 -14 -16 -17 -18

GFSNW_850_dewp_006.txt.gz
Dewpoint
-5 -2 -2 -4 -6 -4 -2 4 6 3 4 7 6 7 6 5 5 4 5 5 5 6 6 6 5 7 6 4 5 6 5 6 7 5 1 1 -1 -1 -1 2 2 1 0 1
1 -5 -3 -4 -4 -4 2 3 3 4 4 7 7 5 4 4 5 5 5 6 5 5 6 8 7 7 5 4 6 6 5 6 8 8 5 3 4 2 -0 1 3 6 2 1
6 2 -6 -3 -4 -4 0 3 5 4 3 3 5 5 5 5 4 5 4 5 4 5 6 6 7 6 6 5 5 4 4 5 6 6 4 3 5 4 3 3 4 4 3 2
7 6 -0 -4 -5 -4 1 1 3 3 6 4 3 3 2 4 5 4 3 5 4 4 6 6 6 5 5 3 3 3 5 5 3 3 2 1 1 2 2 4 3 4 1 0
7 7 5 -4 -5 -4 1 3 1 1 2 1 -1 1 3 2 2 3 4 5 4 3 5 4 6 4 3 4 2 3 3 4 2 2 -1 -2 -1 -2 -3 -1 0 1 1 1
6 7 7 6 -5 -3 1 1 0 1 1 1 -0 2 1 2 1 1 2 3 4 5 1 -1 -2 -0 2 3 2 2 2 1 1 1 -2 -0 2 -0 -1 -1 -2 -2 -0 -2
6 6 7 7 2 -3 -2 -1 2 2 1 -1 1 1 0 1 1 1 0 0 1 0 -3 -3 -3 -3 -4 -4 -2 -1 2 2 1 3 2 5 1 -1 -1 0 -1 -2 -2 -2
5 6 7 7 7 4 -1 0 2 1 1 -1 -0 0 0 0 -0 0 -0 -1 -1 -2 -3 -1 1 -1 0 -1 1 0 -4 0 2 5 5 3 2 1 0 1 1 -1 -0 -1
6 6 7 7 6 7 6 5 5 4 4 2 -1 -2 -1 0 -0 -1 -1 -3 -2 -3 -1 1 7 9 4 3 4 2 1 -1 2 5 6 8 3 0 -1 -1 3 2 1 1
5 5 7 7 7 7 7 6 6 6 6 2 2 3 3 -0 -0 -0 -2 -2 -2 -2 0 4 6 5 -0 5 4 6 4 3 4 4 5 5 1 -0 -1 4 4 2 2 2
5 5 6 7 7 7 7 6 6 6 6 5 3 4 4 0 0 3 -0 1 1 0 2 4 4 3 2 2 2 3 5 6 6 5 5 6 0 1 3 1 1 1 2 1
5 5 6 6 7 7 7 7 7 6 6 6 6 5 5 2 2 3 -1 3 1 1 4 2 2 2 1 2 5 -0 3 2 4 5 5 2 1 1 1 0 1 1 1 0
3 5 5 5 6 6 6 7 7 7 6 6 6 6 6 6 4 3 2 1 2 0 3 3 3 5 2 5 4 3 2 0 2 2 0 0 0 0 0 1 0 -0 -0 -0
1 2 4 5 5 6 6 6 6 6 5 5 6 5 4 5 5 5 3 4 2 2 1 4 4 5 3 5 4 4 2 2 3 3 2 1 1 1 1 1 1 1 0 -0
0 1 3 4 5 5 5 5 5 5 5 5 6 5 5 4 4 4 5 4 3 2 2 4 4 4 4 4 4 4 2 3 4 4 0 1 1 1 1 1 1 1 0 0
1 1 2 3 3 4 4 4 4 4 5 5 4 5 4 4 4 5 5 5 3 3 3 3 3 3 3 5 5 2 1 1 1 0 0 0 1 0 1 1 1 1 1 -0
1 1 2 3 3 3 4 4 4 4 5 5 4 5 4 3 4 4 4 5 5 4 3 4 4 3 3 5 5 1 -0 0 0 -0 0 1 1 1 1 1 1 1 0 0
1 1 2 2 2 3 4 4 4 4 4 4 2 4 3 3 3 4 3 4 4 4 4 4 4 4 4 4 2 1 0 1 0 -0 0 0 1 1 1 0 0 0 -0 -1
1 2 2 2 2 2 2 2 3 4 4 4 2 4 4 3 2 3 3 3 3 4 4 4 3 4 3 2 2 1 1 0 1 1 1 1 1 1 0 -0 -0 -1 -2 -4
2 2 2 2 2 2 1 1 2 3 4 4 2 3 3 2 2 2 2 1 2 3 2 2 2 3 1 -1 -1 -0 0 0 1 -0 -0 0 -0 -0 -1 -1 -2 -2 -9 -18
2 1 1 1 2 2 2 1 2 2 2 2 1 2 2 2 3 3 2 2 1 1 2 2 2 1 -0 -2 -1 -0 -1 -2 -4 -4 -2 -0 -0 -1 -0 -1 -2 -6 -22 -25
1 -0 1 1 1 1 1 1 0 1 2 1 1 1 1 1 1 2 1 2 1 2 -1 1 1 -1 -3 -3 -4 -5 -7 -9 -10 -9 -5 -1 -1 -0 -0 -2 -5 -24 -23 -20
1 1 1 -0 -0 0 0 1 1 2 0 -1 -0 0 1 1 1 1 1 2 2 -2 -0 -0 -2 -3 -4 -6 -7 -11 -13 -11 -8 -4 -2 -1 -1 -2 -5 -13 -25 -20 -19 -18
-0 0 -0 -1 -1 -1 -0 1 1 -1 -1 -1 -0 -0 -0 -0 1 1 1 1 -1 0 0 -1 -2 -4 -4 -5 -11 -13 -12 -8 -5 -3 -2 -2 -5 -13 -27 -23 -19 -18 -18 -17
-1 -0 -1 -1 -1 -1 -1 -2 -2 -3 -2 -1 -1 -1 -2 -1 0 -2 0 1 -0 -1 -1 -2 -6 -7 -9 -11 -14 -13 -10 -7 -4 -3 -4 -7 -17 -28 -24 -19 -17 -17 -17 -17
-0 -0 0 -2 -1 -1 -3 -3 -2 -3 -1 -1 -1 -2 -1 -1 -1 1 0 0 -1 -2 -3 -4 -4 -4 -7 -12 -14 -12 -10 -7 -5 -5 -6 -9 -19 -22 -20 -16 -16 -16 -15 -16
-0 -1 -2 -1 -1 0 -2 -3 -2 -3 -2 -2 -1 -0 -2 -3 -1 -0 -2 -2 -2 -3 -4 -5 -7 -8 -12 -13 -14 -14 -12 -8 -5 -4 -6 -8 -14 -18 -17 -15 -15 -14 -15 -16

GFSNW_850_dewp_009.txt.gz
Dewpoint
7 -1 -4 -4 -5 -5 -1 4 4 4 6 6 6 7 6 5 6 5 5 6 7 7 8 6 8 8 6 5 5 6 5 4 6 5 1 0 -1 -0 -1 2 2 1 1 1
7 4 -2 -4 -3 -4 1 3 3 3 5 7 6 4 5 4 6 6 6 6 6 5 6 8 7 7 5 5 5 6 5 6 9 7 4 3 4 2 -1 1 3 4 2 1
7 7 3 -5 -4 -2 2 3 4 2 3 4 5 5 5 5 4 4 4 5 4 6 7 6 7 6 6 5 4 4 4 5 5 6 4 4 5 4 3 3 4 4 4 2
7 7 5 -3 -5 -0 2 1 2 3 4 2 2 2 3 4 5 4 3 4 4 5 6 6 6 5 5 3 3 3 4 5 3 2 2 1 2 2 3 4 3 4 0 1
6 7 7 5 -5 -1 1 2 1 1 2 1 1 2 2 3 2 3 5 5 3 3 4 5 6 5 4 4 2 3 2 4 1 1 -0 -1 -1 -1 -1 1 1 2 2 2
6 6 7 7 -3 -1 0 1 1 -0 0 0 1 2 1 2 1 1 2 2 4 3 -0 -2 -2 -0 1 2 2 2 2 1 0 0 0 -0 1 -1 -1 -2 -3 -2 -0 -2
5 6 6 7 2 -1 -0 1 2 0 1 0 2 1 1 1 0 2 -0 0 1 -0 -3 -3 -4 -4 -4 -4 -3 -1 2 1 1 2 2 5 1 -1 -1 -1 -1 -2 -2 -3
5 5 6 6 7 3 -1 1 2 1 0 0 0 1 1 -0 -1 -0 -0 -1 -1 -3 -3 -0 0 0 1 1 2 2 -2 1 2 4 5 3 2 1 0 1 1 -1 -0 0
5 5 6 6 6 6 4 4 4 3 1 1 -1 -1 -1 -0 -1 -1 -2 -2 -2 -2 -1 2 5 5 4 3 4 2 -0 -1 1 2 4 6 3 -0 -1 -1 2 2 1 1
5 6 6 6 6 6 7 6 6 6 4 1 -0 2 0 -1 -0 -1 -2 -3 -3 -2 1 5 5 5 0 4 4 5 3 2 3 3 4 4 1 -0 -0 3 2 1 2 1
4 5 5 6 7 6 6 6 6 6 6 4 2 3 2 0 0 1 -1 1 0 0 2 4 3 3 2 2 2 4 4 4 4 3 4 5 0 1 2 1 1 1 1 1
3 5 5 6 6 7 6 5 6 6 6 6 6 4 3 2 1 2 -1 3 1 0 2 2 1 2 1 2 4 -0 3 3 5 3 3 0 1 1 0 1 0 0 0 -0
0 3 5 5 6 7 7 7 7 6 6 6 6 6 6 5 3 3 1 2 1 0 3 2 3 4 2 4 3 3 1 1 2 2 1 1 2 1 1 1 1 1 1 0
-0 1 3 5 5 6 6 6 6 6 6 5 6 5 5 5 6 3 4 3 3 2 1 3 3 5 3 4 3 3 2 2 3 3 1 1 0 0 1 1 1 1 1 1
-0 1 3 4 4 5 6 5 5 6 5 5 5 5 5 4 4 5 4 3 2 1 2 3 3 4 4 4 3 3 2 2 3 4 2 1 1 1 0 1 1 1 1 1
1 1 3 3 4 5 5 5 4 5 5 4 3 5 4 5 5 5 5 4 3 3 3 3 3 3 3 4 4 2 2 2 2 2 1 0 0 1 1 1 1 1 0 0
1 1 2 3 3 3 4 4 5 4 4 4 4 4 4 4 4 5 5 5 4 3 3 4 3 3 4 4 4 1 1 1 0 0 0 -0 0 0 0 0 0 0 0 -0
1 1 2 2 2 3 4 4 4 4 4 4 2 3 3 3 4 4 4 4 4 4 4 3 4 4 4 4 2 1 1 0 1 0 0 0 0 1 1 1 0 0 -1 -1
1 2 2 2 2 1 3 4 4 4 4 3 2 3 4 3 3 3 3 3 3 4 4 4 3 4 4 2 2 1 1 0 0 1 1 0 -0 -0 0 0 0 -1 -1 -2
2 2 1 2 2 2 2 3 2 3 3 4 3 3 2 2 3 2 2 1 2 3 2 3 2 3 1 0 0 0 0 0 1 0 -1 -4 -3 -2 -1 -1 -1 -1 -2 -3
3 2 1 2 2 2 1 1 2 2 2 2 2 3 2 2 2 1 1 1 1 2 1 2 2 1 -1 -2 -2 -2 -1 -1 -3 -6 -6 -4 -3 -2 -1 -1 -1 -2 -6 -13
2 0 1 1 1 1 -0 0 0 1 1 1 1 1 2 2 2 1 1 1 1 1 0 1 0 -2 -3 -2 -3 -4 -6 -8 -9 -9 -8 -5 -2 -2 -1 -1 -2 -5 -15 -24
0 -0 1 -0 -0 -0 -1 -0 -0 1 0 0 0 0 1 1 1 1 1 1 1 -2 0 -0 -2 -3 -3 -3 -5 -7 -11 -13 -12 -11 -8 -5 -3 -2 -1 -2 -4 -20 -24 -21
1 -0 0 -3 -2 -3 -4 -3 -2 -0 -0 -0 0 -0 0 -0 1 -0 0 1 -2 -0 0 -2 -3 -4 -4 -4 -5 -11 -13 -13 -12 -12 -9 -6 -4 -3 -5 -11 -26 -24 -20 -19
0 -1 -3 -2 -3 -2 -1 -1 -2 -2 -1 -1 -1 -1 -2 -1 -1 -1 -1 -0 -0 -1 -2 -3 -5 -7 -8 -8 -11 -12 -13 -13 -12 -10 -7 -5 -4 -6 -12 -24 -24 -20 -18 -17
-0 -1 -1 -2 -2 -2 -3 -2 -2 -1 -1 -1 -2 -2 -1 -1 -2 -0 0 0 -1 -3 -4 -5 -5 -6 -7 -7 -8 -12 -13 -12 -12 -11 -8 -6 -6 -8 -15 -22 -22 -19 -16 -15
-1 -1 -2 -2 -2 -2 -3 -2 -2 -1 -2 -4 -3 -2 -3 -4 -1 -1 -3 -2 -3 -4 -4 -5 -5 -5 -5 -7 -11 -12 -11 -9 -10 -11 -8 -6 -7 -8 -12 -16 -18 -16 -14 -13

GFSNW_850_dewp_012.txt.gz
Dewpoint
6 7 3 -4 -5 -3 1 4 4 4 6 5 5 7 8 8 8 8 8 5 7 7 8 7 8 8 6 5 4 6 5 3 4 3 0 -1 -1 -0 -1 1 2 1 1 1
6 7 5 -3 -4 -2 2 3 3 4 6 7 6 4 6 7 7 7 7 9 7 7 8 9 7 7 5 5 5 5 5 6 8 6 4 3 3 -0 -1 1 2 3 3 2
6 7 6 -1 -5 -2 2 3 4 2 4 4 5 5 5 6 5 5 5 6 6 6 7 6 7 7 5 4 4 4 4 5 5 7 5 4 5 4 1 1 3 2 3 1
5 7 7 4 -5 -3 2 1 2 3 3 2 2 2 3 5 5 4 5 6 5 6 7 6 6 6 4 3 3 2 3 4 3 2 2 2 3 4 4 4 2 1 1 2
5 6 6 6 -2 -3 2 1 1 2 2 1 1 2 2 3 3 4 5 4 3 3 4 4 6 5 4 4 2 3 1 4 1 -0 -1 -1 -0 -0 -0 2 2 3 2 2
5 6 6 7 1 -3 0 1 1 0 0 -0 0 2 2 2 2 1 1 2 1 -0 -1 -2 -1 2 1 2 2 2 1 0 -1 -0 1 -0 -1 -1 -1 -2 -2 -2 -1 -3
5 5 6 6 5 -1 1 2 2 -0 1 1 1 1 1 1 1 2 -1 1 1 -1 -3 -3 -4 -3 -1 -0 0 0 1 1 1 2 2 4 -1 -1 -1 -2 -2 -2 -2 -2
5 5 6 6 7 0 -1 1 1 -0 1 1 1 0 0 -1 -1 -0 -1 -1 -1 -3 -2 0 1 2 1 1 2 2 -1 0 3 4 4 3 2 0 0 0 2 1 1 1
5 5 6 6 7 5 4 4 3 2 0 -0 -0 -0 -1 -0 -1 -1 -2 -2 -2 -2 -0 3 5 5 3 3 4 0 -1 -1 1 2 4 6 2 -0 -1 -2 2 2 2 1
5 4 5 6 6 7 7 6 5 5 1 1 -1 -1 0 -1 -1 -1 -2 -2 -2 -1 2 4 4 5 1 4 5 3 1 1 2 4 4 3 0 -0 -0 3 1 1 1 1
4 5 4 5 7 6 6 6 6 6 5 2 3 2 0 -0 -0 2 -1 1 0 0 3 4 4 4 2 2 3 3 3 3 3 3 3 4 0 1 2 1 1 0 0 0
4 4 4 4 5 6 6 6 6 6 6 5 4 4 2 1 2 1 -1 3 0 0 3 3 2 2 1 2 4 0 4 3 4 2 2 0 1 1 1 1 1 1 1 0
3 4 4 4 4 6 6 5 5 5 5 6 6 6 5 5 2 2 1 2 1 1 2 2 2 3 1 3 3 2 1 0 3 2 1 1 1 1 1 1 1 1 1 1
-0 1 3 4 5 4 6 7 6 5 5 4 6 5 5 5 5 3 4 3 2 2 2 3 4 5 2 3 3 2 1 2 2 2 1 1 1 1 1 1 1 1 1 1
-1 -0 3 4 5 4 6 6 5 6 5 5 5 5 5 4 5 5 3 3 2 2 3 3 4 4 4 2 2 4 2 2 3 3 1 1 1 0 -0 0 1 1 1 0
-1 -1 3 4 4 4 5 4 3 3 4 3 2 4 4 5 5 6 5 4 4 3 3 3 3 3 3 3 4 1 1 2 2 1 1 1 0 -0 0 0 0 0 0 0
-0 1 3 3 4 4 3 3 3 4 5 3 3 4 4 5 5 5 5 4 3 4 4 4 3 3 3 3 4 1 1 1 2 0 -0 0 0 -0 -0 0 0 0 0 0
0 2 3 3 3 4 4 3 4 4 4 4 2 3 3 4 4 4 4 4 4 4 4 4 4 3 3 4 2 1 1 1 0 0 -0 0 0 0 0 1 1 1 -0 -1
2 2 2 2 3 3 4 4 4 4 4 3 2 3 4 3 3 3 3 3 3 4 4 3 3 3 4 2 2 1 1 1 -0 -0 0 0 0 -0 -1 -2 -1 -1 -1 -1
2 2 2 2 1 1 3 3 3 3 4 4 3 3 3 2 3 2 2 1 2 3 3 3 3 3 2 1 1 1 1 -0 0 1 1 -0 -5 -7 -6 -4 -2 -1 -1 -2
2 2 1 2 2 2 1 1 1 2 2 2 3 2 2 2 2 2 1 1 1 1 -0 2 2 1 -1 -2 -2 -1 -1 -1 -1 -3 -6 -9 -8 -6 -3 -3 -2 -2 -2 -2
2 1 2 2 1 1 -0 1 -0 1 -0 1 1 1 1 2 2 1 1 1 1 1 0 1 1 -1 -3 -3 -3 -4 -6 -7 -9 -11 -11 -9 -7 -4 -3 -3 -2 -2 -2 -9
1 1 1 -0 0 0 -1 0 -0 0 -0 0 1 1 1 1 2 1 1 1 1 -1 0 -1 -2 -4 -4 -3 -4 -6 -9 -12 -12 -11 -11 -10 -7 -5 -3 -2 -3 -3 -11 -24
0 0 0 -1 -1 -2 -3 -4 -4 -2 0 1 1 -0 0 1 1 0 1 1 -1 0 0 -2 -4 -5 -5 -5 -5 -6 -11 -12 -12 -11 -10 -10 -7 -5 -3 -4 -7 -16 -24 -21
0 -0 -1 -2 -5 -3 -3 -2 -1 -1 0 -0 -1 -2 -2 -1 -1 -1 -0 -0 -0 -2 -2 -3 -5 -7 -7 -7 -8 -9 -10 -12 -12 -10 -9 -11 -7 -5 -5 -7 -14 -23 -22 -20
-1 -1 -3 -3 -2 -3 -3 -2 -2 -0 -1 -1 -2 -2 -2 -1 -2 -1 -1 -2 -2 -3 -4 -5 -5 -6 -7 -6 -6 -6 -7 -11 -13 -9 -6 -10 -8 -7 -7 -9 -15 -21 -23 -21
-1 -2 -2 -2 -3 -2 -3 -2 -1 -1 -2 -4 -5 -5 -5 -3 -2 -3 -4 -2 -3 -5 -6 -5 -5 -5 -5 -4 -4 -5 -7 -12 -12 -8 -6 -9 -8 -6 -7 -8 -11 -15 -16 -16

GFSNW_850_dewp_015.txt.gz
Dewpoint
5 6 7 6 -2 -5 1 4 5 6 6 6 7 9 9 6 8 8 8 5 6 6 6 7 9 7 6 5 4 6 3 2 3 2 0 -2 -1 -2 -2 2 2 1 1 1
5 6 7 7 -1 -5 1 3 4 6 6 8 7 8 8 8 8 8 7 6 7 5 7 9 7 7 5 5 4 6 4 5 7 6 4 3 2 -0 -2 0 1 2 3 1
5 5 7 7 2 -5 -1 3 4 5 6 4 5 7 8 8 6 7 6 7 7 6 7 6 7 7 5 4 4 4 3 5 3 4 4 4 4 3 0 1 3 2 2 1
5 5 6 7 5 -5 -0 2 1 3 4 3 3 3 5 6 7 6 7 7 8 6 7 6 7 6 4 3 3 2 2 4 3 2 2 3 4 4 2 1 0 2 0 2
5 5 6 6 7 -5 0 2 1 2 1 1 1 2 4 4 4 5 8 8 4 6 5 4 7 5 4 4 2 2 1 4 1 -0 -1 -1 1 1 4 3 3 1 2 2
5 5 6 6 7 -3 1 1 2 1 0 -0 0 2 2 3 2 1 2 3 1 2 1 -2 0 1 1 1 2 2 0 0 -1 1 0 -1 -2 -1 -1 -2 -1 0 0 -3
5 5 6 6 7 -0 -1 1 2 -1 -0 1 1 1 1 3 1 2 -0 -0 0 -2 -3 -1 -1 -2 0 1 1 -0 1 0 -0 1 1 1 -2 -1 -1 -2 0 -2 0 0
5 5 5 6 7 3 -1 0 2 -0 1 1 1 0 0 -1 -1 -1 -1 -1 -1 -3 -2 0 2 2 0 1 2 -0 -1 0 3 3 3 1 2 0 -0 1 3 1 2 1
6 5 5 6 7 6 2 4 2 1 1 0 0 -0 -1 -0 -1 -2 -2 -2 -2 -2 1 4 4 5 3 4 3 -1 -1 -1 2 4 6 6 2 -0 -1 -2 5 1 2 2
5 5 5 6 6 7 6 6 5 4 -0 1 -0 -1 -0 -2 -1 -1 -2 -2 -2 -1 3 4 4 5 2 5 5 2 0 1 3 4 4 3 -0 -1 -1 3 2 1 1 1
4 5 5 5 6 6 7 6 6 6 3 2 2 1 -1 -1 -1 1 -1 1 0 1 4 4 4 4 2 3 2 1 1 2 3 3 4 4 0 1 2 0 1 0 0 0
3 5 5 5 7 6 6 6 6 6 5 3 3 2 1 1 2 0 -1 2 0 1 3 2 2 3 1 2 5 1 4 2 3 2 2 -0 1 0 0 0 0 0 0 0
3 4 5 4 5 6 6 5 5 5 6 6 5 5 5 2 2 1 1 2 1 2 1 2 2 3 1 3 2 2 1 0 2 2 1 1 1 1 1 1 1 1 1 1
2 2 4 5 5 6 6 6 5 5 5 4 5 5 5 6 3 3 3 2 1 2 3 3 3 4 1 2 2 2 1 1 2 2 1 1 1 1 1 1 1 1 1 1
1 0 1 3 5 6 6 6 6 5 4 5 5 5 5 5 5 4 3 2 2 2 3 4 5 4 4 2 2 4 2 2 3 3 1 0 1 0 0 0 0 1 1 1
-1 2 2 4 5 3 5 4 4 4 3 3 3 4 4 5 5 3 3 3 4 4 3 3 3 3 2 3 2 1 1 2 2 1 1 1 1 0 -0 -1 -1 -0 0 0
0 3 4 4 5 3 2 2 3 3 2 2 3 3 3 5 5 4 4 4 4 4 4 4 3 3 2 3 4 1 1 1 2 1 0 0 0 -0 -0 -0 -0 -0 -0 0
3 3 3 4 4 3 3 2 3 4 3 3 2 3 3 4 4 4 4 4 4 4 4 4 3 3 3 2 1 1 1 1 1 0 -0 -0 0 0 -0 -0 -1 -3 -4 -2
3 2 2 3 3 3 3 4 3 4 3 3 2 3 4 3 3 3 3 3 3 4 4 3 2 3 3 1 1 1 1 1 -0 -0 -0 0 0 -0 -3 -8 -9 -8 -4 -1
2 2 1 1 2 3 3 3 4 3 3 4 2 2 3 3 3 2 2 2 3 3 3 3 3 4 2 2 1 1 1 0 -0 -0 -0 -0 -1 -6 -9 -9 -8 -4 -2 -1
2 2 2 2 3 2 1 1 2 2 2 3 2 2 2 2 2 2 1 1 1 2 1 3 2 -0 -2 -2 -2 -1 0 1 1 -1 -3 -8 -10 -9 -8 -6 -5 -3 -2 -2
2 1 2 2 1 0 0 1 0 1 0 1 2 2 2 2 1 1 1 1 0 -0 -0 1 -0 -3 -3 -3 -3 -2 -3 -4 -7 -10 -10 -9 -9 -9 -8 -6 -5 -3 -2 -2
2 1 2 1 0 0 0 1 0 0 -1 1 1 1 1 2 1 1 1 1 -0 -1 0 -0 -2 -4 -4 -3 -4 -7 -9 -11 -11 -10 -8 -7 -8 -9 -8 -6 -4 -3 -3 -3
0 -0 -0 -0 -0 -1 -2 -4 -3 -3 0 1 1 -0 1 1 1 1 0 -0 -1 -0 -3 -3 -4 -4 -4 -4 -5 -7 -10 -11 -11 -11 -9 -6 -5 -9 -10 -7 -5 -5 -6 -8
-0 -0 1 -1 -4 -4 -4 -3 -1 -1 1 0 -1 -1 -1 -0 0 -1 -0 0 0 -1 -3 -5 -5 -5 -7 -8 -9 -9 -8 -9 -9 -11 -11 -8 -5 -7 -9 -7 -6 -7 -11 -20
-1 -2 -4 -3 -4 -3 -3 -3 -2 -0 -0 -2 -3 -3 -1 -1 -1 0 -0 -1 -3 -4 -5 -5 -7 -7 -8 -9 -8 -6 -6 -6 -6 -9 -12 -11 -7 -6 -8 -7 -7 -8 -13 -20
-1 -2 -3 -3 -3 -3 -2 -2 -1 -0 -1 -2 -4 -5 -4 -3 -2 -2 -4 -4 -4 -5 -5 -5 -7 -8 -7 -6 -6 -5 -5 -5 -6 -7 -10 -11 -7 -6 -7 -8 -7 -8 -13 -18

GFSNW_850_dewp_018.txt.gz
Dewpoint
5 5 5 6 7 1 -2 3 5 6 6 6 7 9 8 7 8 8 8 7 5 5 7 7 7 7 7 5 4 2 0 1 3 2 -0 -3 -3 -1 -0 4 3 1 2 2
5 5 5 6 6 2 -3 3 5 6 6 9 8 8 8 8 8 8 8 6 5 4 6 8 8 7 5 4 4 5 3 4 7 6 4 3 1 -1 -2 -0 0 1 3 2
5 5 5 6 6 5 -3 3 4 6 6 6 6 8 8 9 7 8 7 6 4 6 7 6 8 8 5 4 4 4 3 4 3 5 3 3 4 1 -0 1 3 2 1 1
5 5 5 6 6 6 -2 3 1 3 5 4 4 5 7 8 9 7 6 7 6 6 7 7 7 5 5 3 4 3 2 5 3 1 3 3 3 3 1 1 1 3 2 1
5 5 5 6 6 6 -1 2 1 2 2 1 2 3 5 7 4 6 7 8 5 5 6 5 7 5 5 5 2 2 1 4 0 0 -1 1 3 3 1 1 1 -0 1 1
5 5 5 6 6 6 2 1 2 1 0 -0 1 2 5 4 3 5 6 4 5 3 1 -1 1 1 1 2 2 2 1 1 2 3 0 -2 -0 -1 4 2 1 2 4 1
5 5 5 6 7 7 0 1 2 0 0 0 1 1 2 3 1 4 4 4 2 0 -1 0 -1 -1 1 0 -0 -1 -0 -1 -0 1 -0 0 -1 -1 -2 -0 -0 -2 -1 0
5 5 5 5 7 7 -0 1 2 -0 0 1 0 0 1 -1 -1 -1 -0 -1 -1 1 -2 5 4 4 -0 1 -0 -1 -1 -0 2 2 1 0 2 0 1 1 3 2 2 1
5 5 5 5 6 7 1 4 2 1 1 1 -0 -0 -1 0 -1 -1 -2 -1 -2 -2 2 3 5 7 4 2 2 -2 -1 -0 1 4 6 4 1 -0 -1 0 5 2 1 2
4 5 5 5 6 7 5 5 5 3 -0 1 -1 -1 -0 -2 -2 -1 -2 -3 -2 -1 3 5 6 5 2 4 4 1 1 1 2 4 4 3 -0 -0 -1 3 3 2 1 1
4 4 5 5 6 7 7 6 6 5 1 2 2 0 -1 -1 -1 -0 -2 -0 -1 1 4 4 4 3 2 3 2 0 1 2 3 3 4 4 -0 1 2 1 1 0 0 -0
4 5 5 4 6 7 7 6 6 5 3 3 2 1 1 1 1 -0 -1 1 0 0 3 2 2 3 1 3 5 1 3 1 2 2 3 0 1 0 0 0 0 0 0 0
4 4 5 4 6 7 7 6 6 5 4 5 5 5 2 2 1 -0 1 2 1 2 1 1 2 2 1 4 3 2 1 1 2 2 1 1 1 1 0 0 0 0 1 1
4 4 5 5 5 6 7 6 5 5 5 5 5 5 5 4 3 3 3 2 1 2 2 3 3 3 1 2 2 2 1 1 2 2 1 1 1 1 1 1 1 1 1 1
3 4 4 5 5 5 7 7 6 5 4 5 5 5 5 5 5 3 3 2 2 2 3 4 4 3 3 1 1 3 1 2 3 3 1 1 1 1 0 0 0 0 1 1
2 4 4 4 5 5 6 6 6 4 4 4 4 4 5 5 4 3 2 2 3 4 3 3 3 3 2 2 2 0 2 2 1 1 1 1 1 0 0 -0 -0 -0 -0 -0
2 3 4 4 5 5 3 2 4 4 2 2 3 3 4 4 4 4 4 4 4 4 4 3 3 3 2 2 2 0 1 2 2 1 1 0 0 0 -0 -1 -1 -1 -1 -1
3 3 3 4 5 4 3 2 4 3 2 1 2 3 3 4 4 4 4 4 4 4 4 4 3 3 3 4 1 1 1 2 1 1 0 -1 -0 -0 -1 -1 -2 -3 -6 -6
3 3 4 4 4 2 2 2 4 3 2 2 2 3 2 3 3 4 3 3 4 4 4 3 3 4 4 1 1 1 1 1 0 0 -0 -0 -0 -0 -1 -7 -9 -9 -9 -6
3 3 1 2 2 2 2 2 2 2 3 3 2 2 3 3 3 2 2 2 3 4 3 3 3 3 2 1 1 1 1 1 -1 -0 0 0 -0 -4 -10 -9 -8 -8 -8 -6
3 2 1 2 3 2 1 1 2 2 1 2 2 2 2 2 2 2 1 1 1 2 2 3 1 1 -2 -1 1 1 1 0 -0 0 -2 -7 -10 -9 -9 -8 -8 -7 -7 -6
2 1 2 2 0 0 -2 -0 -0 1 1 1 2 2 2 2 1 1 -0 1 -3 1 0 2 -1 -3 -2 -3 -1 -1 -0 1 1 -6 -9 -8 -7 -8 -9 -9 -9 -8 -7 -5
2 2 2 2 0 0 1 2 1 -1 -2 1 1 1 1 2 0 -0 -1 0 0 -1 1 -0 -2 -4 -3 -3 -4 -3 -3 -5 -9 -9 -7 -7 -6 -6 -7 -9 -10 -8 -6 -4
1 -0 -0 1 -0 -0 -1 -3 -3 -2 0 1 1 0 1 1 1 0 0 -1 -1 1 -0 -2 -5 -4 -3 -4 -7 -9 -10 -10 -10 -10 -9 -8 -6 -5 -5 -7 -9 -8 -6 -5
-0 -0 1 -1 -5 -4 -4 -3 -2 -0 1 1 -0 -1 -0 -0 0 -2 -3 0 0 -1 -3 -4 -5 -4 -5 -6 -7 -8 -9 -9 -9 -9 -10 -11 -11 -8 -6 -6 -7 -9 -7 -7
-1 -2 -3 -4 -4 -4 -4 -2 -1 0 1 -1 -2 -2 -1 -1 -1 0 -3 -4 -3 -4 -6 -5 -5 -6 -8 -9 -9 -8 -7 -7 -7 -7 -7 -8 -11 -11 -9 -7 -6 -7 -7 -8
-1 -2 -3 -4 -4 -4 -3 -2 -1 0 -1 -2 -4 -2 -1 -2 -1 -1 -4 -4 -5 -6 -5 -6 -8 -9 -8 -7 -7 -6 -6 -6 -7 -8 -7 -6 -7 -8 -8 -6 -6 -6 -7 -8

GFSNW_850_dewp_021.txt.gz
Dewpoint
4 5 5 5 5 6 2 2 5 6 5 6 4 6 5 5 7 5 4 4 4 3 2 6 5 6 5 3 4 4 0 1 4 2 0 1 -1 1 1 4 3 1 2 3
4 5 5 4 5 6 3 2 5 5 5 7 6 4 7 7 7 7 6 7 4 3 3 4 6 6 3 4 5 3 1 3 7 8 7 3 2 -2 -1 -0 0 2 3 3
5 5 5 5 5 6 4 3 5 5 6 6 7 8 8 8 8 8 7 6 3 6 6 6 7 7 6 5 5 3 1 3 3 7 5 3 3 0 -1 1 3 2 1 0
5 5 5 4 6 6 5 3 3 5 5 6 6 7 8 9 9 8 7 6 3 6 8 7 8 6 6 5 4 3 2 4 2 1 1 2 2 2 0 1 1 2 1 0
5 5 5 5 6 6 6 3 1 2 2 1 4 6 7 8 6 6 7 6 4 5 7 6 7 5 5 5 3 3 1 4 0 1 1 3 3 2 0 0 0 0 0 1
5 5 5 5 6 6 3 1 2 2 1 0 4 4 7 7 5 5 5 4 4 3 1 2 3 3 2 3 3 2 3 1 2 4 -0 -1 3 2 2 1 1 -0 2 -0
5 5 4 5 5 6 5 2 2 1 1 1 1 1 6 5 5 7 5 2 3 -0 0 0 1 1 1 2 -0 0 5 2 2 2 -1 3 1 -1 1 1 -0 -0 -2 -2
5 5 5 5 6 6 6 2 2 2 0 0 1 1 1 -1 0 3 4 2 1 -0 1 5 7 6 5 2 -0 1 -1 0 1 3 1 1 2 0 1 1 2 1 2 1
4 4 4 5 5 6 6 1 2 2 1 1 0 0 -0 1 -1 1 2 4 3 3 4 4 8 9 7 4 2 -2 -1 -1 3 4 4 3 -0 -0 -1 0 3 2 1 1
4 5 5 4 5 6 6 3 5 4 -0 1 -1 -0 0 -1 -1 0 -1 -2 1 2 4 5 5 4 3 5 2 2 2 1 2 4 4 3 -0 -0 -1 4 2 2 1 1
5 4 5 5 5 6 6 6 6 5 1 2 2 -0 -1 -1 -2 -0 -2 -1 -1 2 4 5 5 4 2 3 1 1 2 3 3 3 4 3 -1 0 2 1 2 1 1 1
4 4 4 4 5 6 6 6 6 6 2 4 2 1 0 0 0 -2 -2 0 -1 -0 3 2 2 3 2 3 5 1 2 0 2 2 2 0 1 0 0 1 0 0 -0 -0
5 4 4 4 5 6 6 6 6 5 4 4 4 3 2 2 0 -2 1 2 0 1 1 1 2 3 1 4 3 2 1 0 2 1 1 1 1 1 0 0 0 -0 -0 -0
5 4 4 5 5 6 6 6 6 6 4 4 5 5 5 3 2 2 2 2 2 1 2 2 3 2 0 2 1 2 1 1 2 2 1 1 1 1 0 0 0 0 0 0
5 4 4 4 4 6 7 6 6 5 4 5 5 5 5 5 4 3 2 2 2 2 3 3 4 2 2 1 1 2 1 1 2 2 1 1 1 1 1 0 0 0 0 0
4 4 4 5 5 6 6 6 6 5 4 4 4 4 5 4 3 3 2 2 3 3 3 2 3 3 2 2 2 0 1 1 0 1 1 1 1 1 1 0 -0 -0 -0 -0
4 4 4 4 5 5 5 3 5 5 3 2 3 3 4 4 3 4 4 4 4 4 3 3 2 3 2 2 1 -1 1 2 1 1 1 1 1 0 0 -1 -1 -1 -1 -2
3 3 3 4 5 5 3 2 5 3 2 1 2 3 4 4 4 4 4 4 4 4 4 3 3 3 3 4 1 1 1 2 1 1 0 1 0 -0 -1 -1 -2 -2 -3 -5
3 3 3 5 5 3 2 1 4 3 1 1 2 3 3 4 3 4 3 3 4 4 4 4 3 4 3 2 0 1 1 1 1 0 -0 -0 -1 -1 -1 -1 -3 -6 -8 -8
3 4 3 2 3 2 1 2 3 2 2 2 1 1 3 3 3 2 2 2 3 4 3 3 4 4 1 1 1 1 1 1 0 -0 -0 -0 -0 -1 -4 -9 -9 -8 -8 -8
4 2 1 3 3 2 1 2 0 1 -0 2 2 1 2 2 2 2 1 1 0 3 2 4 2 2 -0 1 1 1 1 1 -0 -1 -1 -1 -2 -9 -9 -8 -8 -8 -9 -8
2 1 3 3 1 0 -2 -2 0 1 -0 2 2 1 1 1 0 0 -0 -1 -5 -1 0 3 2 -2 -2 -1 1 1 1 -0 -0 -3 -7 -9 -8 -8 -9 -9 -9 -9 -8 -7
2 2 1 1 0 1 -1 2 1 1 -0 1 1 1 1 1 -0 -2 -3 -4 -3 -2 1 1 -1 -4 -3 -2 -1 -0 1 0 -1 -9 -7 -8 -8 -7 -7 -8 -9 -10 -9 -7
1 0 1 1 1 -0 -2 -2 -2 -2 0 1 1 0 1 1 -2 -0 -1 -1 -1 0 -1 -3 -4 -4 -3 -3 -1 0 1 0 -8 -7 -7 -7 -7 -6 -6 -6 -6 -7 -8 -8
-0 0 2 -0 -4 -4 -4 -3 -1 -0 1 1 0 -1 -0 -1 -0 -1 -1 0 0 -1 -3 -5 -5 -4 -4 -6 -7 -8 -9 -9 -10 -10 -10 -10 -10 -10 -8 -7 -6 -6 -6 -7
-1 -2 -3 -4 -4 -4 -3 -2 -1 1 1 -1 -2 -3 -4 -1 -2 -0 -3 -2 -2 -4 -5 -5 -4 -4 -6 -7 -9 -9 -9 -8 -7 -7 -7 -7 -8 -10 -10 -10 -8 -6 -6 -7
-1 -2 -3 -4 -5 -4 -3 -2 0 1 -1 -2 -4 -2 -2 -4 -3 -1 -5 -4 -4 -6 -5 -4 -5 -8 -9 -9 -8 -7 -7 -7 -8 -8 -8 -7 -7 -7 -7 -7 -6 -5 -6 -7

GFSNW_850_dewp_024.txt.gz
Dewpoint
5 4 4 5 6 5 5 1 5 6 5 4 4 4 5 4 5 5 4 3 1 0 0 1 3 3 2 0 1 6 5 1 5 6 2 2 4 6 6 8 6 3 2 2
5 4 4 5 5 5 5 2 5 5 5 6 5 4 4 5 4 6 5 5 1 -1 -0 2 4 2 -1 2 3 5 4 3 6 6 5 2 5 1 4 3 1 4 5 3
5 4 4 5 5 5 6 3 6 5 5 5 6 5 5 5 5 5 4 6 1 -0 -1 -0 3 5 2 3 2 3 1 3 4 5 4 4 6 7 1 4 6 4 2 1
5 5 4 4 5 5 6 1 4 5 6 5 6 6 7 6 7 6 6 7 4 -1 -0 1 4 5 5 5 3 4 4 4 2 2 3 2 3 5 6 2 2 4 2 2
5 4 4 4 5 6 6 2 3 2 3 5 5 6 7 8 7 7 8 7 5 1 3 2 5 6 4 6 5 4 3 4 2 2 2 3 3 2 4 3 1 1 1 1
5 4 4 4 5 6 5 4 0 2 1 1 6 7 7 8 6 6 5 4 3 4 5 3 3 3 3 4 5 5 4 3 3 5 1 3 4 2 2 1 0 0 2 0
5 4 4 5 5 5 6 2 2 2 1 1 4 2 7 7 6 7 3 3 3 1 2 2 3 3 3 4 3 2 4 4 4 4 1 9 2 -1 -0 1 -0 -1 -1 -1
5 5 4 4 4 5 5 6 2 3 3 0 3 2 4 3 4 4 4 3 1 0 1 5 7 7 6 5 1 2 3 3 5 7 4 3 -1 0 0 2 2 -1 -0 -1
5 5 4 4 5 5 6 6 3 2 1 1 1 2 0 2 3 4 3 3 2 2 4 7 9 9 8 7 5 -0 1 2 7 5 6 8 0 -0 -1 -1 2 0 -1 0
5 5 4 4 4 5 6 6 3 3 2 1 1 1 1 -0 3 4 2 4 4 4 6 6 7 6 4 7 6 6 3 2 7 8 8 2 -0 -1 -0 1 2 1 -0 1
5 5 4 5 5 5 6 6 4 4 2 2 1 -0 -1 -1 1 6 2 4 4 5 6 7 6 4 5 3 1 4 4 6 5 6 7 7 -0 -0 1 1 2 2 1 1
5 5 4 4 4 5 6 6 6 6 5 3 2 1 0 0 -1 0 1 2 2 5 5 4 3 3 2 3 3 -0 3 4 2 2 2 1 1 1 0 2 1 1 1 0
5 5 4 4 4 5 6 6 6 6 4 4 4 3 3 2 -0 -2 1 1 -1 1 2 3 3 5 2 4 4 2 1 0 1 1 2 1 1 1 1 1 0 -0 -1 -1
5 5 4 4 4 5 6 6 6 4 3 5 5 4 4 3 2 -1 1 1 0 1 2 4 4 4 1 3 2 2 1 1 1 2 1 1 1 1 0 0 -0 -1 -1 -1
5 5 4 4 4 5 6 6 6 6 5 5 5 5 5 5 3 3 2 1 2 3 4 5 5 2 3 2 2 3 0 1 2 2 1 1 1 1 0 0 -0 -1 -1 -0
5 5 4 4 4 5 5 6 6 6 5 5 6 4 5 4 3 2 2 2 3 3 4 4 4 3 3 6 5 1 1 1 0 0 1 1 1 1 0 -0 -0 -1 -1 -2
5 4 3 4 5 5 5 4 6 6 5 3 4 5 4 4 4 4 4 4 4 4 4 4 4 4 3 3 6 0 1 1 1 1 1 1 1 1 1 -0 -0 -1 -1 -1
4 4 4 4 5 5 5 3 5 5 3 2 2 4 4 4 5 5 4 5 4 4 4 4 4 4 3 6 2 0 2 2 1 1 0 1 1 1 0 -0 -1 -1 -2 -4
4 4 4 4 5 4 3 4 4 3 2 2 2 4 5 4 4 4 3 4 5 4 4 4 4 4 6 5 2 1 1 1 1 0 0 0 0 0 -0 -1 -2 -3 -4 -7
3 4 4 3 4 3 2 3 3 3 2 2 3 2 4 3 3 2 3 2 4 5 4 3 4 5 3 2 1 1 1 1 1 0 -0 0 -0 -1 -1 -2 -4 -7 -8 -8
4 3 1 3 3 1 -0 1 2 2 2 2 2 1 3 2 3 3 1 3 2 5 3 4 4 3 2 2 1 1 1 1 1 1 -1 -1 -2 -2 -4 -8 -8 -8 -8 -9
3 2 3 2 1 -0 1 2 1 2 2 2 2 2 2 1 0 1 0 2 0 3 1 3 3 0 -2 0 1 1 1 1 -0 -1 -1 -1 -1 -8 -8 -8 -8 -9 -9 -9
3 3 2 1 0 2 2 2 1 3 2 1 1 2 1 0 -1 -0 -0 1 2 -1 3 2 0 -3 -2 -0 1 1 1 -0 -2 -3 -5 -8 -9 -9 -8 -8 -9 -9 -10 -9
1 0 2 2 2 1 0 0 0 -1 1 1 1 1 1 0 1 -0 1 -1 -1 1 1 -0 -4 -4 -3 -2 0 1 0 -3 -8 -8 -8 -8 -8 -7 -7 -7 -6 -7 -7 -7
-0 1 2 2 -3 -4 -4 -3 -1 0 1 1 1 0 -0 -0 -0 -1 -0 0 1 -1 -1 -3 -5 -3 -3 -1 -0 0 0 -4 -7 -7 -7 -7 -7 -7 -7 -6 -6 -6 -6 -6
-1 -2 -2 -3 -3 -3 -3 -2 -0 1 1 -0 -2 -0 -0 -0 -0 -0 0 -0 -0 -1 -2 -5 -4 -4 -4 -1 1 1 -2 -7 -8 -9 -9 -9 -9 -9 -10 -10 -9 -7 -6 -6
-1 -2 -3 -4 -4 -3 -2 -1 0 1 -0 0 -1 1 0 -1 -0 1 -2 -1 -2 -4 -5 -4 -4 -7 -8 -9 -9 -9 -8 -8 -8 -9 -9 -9 -8 -8 -8 -7 -7 -6 -6 -6

GFSNW_850_dewp_027.txt.gz
Dewpoint
5 5 6 5 4 5 6 5 4 5 4 4 4 4 3 4 4 4 5 4 5 4 0 -1 -0 1 -1 -3 -1 6 6 6 9 8 4 5 6 7 6 6 6 3 2 2
4 6 6 4 4 6 6 3 4 5 4 5 5 3 4 4 5 5 5 5 5 2 -2 -1 -1 -1 -2 -1 -0 5 4 4 10 9 7 6 8 6 6 5 4 5 4 3
3 6 6 4 4 6 5 3 6 5 5 4 6 5 5 5 4 5 4 4 3 2 -2 -3 -1 0 -1 -0 -2 3 4 4 3 5 6 6 7 5 4 6 6 4 3 1
2 5 6 4 4 6 5 2 4 4 5 5 5 6 5 7 5 5 4 6 5 2 -0 -1 1 1 1 2 1 3 4 5 2 2 2 4 5 6 4 5 5 5 3 2
2 4 5 4 4 5 5 3 2 4 5 3 4 5 6 6 5 5 6 6 5 1 -2 -2 1 2 2 4 2 2 4 5 2 3 1 2 3 4 5 5 3 3 3 2
2 5 5 4 4 5 5 5 2 2 1 2 4 5 6 7 7 6 5 4 5 1 -4 -5 -2 0 0 2 3 3 5 5 4 4 1 2 5 2 2 3 4 3 4 1
1 3 5 4 4 5 5 5 4 3 1 -2 0 4 6 7 7 7 5 4 4 -0 2 -1 -0 2 2 2 3 3 4 4 4 6 3 8 1 -1 -0 1 1 2 2 1
1 1 2 5 5 5 5 6 3 3 1 -2 0 4 5 5 5 5 4 3 2 3 6 6 7 7 6 5 3 3 2 3 5 6 5 3 2 -0 0 1 2 -1 -0 -1
2 3 4 5 5 5 5 5 5 3 2 -2 1 3 2 5 5 5 4 3 2 2 5 8 9 9 8 8 6 1 4 3 6 7 8 8 1 -1 -2 -1 4 -1 -1 -1
1 2 5 5 5 5 5 6 5 5 2 0 1 4 3 3 5 5 4 4 4 5 6 9 9 9 7 9 8 7 6 6 8 8 8 6 -0 -2 -1 3 4 -0 -1 -1
1 2 4 5 5 5 5 5 6 4 3 3 2 2 0 -0 5 6 4 6 5 6 8 8 6 7 6 6 6 6 7 8 8 8 9 9 -1 -0 1 2 1 0 -0 1
1 2 4 5 4 5 5 5 6 4 5 5 3 2 0 -0 2 5 4 4 4 6 7 6 4 4 4 4 6 1 7 5 5 6 6 1 -0 1 1 2 1 1 1 2
1 2 4 4 4 5 5 5 6 5 5 5 4 4 2 1 0 6 5 4 5 6 4 5 5 5 2 6 4 2 1 -1 1 1 1 1 0 1 1 2 2 2 1 1
2 3 4 4 5 5 5 5 6 6 5 5 5 4 4 3 1 0 2 4 0 5 5 6 6 7 2 4 2 2 0 0 1 1 1 1 1 1 1 1 1 1 0 0
2 4 5 4 4 5 5 6 5 6 6 5 5 5 5 4 3 2 2 2 2 3 5 6 7 3 3 2 2 3 0 0 2 2 0 0 0 1 1 1 0 -1 -1 -1
2 4 5 4 4 4 5 5 5 6 5 5 5 5 4 4 4 3 2 2 3 5 5 5 4 4 4 7 6 2 0 0 1 0 0 1 1 1 1 1 0 -1 -1 -2
3 5 5 4 4 5 5 5 6 6 6 4 5 5 4 4 4 4 5 4 4 5 5 5 4 4 4 4 7 2 0 1 1 1 1 1 1 1 1 1 -0 -0 -1 -2
4 4 4 4 4 5 5 3 5 6 5 4 3 5 5 4 5 5 4 5 6 5 5 5 5 4 3 7 4 1 1 1 1 1 1 1 1 1 1 -0 -1 -1 -2 -2
4 4 4 4 4 5 4 5 5 4 4 3 4 5 6 4 4 4 4 5 6 4 5 5 5 5 7 6 4 1 2 1 1 1 1 1 1 1 0 -0 -1 -2 -2 -4
4 4 4 4 5 4 4 3 3 3 2 1 4 3 4 3 3 3 3 3 5 6 5 4 5 6 4 3 2 1 1 1 1 1 1 1 1 0 -0 -1 -2 -3 -4 -6
4 4 2 4 4 2 0 2 4 3 3 3 2 2 3 2 4 3 2 4 3 6 4 5 5 4 3 2 2 1 1 1 1 1 0 1 1 0 -1 -2 -3 -6 -8 -9
3 2 3 3 1 1 2 4 2 2 3 2 2 2 2 1 -0 2 1 3 2 4 1 4 4 1 -2 0 1 2 1 1 1 1 0 0 -0 -1 -3 -7 -8 -9 -9 -9
3 3 2 2 1 3 3 3 3 2 2 2 2 2 1 1 -0 1 2 3 4 -0 2 2 1 -2 -1 0 1 1 1 0 0 -0 -1 -1 -2 -7 -9 -9 -9 -9 -9 -9
1 1 2 3 2 2 2 1 2 2 2 2 2 1 1 1 2 1 3 0 -0 2 2 2 -2 -3 -2 -0 0 -0 -1 -1 -1 -1 -3 -7 -9 -9 -9 -9 -8 -8 -8 -8
-0 1 3 2 -1 -2 -2 -1 -0 1 2 1 2 1 0 0 1 -0 -1 1 2 1 1 -2 -5 -3 -2 0 0 -1 -5 -6 -7 -8 -9 -9 -8 -8 -7 -7 -6 -6 -7 -7
-1 -1 -1 -2 -1 -2 -2 -1 0 2 1 0 1 1 2 0 1 0 1 1 1 0 -1 -2 -3 -3 -2 -0 -0 -4 -7 -7 -7 -7 -7 -8 -8 -8 -8 -8 -8 -8 -8 -7
-1 -1 -2 -2 -1 -1 -1 -0 1 1 1 3 2 3 3 -0 1 1 -0 1 -0 -2 -3 -2 -4 -3 -2 -1 -1 -5 -6 -7 -8 -9 -9 -9 -9 -9 -9 -9 -8 -7 -6 -6

GFSNW_850_dewp_030.txt.gz
Dewpoint
1 1 4 5 6 5 6 6 5 4 5 4 4 4 2 1 3 4 4 5 5 6 4 4 1 1 -1 -2 3 5 5 7 8 7 6 6 7 8 7 7 6 4 4 3
2 2 5 5 6 5 6 5 5 5 5 5 4 3 3 2 4 4 4 5 4 4 4 4 -0 -1 -3 -2 2 4 6 7 9 9 8 7 9 8 8 5 5 6 5 3
1 2 3 4 6 5 5 4 6 5 5 4 4 4 4 4 4 4 4 4 4 6 5 2 -1 -1 -1 -1 -0 3 6 8 8 10 9 8 9 8 6 6 8 5 3 1
0 1 2 4 6 5 5 3 5 4 5 4 5 5 5 6 5 4 4 5 5 6 4 3 -2 -2 0 1 -1 4 7 7 7 6 6 7 7 7 4 7 6 6 4 1
0 0 2 4 5 5 6 3 3 4 4 3 5 5 5 6 5 5 5 6 5 4 4 -2 -1 -1 1 1 -1 2 5 8 4 4 4 4 6 5 4 4 5 5 4 4
0 -0 2 2 5 5 5 4 2 3 3 4 5 5 5 6 6 5 4 4 6 5 3 -4 -4 -2 -1 0 3 3 6 6 5 4 2 3 5 4 6 5 4 3 5 3
-0 -0 1 3 5 5 5 5 4 3 4 3 2 1 4 6 6 7 5 4 5 3 2 -2 -1 0 -0 2 1 0 4 5 6 7 3 7 2 -0 0 2 3 3 4 2
-1 0 0 1 2 5 5 5 5 4 5 3 3 -0 5 5 6 6 6 5 4 3 2 3 6 6 6 4 2 3 2 5 7 8 6 3 2 0 1 2 2 -0 2 2
-1 -0 1 3 4 5 5 5 5 3 4 4 1 4 4 6 6 6 3 3 2 4 7 7 7 8 8 8 6 3 4 3 6 8 8 8 2 -1 -2 -1 4 1 -0 0
-1 -0 1 2 5 5 5 5 5 5 4 3 2 3 4 5 6 5 4 4 3 5 8 8 8 7 6 8 9 8 7 7 8 8 9 6 0 -2 -2 4 4 0 -1 1
-2 -0 1 2 5 5 5 5 5 5 4 4 3 2 4 3 6 7 4 5 5 6 8 8 8 8 7 8 7 7 7 7 8 8 9 8 -1 -0 2 2 1 -0 1 2
-2 -0 1 3 5 5 5 5 4 5 5 6 4 2 2 2 3 6 5 5 5 6 6 6 4 6 5 6 9 4 8 7 7 7 6 1 -0 1 1 2 1 2 2 2
-1 -0 2 4 5 5 5 4 5 5 4 4 4 4 2 1 0 5 5 5 6 6 4 5 6 5 4 5 4 4 3 4 2 3 1 1 1 1 1 2 1 2 1 1
-2 -0 2 4 4 5 4 4 5 5 5 5 5 5 4 4 2 3 6 5 5 6 6 6 7 8 2 5 3 3 1 0 2 1 2 1 1 1 2 2 2 1 1 0
-2 0 2 4 4 5 5 5 5 5 6 6 5 5 4 4 3 1 4 6 3 5 6 7 7 6 4 4 3 3 0 1 3 3 0 0 1 1 1 1 1 0 -0 -0
-1 1 2 4 4 5 5 5 5 5 5 6 5 5 5 4 3 3 2 3 4 4 6 6 4 3 4 5 6 3 0 -0 0 1 0 1 1 1 1 1 0 -0 -2 -2
-1 1 3 4 4 4 5 5 5 5 5 5 4 5 4 5 5 5 5 4 4 6 5 6 5 4 4 5 7 2 0 1 1 1 1 1 1 1 1 0 -0 -1 -2 -3
-1 2 4 4 4 5 5 5 5 5 5 5 3 4 4 4 5 5 5 6 6 5 5 5 5 4 4 6 5 1 1 1 1 1 1 1 1 1 1 0 -0 -1 -2 -3
1 4 4 4 4 4 5 4 4 5 5 3 3 4 5 4 4 4 4 5 5 5 5 5 5 5 5 5 4 1 1 1 1 1 1 1 1 1 0 -0 -1 -2 -2 -3
3 4 4 4 4 4 4 4 4 3 3 3 4 3 4 3 3 3 4 3 4 4 5 4 5 5 4 4 3 2 1 1 1 1 1 1 1 1 0 -0 -1 -3 -4 -5
4 4 3 4 4 3 2 3 4 3 3 3 2 3 3 3 4 3 2 3 2 5 4 4 5 4 3 2 2 1 2 1 1 1 0 1 1 0 -0 -1 -2 -3 -6 -9
3 3 3 2 3 2 2 3 2 2 3 3 3 3 3 1 0 2 2 3 2 4 2 4 3 1 -1 0 2 1 1 1 1 1 1 1 1 -0 -1 -2 -5 -8 -9 -10
3 3 2 3 1 3 2 2 2 2 2 2 2 2 1 0 -0 0 1 2 3 -0 2 2 1 -2 -0 1 1 1 1 1 1 1 1 0 -0 -2 -4 -8 -8 -10 -10 -9
1 0 2 3 3 1 1 1 1 1 2 2 2 1 1 1 0 0 -1 0 -0 1 2 0 -1 -2 0 1 1 0 0 0 0 -0 -1 -3 -7 -8 -9 -10 -10 -10 -9 -8
0 1 3 2 -1 -1 -1 0 1 1 2 1 1 1 0 0 -1 -0 -1 1 0 1 1 -1 -3 -2 0 -0 -1 -1 -1 -1 -1 -3 -7 -9 -10 -10 -9 -8 -8 -7 -7 -7
-1 -1 -0 -1 -1 -2 -1 -0 1 2 1 0 -0 0 -0 0 -1 -1 -2 -1 -1 -0 -1 -3 -3 -2 0 -1 -3 -3 -3 -4 -7 -9 -9 -9 -9 -8 -8 -7 -7 -7 -7 -7
-1 -1 -2 -2 -1 -1 -1 0 1 2 1 1 1 0 0 -0 0 -1 -2 -1 -1 -2 -2 -3 -3 -1 0 -2 -6 -7 -7 -8 -8 -8 -7 -8 -9 -9 -9 -9 -9 -8 -7 -6

GFSNW_850_dewp_033.txt.gz
Dewpoint
0 1 1 1 4 5 6 6 5 5 5 4 3 5 2 -0 1 3 3 4 4 5 6 6 5 2 -0 -1 2 3 4 6 7 7 5 6 6 8 9 7 7 5 4 3
0 1 0 2 2 5 6 5 5 5 4 5 4 4 2 2 2 3 4 4 4 4 6 7 4 1 -2 1 2 3 4 6 8 9 8 7 8 8 8 9 7 7 4 3
-0 1 0 1 2 3 5 4 5 5 5 4 4 5 4 4 3 3 3 4 4 5 6 4 4 2 -1 1 2 3 4 7 8 10 9 8 9 8 7 8 9 8 3 4
-0 1 0 1 2 4 5 4 5 4 5 5 4 4 5 5 5 4 4 4 4 5 7 6 5 3 -1 1 3 5 5 8 7 7 7 7 8 8 8 7 7 7 1 3
-1 0 -0 1 3 5 5 4 4 4 4 3 5 5 5 5 4 4 4 4 4 5 6 3 3 2 1 2 4 6 5 7 7 8 8 7 7 7 5 4 6 6 5 4
-1 -0 -0 1 2 3 5 4 3 4 5 4 5 5 5 4 4 4 4 4 4 5 4 3 2 -3 -1 -1 0 4 6 7 8 7 7 7 7 6 5 4 4 5 7 3
-1 -0 -0 1 1 3 5 4 3 3 5 4 4 4 4 4 4 6 5 5 5 4 3 3 2 -1 -1 1 1 1 5 5 7 8 4 7 2 -0 4 5 4 3 3 2
-1 -0 -0 -0 1 3 3 5 4 4 5 4 4 4 4 4 5 5 5 5 4 4 3 2 5 5 3 6 4 2 2 5 7 8 6 4 1 0 1 4 4 2 3 3
-2 -0 -1 -1 1 3 4 5 5 4 4 5 4 3 4 5 5 6 4 5 4 4 5 4 5 8 6 7 6 4 3 3 6 8 7 7 2 -1 -2 -1 3 1 0 2
-1 -1 -1 -0 1 3 3 5 5 4 4 4 4 4 5 4 5 5 4 3 3 5 5 6 6 8 5 7 7 8 7 6 8 8 9 6 2 -1 -1 3 2 1 0 1
-2 -1 -1 0 1 4 4 5 5 5 4 4 4 3 4 4 4 6 5 5 4 6 7 7 7 6 6 7 6 7 7 8 8 7 8 8 0 -1 1 1 1 2 2 2
-2 -1 -1 0 1 4 5 5 5 5 4 5 5 4 3 3 4 5 5 5 4 5 7 6 5 7 6 6 8 5 7 5 6 7 6 2 0 1 1 1 1 2 2 2
-2 -1 -1 0 1 4 5 5 5 5 5 4 4 4 3 2 3 3 5 5 5 6 5 5 5 4 4 6 6 6 4 4 5 5 3 1 1 0 2 1 1 2 2 2
-1 -2 -1 0 2 5 5 5 5 4 4 5 5 5 5 3 3 1 5 6 6 6 6 6 6 6 3 5 3 4 2 3 3 3 1 1 1 0 2 2 1 1 1 1
-2 -3 -1 1 3 4 5 4 5 4 5 6 5 5 4 4 3 2 6 6 5 6 6 6 6 6 4 4 3 3 0 2 3 4 0 -0 -0 1 2 2 1 1 1 1
-3 -2 -1 2 3 4 5 4 5 4 5 5 5 5 5 4 3 3 5 5 5 5 6 6 6 4 4 6 6 2 0 -1 0 0 0 0 0 1 1 1 1 0 -1 -2
-3 -2 0 2 4 4 5 4 5 3 5 5 4 5 4 4 5 5 4 4 4 5 5 5 5 4 4 5 7 3 1 0 0 0 1 1 1 1 1 1 0 -1 -2 -2
-2 -1 1 3 4 4 5 5 4 5 5 5 3 4 4 4 5 4 5 5 5 5 5 4 5 4 4 5 4 1 1 1 1 1 0 1 1 1 1 -0 -1 -2 -2 -2
-0 -0 3 4 4 5 5 5 5 5 5 3 3 4 5 4 4 4 4 5 5 5 5 5 5 5 5 4 4 1 1 1 1 1 1 1 1 1 0 -1 -1 -2 -2 -3
-0 3 3 4 4 4 4 4 4 4 4 3 4 4 4 4 3 3 3 3 3 4 4 3 5 5 4 4 3 2 1 1 1 1 1 1 1 1 0 -0 -2 -3 -4 -4
3 4 3 4 4 4 3 3 4 3 3 3 3 3 4 3 4 3 2 2 2 5 3 5 4 5 3 2 2 2 1 1 1 1 1 1 1 1 -0 -1 -2 -3 -5 -7
2 3 3 3 3 2 2 3 2 2 3 3 3 3 2 2 1 2 1 2 1 3 1 3 4 2 -1 1 2 2 1 1 1 1 1 1 1 0 -1 -2 -3 -5 -8 -9
3 3 2 3 1 3 3 3 2 2 2 2 2 2 0 0 0 -1 -0 1 1 -1 2 3 1 -2 0 1 2 1 1 1 1 1 1 1 0 -0 -2 -4 -7 -9 -10 -9
1 0 2 2 2 2 1 -1 -1 -1 1 2 1 1 -0 1 -0 -1 -3 0 -1 -0 1 -0 -2 -2 0 1 1 1 1 1 1 1 1 0 -1 -3 -7 -8 -10 -10 -9 -8
0 0 3 2 -1 -1 -1 1 1 1 2 1 0 -0 -1 -3 -2 -2 -1 0 1 -0 -1 -1 -3 -1 0 -0 -0 0 0 0 0 -0 -1 -3 -6 -8 -8 -8 -8 -8 -8 -7
-1 -1 -1 -1 -1 -2 -1 0 1 2 1 -0 -1 -1 -2 -1 -3 -1 -4 -3 -2 -2 -2 -3 -2 -0 -0 -1 -1 -0 -1 -1 -2 -4 -7 -8 -9 -9 -8 -7 -7 -7 -7 -7
-1 -2 -2 -1 -1 -1 -1 1 1 2 1 -0 -1 -3 -3 -2 -3 -3 -4 -3 -3 -2 -2 -3 -2 0 -2 -2 -2 -2 -3 -5 -7 -8 -8 -8 -8 -8 -7 -8 -7 -8 -7 -7

GFSNW_850_dewp_036.txt.gz
Dewpoint
-2 -1 -0 0 1 2 4 5 3 4 5 4 3 4 2 0 3 3 3 2 3 5 5 6 6 5 1 -1 -0 3 1 4 6 4 1 2 6 6 7 8 9 7 5 4
-3 -1 -0 0 1 1 1 4 4 4 4 4 4 4 3 1 2 3 3 4 3 4 5 6 4 4 1 -0 -1 2 3 6 6 6 6 6 7 7 6 6 7 8 4 4
-3 -2 -0 0 1 1 3 3 4 4 4 4 4 4 4 3 2 2 2 4 4 4 5 5 5 4 0 -0 1 1 2 5 7 7 8 7 7 7 6 5 9 7 6 4
-2 -2 -1 0 1 2 4 5 4 3 4 4 4 3 4 4 4 3 2 4 4 4 6 6 5 3 2 2 2 3 3 6 5 6 5 6 7 8 9 9 8 7 4 3
-2 -2 -1 0 0 2 4 4 5 3 3 3 4 4 5 4 4 4 5 5 4 4 5 5 4 3 2 1 4 6 5 5 5 6 7 8 9 8 9 7 8 7 6 3
-2 -2 -1 0 0 1 4 4 4 3 4 3 4 4 4 4 4 4 4 4 4 4 4 3 2 2 2 0 4 5 6 6 7 9 8 8 7 7 7 4 4 7 7 4
-3 -2 -2 -0 -0 1 2 3 4 4 5 4 4 4 4 4 4 5 4 5 4 3 4 4 4 3 3 1 1 3 5 6 7 9 6 8 2 0 4 4 4 3 3 1
-4 -4 -1 -0 0 1 2 3 4 3 5 4 4 3 4 4 4 4 5 5 4 4 3 3 4 4 4 5 4 2 2 5 8 9 7 4 2 0 3 5 5 2 3 2
-4 -3 -1 -0 -0 1 3 4 5 3 5 5 3 4 3 5 5 4 5 5 5 4 4 3 4 7 4 6 6 4 3 3 6 8 7 8 2 -1 -2 -1 3 1 0 2
-3 -2 -1 -1 -1 1 2 3 5 4 3 4 3 4 4 4 4 5 4 4 4 4 6 4 4 7 5 7 7 7 6 5 6 6 9 7 3 -0 -1 3 2 1 1 1
-3 -2 -1 -1 -1 1 2 4 5 4 4 4 4 4 3 4 4 5 3 5 5 6 5 5 6 6 6 5 5 7 7 6 6 6 8 7 2 -1 1 -0 1 2 2 2
-4 -2 -1 -2 -2 2 2 5 4 4 3 4 5 5 4 5 4 4 5 5 4 5 5 5 6 7 5 4 6 4 7 5 6 5 5 1 -0 -0 1 1 1 2 2 2
-5 -2 -1 -2 -1 2 3 4 4 4 5 4 4 3 4 4 4 4 5 5 5 6 5 6 6 6 4 7 5 5 4 3 5 5 3 3 1 1 2 1 1 1 2 2
-3 -1 -2 -2 0 2 4 5 3 4 4 5 4 4 5 4 4 3 3 5 6 6 5 6 6 6 3 5 3 5 4 4 4 4 1 1 1 0 1 1 2 2 2 2
-2 -2 -3 -2 1 3 4 4 5 4 4 5 5 5 5 4 4 3 3 6 6 6 6 6 6 6 4 4 3 3 1 4 5 5 1 1 0 1 2 1 2 2 1 2
-3 -3 -3 -2 1 3 4 4 4 5 4 4 5 5 5 4 3 3 4 5 6 5 6 6 6 4 4 6 6 4 1 0 2 2 1 0 0 1 2 1 1 1 1 1
-3 -3 -3 -1 1 3 4 4 4 4 4 5 4 4 4 4 4 4 4 4 5 6 6 6 5 4 4 5 6 3 2 0 0 1 1 1 1 1 1 1 1 1 0 -0
-2 -2 -1 0 3 4 4 5 4 4 5 5 3 4 4 4 5 4 5 5 5 5 5 4 5 3 4 5 3 2 1 1 1 1 0 0 1 1 1 1 -0 -1 -2 -2
-1 -0 -0 2 3 4 5 5 5 4 5 4 3 4 5 4 4 4 4 5 5 4 5 5 4 4 5 4 3 1 1 1 1 1 1 1 1 1 1 -0 -1 -2 -3 -3
0 1 3 3 4 5 4 5 4 5 4 4 4 4 5 4 3 3 3 3 4 4 4 3 5 5 4 4 4 3 1 1 1 1 1 1 1 1 0 -1 -2 -4 -5 -4
2 3 3 4 4 4 4 4 3 3 3 3 4 3 4 3 3 3 2 2 2 4 2 5 4 4 2 2 3 3 1 1 1 1 0 1 1 0 -1 -2 -3 -4 -4 -5
2 3 3 3 4 3 3 3 2 3 3 3 3 3 3 3 2 3 2 3 2 4 1 3 4 2 -0 1 2 2 1 1 1 1 1 1 1 -0 -1 -2 -3 -4 -5 -6
3 3 3 3 2 3 4 3 2 2 1 2 2 2 1 1 0 -1 -1 0 2 -1 2 2 1 -1 -0 1 2 2 1 1 1 1 1 1 1 0 -1 -2 -4 -6 -7 -7
1 -0 2 2 2 2 1 0 -1 -1 2 2 1 1 1 0 0 -1 -1 -0 -1 -0 -0 0 -2 -2 0 1 1 1 1 1 1 1 1 1 0 -1 -2 -4 -7 -8 -9 -8
-0 -0 3 2 -1 -1 -1 -0 1 1 2 1 0 -0 -1 -3 -2 -2 -1 1 1 -0 -1 -2 -3 -1 0 0 1 1 1 1 1 1 1 -0 -1 -3 -6 -8 -9 -9 -9 -8
-1 -1 -0 -1 -1 -1 -1 0 1 2 1 -0 -1 -2 -4 -3 -3 -2 -3 -2 -1 -2 -3 -3 -1 -0 -0 -0 0 0 0 0 0 0 -1 -2 -5 -8 -8 -8 -8 -8 -8 -7
-2 -2 -2 -2 -1 -1 -1 1 1 2 0 -1 -3 -3 -3 -4 -3 -3 -5 -3 -4 -4 -2 -2 -2 -0 -0 -1 -1 -1 -0 -0 -1 -2 -4 -7 -8 -8 -7 -7 -6 -6 -6 -7

GFSNW_850_dewp_039.txt.gz
Dewpoint
-2 -2 -1 -0 0 1 1 3 2 4 4 3 3 4 3 -0 4 3 2 2 3 3 3 5 6 4 3 0 2 4 2 3 3 2 -0 2 2 5 6 6 7 7 7 5
-2 -2 -1 -1 1 0 1 3 3 4 3 3 3 4 2 1 3 3 2 2 2 2 5 6 4 4 2 1 2 2 1 5 5 4 5 2 5 4 4 6 6 7 8 6
-2 -2 -1 -1 0 0 2 1 2 4 3 3 2 3 3 3 1 2 2 3 3 4 5 5 5 5 2 1 -0 1 1 4 5 4 4 5 6 6 6 6 7 6 8 6
-2 -2 -1 -1 -0 1 2 2 3 2 3 4 2 2 3 3 4 2 2 4 4 4 5 5 5 5 3 1 1 2 3 6 5 5 5 6 6 5 6 6 6 8 7 5
-3 -3 -1 -0 -0 1 2 4 4 3 3 3 3 3 4 4 3 4 4 4 4 4 5 5 5 3 3 2 3 4 3 5 6 6 5 6 7 7 5 5 6 6 6 4
-3 -3 -1 -0 -0 0 0 1 4 2 3 3 5 4 4 4 3 4 3 3 4 5 4 3 2 2 3 3 3 5 5 6 7 7 6 7 9 7 8 7 8 7 6 5
-3 -3 -2 -1 0 0 1 2 3 4 5 3 3 3 3 3 4 5 4 5 5 3 4 3 3 3 3 3 3 2 5 5 5 7 7 9 3 2 6 7 6 4 5 2
-5 -3 -2 -1 -0 0 1 2 3 4 5 3 3 3 4 4 3 5 5 4 4 4 4 4 4 5 4 4 2 2 3 4 7 8 8 5 2 1 3 5 5 3 4 1
-4 -3 -2 -1 -1 0 1 3 4 4 3 4 3 4 4 5 5 5 4 3 4 5 5 4 5 6 4 6 6 3 3 3 6 6 8 8 2 0 -2 -1 4 1 1 2
-4 -4 -5 -2 -1 0 1 2 4 4 3 4 3 4 4 4 5 4 4 4 5 4 5 4 4 6 4 6 5 7 5 5 6 7 8 6 3 2 -1 3 2 1 1 1
-4 -8 -5 -1 -1 -0 1 2 3 5 3 4 3 4 4 4 4 5 3 5 5 5 6 4 4 5 5 5 4 6 5 5 5 5 7 6 0 -0 1 -0 0 2 2 2
-4 -13 -3 -1 -2 -1 1 3 4 5 4 4 4 4 4 4 4 4 4 5 4 4 5 3 4 5 4 4 6 4 6 4 5 4 4 1 1 0 1 1 1 2 2 2
-5 -5 -2 -1 -3 -1 1 2 4 5 4 4 4 4 4 4 4 4 4 5 5 6 5 4 5 7 3 5 4 5 4 3 4 4 2 3 2 1 1 1 1 2 2 2
-4 -2 -2 -3 -3 -0 1 2 4 4 4 4 4 4 5 5 4 4 4 5 4 6 5 5 6 6 3 4 3 4 3 3 4 4 2 1 1 1 1 1 1 2 2 2
-3 -3 -3 -3 -2 1 2 4 4 4 4 5 5 5 5 5 4 4 4 4 5 6 6 6 7 6 4 3 3 3 2 4 4 5 2 1 0 1 1 1 1 2 2 2
-2 -3 -3 -3 -2 1 3 4 4 5 4 4 5 5 5 4 4 4 3 4 5 5 6 6 6 5 4 5 5 4 2 2 3 3 1 1 0 1 1 1 1 2 2 2
-3 -4 -3 -2 -0 1 3 4 4 4 4 5 4 4 4 4 3 3 5 5 5 5 6 6 5 4 4 4 5 3 2 2 0 1 1 1 1 1 2 1 1 1 2 2
-3 -2 -2 -1 1 3 4 5 5 4 4 5 3 4 4 4 5 5 5 5 5 5 5 4 5 4 4 5 3 3 1 1 1 1 1 1 1 2 1 1 1 1 1 1
-1 -1 -1 0 2 3 5 5 4 4 5 4 3 4 4 4 4 4 4 5 5 4 5 5 4 4 5 3 2 2 1 1 1 1 1 1 1 1 1 1 1 -1 -1 -1
-0 0 1 3 3 4 4 4 4 4 4 4 4 4 5 4 4 3 3 3 4 4 4 3 4 5 3 4 4 3 1 1 1 1 1 1 1 1 1 -0 -1 -3 -3 -3
1 2 3 4 4 4 4 3 4 3 3 3 3 4 4 3 3 3 2 3 2 4 2 4 3 4 2 2 3 3 2 1 1 1 1 1 1 1 0 -1 -2 -4 -4 -4
2 2 3 3 4 3 3 3 2 3 3 3 4 3 3 3 3 3 2 2 2 3 1 3 3 1 -0 1 2 2 2 1 1 1 1 1 1 0 -1 -2 -3 -4 -5 -5
2 2 3 3 2 3 4 3 3 3 0 3 2 2 2 2 2 0 -0 1 4 -1 2 2 1 -2 -0 1 2 2 1 1 1 1 1 1 1 -0 -1 -3 -3 -4 -5 -5
1 -0 2 2 3 3 2 1 -1 -0 1 2 1 1 1 1 1 0 -0 0 -1 1 -1 -1 -3 -2 -0 1 1 1 1 1 1 1 1 1 0 -1 -2 -3 -4 -5 -6 -6
-0 -0 2 2 -1 -1 -0 -0 -0 1 2 1 0 -0 -1 -1 -0 -2 -0 1 1 0 -0 -3 -3 -1 -0 1 1 1 1 1 1 1 1 0 -1 -2 -3 -4 -6 -7 -8 -8
-1 -1 -2 -1 -1 -1 -1 0 1 1 2 0 -1 -1 -0 -0 -3 -2 -2 -1 -0 -1 -3 -3 -2 -0 -0 0 1 1 1 1 1 0 0 -0 -2 -3 -5 -7 -8 -9 -9 -9
-2 -3 -2 -2 -1 -1 -1 0 1 1 0 1 -4 -3 -2 -4 -2 -3 -4 -3 -3 -5 -2 -2 -1 -1 -1 -0 -0 0 0 0 0 -0 -1 -2 -3 -6 -8 -8 -8 -8 -8 -8

GFSNW_850_dewp_042.txt.gz
Dewpoint
-4 -2 -2 -2 -0 1 0 2 3 4 3 3 1 3 2 1 3 2 2 1 2 2 3 4 4 4 2 1 2 4 2 5 4 2 0 1 2 3 3 5 4 5 5 4
-5 -2 -1 -2 -1 0 0 2 3 4 2 2 3 3 2 2 4 3 1 2 2 2 3 5 3 3 2 1 2 3 2 5 3 1 4 1 4 3 3 5 5 6 6 3
-4 -3 -2 -1 -0 -0 0 2 4 2 3 2 2 4 3 3 2 3 1 2 2 3 3 3 4 3 3 1 1 1 1 4 3 2 2 4 6 5 4 5 6 7 6 4
-4 -3 -3 -2 -0 -0 1 2 3 2 2 3 3 2 2 4 3 2 2 4 3 4 5 4 4 3 3 2 1 2 3 5 4 4 4 4 6 6 6 6 6 6 4 6
-3 -3 -3 -2 -0 0 1 3 3 3 2 3 3 3 3 2 3 3 3 3 3 3 3 3 4 4 4 3 2 2 2 4 4 5 4 6 6 6 6 6 6 5 6 6
-4 -4 -3 -3 -0 0 0 0 2 3 3 3 4 4 3 3 2 2 3 3 3 4 3 3 3 4 3 3 4 4 4 5 5 6 5 6 8 7 8 6 5 5 6 5
-5 -5 -3 -2 -1 0 0 0 2 4 4 4 3 3 4 4 4 3 4 3 4 4 4 4 4 4 3 3 3 3 5 5 6 7 7 9 7 6 8 8 7 4 5 2
-5 -5 -3 -2 -1 0 0 1 2 4 4 3 3 3 3 3 3 4 4 4 4 4 4 4 5 5 5 3 2 2 3 4 7 7 9 7 2 2 7 8 7 2 4 2
-4 -5 -5 -6 -1 -0 0 2 3 4 4 3 3 3 3 5 5 5 5 4 4 4 5 5 5 5 4 6 6 2 3 3 6 7 8 7 3 1 -0 -1 6 2 1 2
-4 -5 -7 -7 -1 -1 0 2 3 4 4 3 3 4 4 4 4 4 4 3 5 4 5 4 4 6 2 6 6 7 5 6 7 6 8 5 2 2 1 3 2 0 1 1
-5 -5 -9 -4 -1 -2 0 2 3 4 4 4 3 3 4 4 4 5 3 3 5 5 6 4 3 4 5 4 3 5 5 6 5 5 6 5 -0 -0 1 -0 0 1 2 2
-5 -5 -5 -2 -2 -2 -0 1 3 4 4 4 3 3 3 4 4 4 4 3 4 4 4 2 3 4 4 3 6 3 5 3 4 4 4 0 2 0 1 1 1 2 2 2
-9 -6 -2 -3 -3 -3 -1 1 4 4 4 3 3 3 4 4 5 4 4 4 5 6 5 3 4 5 3 5 4 4 3 2 4 4 2 2 2 2 1 1 1 2 2 2
-9 -2 -3 -3 -3 -3 -1 1 3 4 4 3 3 4 4 5 5 5 5 4 4 5 6 4 4 5 3 4 3 3 3 3 4 3 3 2 2 1 1 1 2 2 1 1
-4 -3 -2 -3 -3 -3 0 2 4 4 5 5 5 5 5 5 5 4 4 4 4 6 6 5 5 5 4 3 2 3 3 3 5 4 2 1 1 1 1 1 2 1 1 1
-3 -3 -3 -3 -3 -2 2 4 4 3 4 4 4 5 5 4 4 4 4 4 5 5 6 5 5 5 5 6 4 3 2 3 2 3 2 1 1 1 2 1 2 1 1 1
-3 -3 -4 -2 -1 -0 1 3 4 3 4 5 4 3 4 4 4 4 4 4 5 5 6 6 5 4 4 4 4 2 2 2 2 2 1 1 1 1 2 1 2 2 1 1
-2 -3 -2 -1 -1 1 3 4 4 4 4 5 3 4 4 4 5 5 5 5 5 5 5 5 5 4 4 5 3 3 2 1 1 1 1 1 1 1 2 1 1 2 1 1
-1 -1 -1 -0 1 2 4 4 4 4 4 4 3 4 4 4 4 4 4 5 5 4 5 5 4 5 5 3 2 2 2 1 1 1 1 1 1 2 1 1 1 1 1 1
-1 -1 1 2 3 4 4 4 5 4 4 4 4 3 4 4 4 3 3 3 4 4 4 3 4 5 3 3 3 3 2 1 1 1 1 1 1 1 1 1 1 0 -0 -1
1 2 2 3 4 4 4 4 4 3 3 3 3 3 4 3 4 4 2 3 2 4 2 4 3 3 1 2 3 3 2 1 1 1 1 1 1 1 1 0 -0 -1 -2 -3
1 1 2 3 4 3 3 3 2 3 3 3 4 3 3 3 3 2 2 3 2 3 -0 3 4 1 -0 1 2 3 2 1 1 1 1 1 1 1 0 -1 -2 -3 -4 -4
1 1 2 3 2 3 4 3 3 3 -0 3 3 2 3 3 2 1 1 3 4 -1 2 3 1 -1 -1 1 1 2 1 1 1 1 1 1 1 0 -1 -2 -3 -4 -4 -4
1 -0 2 2 2 3 2 -0 -1 -1 1 3 2 1 1 1 1 1 2 0 -1 2 1 -1 -3 -3 -1 1 1 1 1 1 1 1 1 1 0 -1 -2 -3 -4 -5 -5 -4
0 -0 2 2 -0 -1 -0 -0 -0 0 1 2 0 -0 -0 -0 0 -2 -0 1 2 1 -1 -3 -4 -2 -0 0 1 1 1 1 1 1 1 0 -1 -2 -2 -3 -4 -5 -6 -6
-0 -1 -2 -1 -1 -1 -1 -0 0 1 2 1 -1 -1 0 0 -0 -2 -1 -2 -0 -1 -3 -3 -2 -1 -0 0 1 1 1 1 1 0 0 -1 -2 -2 -4 -4 -5 -6 -8 -8
-2 -4 -3 -2 -2 -1 -1 -0 0 1 1 1 -1 0 1 -4 -2 -2 -5 -2 -2 -5 -3 -3 -1 -1 -1 0 1 1 1 0 0 0 -0 -1 -3 -4 -5 -5 -7 -8 -8 -8

GFSNW_850_dewp_045.txt.gz
Dewpoint
-2 -3 -4 -2 -1 -0 1 0 3 1 2 3 2 3 2 2 3 1 1 1 1 2 2 2 3 3 2 1 2 4 2 5 5 3 1 0 1 2 2 4 3 5 4 3
-3 -4 -4 -2 -2 -0 1 0 1 3 2 2 3 3 3 3 3 2 0 2 2 2 3 4 3 3 1 1 2 3 2 5 4 0 3 2 3 3 2 2 4 5 5 2
-2 -4 -4 -4 -2 -0 0 -0 2 2 2 2 3 4 4 4 2 2 1 2 2 2 4 3 3 3 2 1 1 2 1 3 1 1 0 3 5 4 3 4 6 4 4 2
-3 -4 -4 -6 -3 0 1 1 2 2 2 3 3 3 3 3 3 2 1 3 2 3 4 4 4 3 2 2 2 2 3 5 3 3 3 3 4 5 5 5 5 6 2 2
-4 -4 -4 -5 -3 -0 0 0 2 2 2 2 2 4 4 3 3 2 3 2 3 2 3 2 3 2 3 2 2 3 2 4 4 4 2 3 6 5 6 6 6 5 5 6
-4 -5 -4 -3 -3 -0 -0 -0 0 2 3 4 4 4 3 2 2 2 2 2 3 3 2 0 1 4 3 3 3 2 4 4 4 5 5 6 7 7 7 7 5 5 7 4
-4 -5 -4 -4 -3 -1 1 -0 0 2 4 3 4 3 3 3 2 4 3 2 3 4 3 3 4 4 4 3 3 3 5 4 5 7 6 9 7 6 7 8 8 4 4 3
-3 -5 -4 -5 -6 -1 -0 -0 1 2 4 3 3 2 3 3 3 4 3 4 3 4 3 4 4 4 4 4 4 3 3 4 7 8 8 6 4 6 7 8 7 3 4 2
-3 -5 -4 -7 -10 -1 -0 0 1 2 3 4 3 3 2 4 3 4 3 4 4 5 4 4 4 4 3 5 4 2 3 3 6 7 7 7 4 1 1 5 8 4 2 2
-3 -5 -4 -14 -6 -1 -1 1 2 2 4 3 3 3 3 3 4 4 4 4 4 4 4 5 5 5 2 5 5 5 5 6 6 7 8 5 1 1 1 4 3 -0 0 1
-5 -4 -10 -9 -4 -2 -1 0 2 2 4 4 3 3 4 4 4 5 4 4 3 4 4 5 3 4 4 4 3 4 5 6 6 6 7 5 -1 1 1 0 1 1 1 1
-9 -13 -6 -3 -4 -3 -3 0 2 3 4 4 4 3 3 3 3 3 4 3 4 3 5 3 3 4 4 4 5 3 5 3 3 3 3 -0 0 1 1 1 1 2 2 2
-11 -11 -4 -3 -3 -3 -3 -1 1 3 4 3 3 2 4 3 4 4 4 4 4 5 4 2 3 4 3 4 4 4 3 2 4 4 2 2 2 1 2 1 2 2 2 2
-3 -4 -3 -2 -2 -3 -3 -1 1 2 4 3 3 4 4 4 4 5 5 4 4 4 5 4 4 4 2 3 2 3 2 3 3 3 2 2 1 1 2 1 2 1 1 1
-3 -3 -3 -4 -4 -3 -3 -1 2 3 3 5 5 5 5 4 5 4 4 4 5 4 6 5 4 3 3 3 2 3 2 3 4 3 2 2 1 1 1 1 1 1 1 0
-4 -4 -3 -3 -4 -2 0 3 3 4 4 4 4 4 5 4 4 4 4 4 4 5 5 5 5 5 4 6 6 2 2 3 2 2 2 1 1 1 2 1 1 1 0 -0
-3 -3 -3 -3 -3 -1 0 2 3 4 4 4 4 3 4 4 4 4 4 4 5 5 6 6 5 5 4 5 5 2 3 2 2 2 2 1 1 1 2 1 1 1 1 0
-1 -3 -3 -1 -1 -1 0 3 4 4 4 4 3 4 3 4 5 5 5 5 5 5 5 5 5 4 4 5 3 3 2 2 1 1 1 1 1 2 2 1 1 1 1 0
-2 -2 -1 -1 0 2 3 4 4 4 4 4 3 4 4 4 4 4 5 5 5 4 5 5 4 5 5 4 2 2 2 2 1 1 1 1 1 2 1 1 1 1 -0 0
-1 -1 1 2 2 4 4 4 4 4 4 4 3 3 4 3 4 3 3 3 4 4 4 3 4 5 3 3 3 3 2 2 1 1 1 1 1 1 1 1 1 1 1 0
1 1 2 3 3 4 4 4 3 3 3 3 2 3 4 3 4 4 2 2 2 4 2 4 4 3 1 1 2 3 3 1 1 1 1 1 1 1 1 1 1 1 0 -0
1 1 2 3 4 2 2 3 2 3 3 3 4 3 3 3 3 1 1 3 2 3 -1 3 3 1 -0 1 2 3 3 1 1 1 1 1 1 1 1 1 0 -1 -1 -2
1 1 2 3 2 3 4 4 3 3 1 3 3 2 3 3 2 1 1 3 3 -1 2 3 1 -1 -1 0 1 2 2 1 1 1 1 1 1 1 1 -0 -1 -2 -3 -4
1 0 2 2 3 2 2 -0 -2 -0 -0 1 2 1 1 1 2 1 3 1 -0 2 2 -1 -2 -4 -1 0 1 2 1 1 1 1 1 1 1 0 -1 -2 -3 -3 -4 -5
0 -0 1 2 -1 -1 -0 -0 -0 0 0 2 0 0 -0 0 1 -1 0 1 2 1 -0 -3 -4 -3 -0 0 1 1 1 1 1 1 1 1 0 -1 -2 -3 -4 -5 -5 -5
-1 -1 -2 -2 -1 -1 -1 -1 -0 -0 1 2 -0 -0 1 1 -2 -1 0 -1 -0 -1 -3 -3 -3 -1 -1 0 1 1 1 1 1 0 0 0 -1 -2 -3 -4 -4 -5 -4 -6
-2 -3 -3 -3 -2 -2 -1 -1 0 1 1 1 -0 0 -1 -4 -2 -2 -4 -1 -1 -5 -4 -3 -2 -1 -1 -0 1 1 1 0 0 0 -0 -1 -2 -3 -4 -5 -5 -5 -6 -7

GFSNW_850_dewp_048.txt.gz
Dewpoint
-4 -5 -4 -2 -2 -1 -0 0 1 2 1 2 2 3 2 3 2 2 1 0 1 2 1 2 2 2 1 0 1 3 1 4 4 3 -1 -1 -0 1 1 4 3 3 3 3
-5 -4 -3 -2 -2 -1 -0 0 -0 2 2 3 4 3 3 3 2 1 1 2 1 0 2 3 2 2 1 1 1 2 2 5 4 2 2 1 2 0 -0 1 2 5 5 2
-5 -4 -5 -5 -2 -1 0 0 2 2 2 2 2 3 4 4 2 1 1 2 1 2 2 2 2 2 2 1 1 1 0 3 3 3 2 3 4 2 1 3 6 4 4 2
-5 -3 -6 -5 -3 -0 0 0 1 2 3 3 1 2 3 3 4 2 1 1 1 2 4 3 3 1 3 2 2 2 3 6 3 2 1 1 3 4 3 5 5 6 3 2
-4 -4 -6 -6 -5 -2 -0 -0 0 1 2 2 2 3 3 2 2 2 2 2 1 1 2 1 2 1 1 2 2 4 3 4 3 4 1 2 5 3 4 6 6 6 5 6
-4 -3 -6 -5 -8 -3 -0 -0 -0 0 2 2 4 4 2 2 2 2 2 1 2 2 1 -0 1 2 3 2 2 4 5 4 3 4 2 4 7 7 7 7 6 6 8 6
-5 -3 -5 -4 -14 -2 0 -0 -0 0 3 3 3 2 2 2 2 3 2 1 1 3 3 3 3 3 3 3 3 3 5 3 3 4 5 8 7 4 6 7 6 6 5 4
-6 -3 -5 -4 -14 -1 -1 -0 0 1 4 2 2 2 2 2 2 2 2 3 3 4 3 4 5 4 5 4 3 4 3 5 6 6 6 4 5 5 6 5 7 5 4 3
-3 -5 -4 -6 -6 -1 -1 0 0 1 3 3 2 2 2 3 3 3 3 4 4 4 4 4 5 5 2 4 4 3 3 3 5 6 6 5 3 1 1 6 9 4 2 2
-5 -3 -6 -11 -4 -3 -2 0 1 1 3 3 3 2 2 3 3 4 4 4 5 5 4 6 5 3 1 5 3 5 5 6 5 5 7 4 1 0 1 5 5 2 2 1
-8 -11 -15 -5 -3 -4 -3 -1 1 1 2 4 3 3 3 3 3 4 4 4 4 5 5 6 5 3 2 3 3 2 3 4 5 5 6 6 -0 1 2 1 1 1 1 2
-4 -7 -16 -3 -3 -3 -2 -1 0 2 3 4 4 3 3 3 3 3 3 4 3 4 4 4 3 4 4 2 4 2 4 1 3 3 3 -0 -0 1 1 2 2 2 2 2
-3 -2 -3 -4 -3 -2 -2 -2 1 3 4 3 3 3 3 3 4 4 4 3 3 4 3 4 4 5 3 4 4 4 3 1 3 4 1 1 1 2 1 1 2 2 1 2
-3 -3 -3 -5 -3 -4 -3 -3 -1 1 2 4 3 3 4 4 4 4 4 4 4 4 4 5 6 5 3 4 3 3 2 2 3 3 2 1 1 1 2 2 1 1 1 1
-3 -3 -4 -2 -5 -6 -5 -3 0 2 2 4 4 4 4 4 4 5 5 5 4 4 5 6 6 4 4 3 3 4 2 3 4 2 1 2 2 1 2 1 1 0 0 0
-3 -4 -4 -4 -4 -5 -0 3 2 3 3 4 5 4 5 4 4 4 4 4 4 4 5 5 5 5 4 5 4 2 2 2 2 1 2 2 1 1 2 1 1 0 0 0
-2 -3 -4 -3 -3 -2 0 2 3 3 4 4 4 4 4 4 4 4 3 4 4 5 5 5 5 5 5 5 6 2 2 2 2 2 2 2 2 2 2 1 1 -0 -1 0
-1 -3 -3 -2 -1 -1 -1 2 3 3 4 4 3 4 3 4 4 5 4 5 5 5 5 5 5 4 4 6 4 3 3 2 2 2 2 2 1 1 1 1 1 -0 -1 0
-2 -3 -2 -1 -1 -0 1 3 4 3 4 4 3 5 5 4 4 4 4 4 5 4 5 5 5 5 6 4 3 3 2 2 2 2 1 1 1 1 1 1 1 1 -2 -0
-1 -1 0 1 2 1 4 4 4 3 4 4 4 3 4 3 4 4 4 3 4 4 4 3 4 5 4 3 3 3 3 2 2 1 1 1 1 1 2 1 0 1 0 1
1 1 2 2 3 3 4 3 3 3 4 3 2 3 4 3 4 4 2 3 3 5 3 4 5 4 2 1 2 3 3 2 1 1 1 1 1 1 1 0 0 0 0 0
1 1 2 3 3 2 3 3 2 3 4 3 4 4 3 3 3 3 2 3 3 5 -0 3 4 2 -0 -0 1 2 3 1 1 1 1 1 1 1 1 1 1 0 0 -0
1 2 2 3 2 3 3 3 4 4 1 2 3 3 3 3 2 1 2 3 4 -0 3 3 2 -0 -2 -0 1 2 2 1 1 1 1 1 1 1 1 1 0 0 -0 -1
1 1 2 2 3 3 2 1 1 -0 -0 1 2 2 2 2 2 1 4 1 0 3 3 3 -1 -4 -3 -0 1 2 1 1 1 1 1 1 1 1 1 1 0 -1 -2 -3
-0 -0 2 2 -0 -0 -0 -0 -0 0 0 1 1 1 0 2 2 -0 1 2 3 2 2 -0 -4 -3 -1 -0 1 1 1 1 1 1 1 1 1 0 -0 -1 -2 -3 -4 -4
-1 -1 -1 -2 -0 -0 -1 -1 -0 0 1 1 1 1 2 2 1 1 2 2 2 1 -0 -3 -3 -2 -1 -0 1 1 1 1 1 0 0 0 0 -0 -1 -2 -3 -4 -5 -5
-2 -2 -2 -2 -2 -1 -1 -2 -1 0 1 1 0 2 3 -2 0 1 -1 1 0 -3 -4 -3 -3 -1 -1 -1 0 1 1 1 0 0 0 -0 -1 -2 -3 -3 -4 -5 -5 -6

GFSNW_850_dewp_051.txt.gz
Dewpoint
-4 -4 -2 -2 -2 -2 0 -0 2 2 -0 2 1 1 3 3 3 2 1 -0 0 1 0 2 2 2 1 -1 -1 2 -0 1 5 3 -1 -1 1 2 1 4 3 2 3 2
-4 -3 -2 -3 -2 -1 0 0 -0 1 1 3 1 1 3 4 4 3 1 1 0 -1 1 3 1 1 -0 -0 0 1 1 3 4 3 1 -1 1 0 1 1 2 5 6 2
-4 -3 -3 -3 -3 -3 0 -0 2 1 2 2 -1 1 4 5 3 1 1 1 -0 0 1 0 2 2 1 1 0 1 0 2 3 4 3 3 4 1 -0 2 6 4 3 2
-5 -2 -2 -4 -9 -3 0 -0 1 2 3 2 1 -1 4 4 4 1 1 1 1 1 3 2 2 1 2 1 2 1 2 4 2 1 1 0 2 3 2 4 3 5 2 1
-5 -6 -4 -4 -11 -3 -0 -0 0 0 3 -1 0 2 2 5 2 1 1 1 0 -0 1 0 2 1 1 2 2 2 2 4 2 3 1 1 3 2 2 3 3 4 5 5
-5 -8 -5 -3 -11 -2 -0 0 -0 0 2 1 2 2 1 4 1 2 1 0 1 1 0 -1 -1 -0 -0 0 2 4 5 5 4 4 1 2 6 4 5 6 6 6 7 5
-6 -7 -5 -4 -11 -3 -0 -0 -0 0 3 2 2 1 0 1 2 2 1 1 1 3 2 2 2 2 2 2 2 1 5 4 3 4 2 8 7 3 6 7 6 6 6 5
-5 -7 -6 -4 -11 -3 -1 -1 -0 0 3 1 1 1 1 1 1 2 2 1 3 3 3 5 4 4 4 4 3 3 2 5 5 5 5 2 4 5 6 6 7 6 5 3
-3 -5 -6 -11 -4 -4 -2 -1 0 1 2 2 1 0 1 2 2 2 2 4 4 4 4 5 5 4 2 3 3 3 4 3 6 5 6 6 2 2 2 5 9 5 5 3
-4 -17 -14 -13 -3 -3 -3 -1 -0 0 1 3 2 2 2 2 2 3 3 4 5 4 5 5 4 3 -0 3 3 5 6 6 6 3 6 2 -1 0 1 7 5 4 5 3
-3 -5 -10 -14 -3 -2 -2 -1 0 -0 1 4 3 3 2 3 2 4 4 4 4 5 5 6 5 3 2 1 0 3 4 3 4 3 4 5 -1 1 3 2 1 2 2 3
-4 -5 -3 -4 -5 -2 -2 -0 -0 0 1 4 4 3 3 3 4 4 4 4 3 4 5 4 4 3 2 0 5 -1 2 -1 1 2 2 -2 -0 -0 0 1 2 2 2 2
-4 -4 -3 -2 -5 -3 -2 -1 -1 1 2 4 4 4 3 3 3 3 4 4 3 4 3 4 4 5 2 3 1 2 0 -1 1 3 -0 0 0 1 2 2 2 2 1 2
-3 -4 -4 -4 -3 -8 -4 -1 -1 0 2 3 3 3 4 3 4 4 4 4 4 4 4 4 5 5 2 3 2 2 1 2 2 1 -0 -0 0 1 2 2 2 1 1 1
-3 -4 -4 -3 -4 -8 -6 -6 -3 -1 1 3 4 3 3 5 4 4 5 5 4 4 4 5 5 4 4 3 3 3 2 2 3 1 1 2 2 2 2 2 1 0 -0 0
-3 -3 -4 -4 -4 -5 -1 1 2 2 3 3 5 4 4 5 4 4 4 3 4 4 3 5 3 5 4 5 4 -0 -0 1 -0 -0 2 2 2 2 2 1 0 -1 -0 -1
-2 -1 -3 -4 -4 -3 -1 2 2 3 3 3 4 4 3 4 4 4 3 3 4 4 4 4 5 5 5 5 4 -0 2 2 2 2 2 2 2 2 2 1 -0 -1 -1 -1
-2 -4 -2 -3 -3 -2 -0 2 2 3 3 4 3 4 3 4 4 4 3 4 4 5 5 5 6 5 4 6 3 2 2 3 2 2 2 2 2 1 1 0 -0 -1 -1 -2
-2 -3 -2 -2 -1 -0 0 3 4 3 4 4 4 5 6 4 4 4 4 4 5 4 5 5 5 5 6 4 3 2 2 2 2 2 2 2 2 1 1 0 0 1 -0 -2
-1 -1 0 0 0 3 3 4 3 4 3 4 4 3 3 3 4 4 4 3 4 4 4 3 4 5 3 3 3 3 3 3 2 2 2 2 2 1 1 1 0 -1 -0 -1
1 1 1 2 3 3 3 3 4 3 4 4 3 3 3 3 4 4 3 4 3 5 4 4 5 4 2 0 1 2 2 3 2 2 1 1 1 1 1 1 -0 -0 -0 0
1 1 2 3 3 3 3 3 3 3 4 3 3 4 4 3 3 3 3 4 3 5 1 3 4 2 -0 -1 0 1 2 3 2 1 1 1 1 1 2 1 0 0 0 1
1 2 2 2 2 3 4 4 4 4 2 2 2 3 3 3 2 2 3 4 4 0 3 3 2 0 -3 -1 0 1 2 2 1 1 1 1 1 1 1 0 0 0 0 -0
1 1 3 3 3 3 2 2 2 0 1 1 1 2 2 2 3 2 4 2 1 3 4 4 -1 -3 -3 -1 0 1 2 1 1 1 1 1 1 1 0 0 0 -0 -1 -1
-0 -0 2 1 1 0 0 0 0 0 0 1 1 1 1 3 3 1 2 3 4 3 4 2 -2 -3 -2 -1 0 1 1 1 1 1 1 1 1 1 0 -0 -1 -1 -1 -2
-1 -1 0 -1 0 0 -0 -0 0 0 1 1 1 2 3 4 3 3 3 4 4 3 0 -2 -3 -3 -1 -1 -0 1 1 1 1 0 0 1 0 -0 -1 -1 -1 -2 -2 -3
-2 -1 -2 -1 -1 0 -0 -1 -0 -0 0 2 1 3 4 -0 2 2 1 3 0 -2 -3 -3 -3 -2 -2 -2 -1 0 1 0 0 0 -0 -0 -0 -1 -1 -1 -2 -3 -4 -4

GFSNW_850_dewp_054.txt.gz
Dewpoint
-3 -4 -3 -2 -2 -2 0 0 1 1 1 2 1 2 2 3 2 3 1 -0 0 0 2 2 1 1 1 -2 -1 1 0 0 5 4 -0 0 1 2 2 4 2 3 2 3
-3 -5 -3 -2 -2 -2 0 0 0 1 2 2 2 2 3 3 4 3 1 1 -0 -1 1 3 2 1 -1 -1 -1 1 0 3 4 3 2 0 2 2 1 1 3 3 4 2
-5 -4 -4 -4 -8 -2 0 0 1 1 1 1 2 1 3 4 4 2 1 0 -0 1 3 2 3 2 1 -0 1 -0 -1 1 3 6 4 3 3 1 2 3 4 3 3 1
-4 -4 -4 -4 -11 -1 0 0 1 1 2 1 1 1 3 5 5 2 1 1 0 1 3 1 2 2 2 1 1 0 1 4 2 2 1 1 3 3 2 3 2 4 1 1
-2 -5 -5 -4 -11 -1 0 0 0 0 1 2 1 1 3 5 3 4 1 2 1 1 2 0 2 1 1 2 2 2 1 3 2 3 1 2 3 2 2 1 2 2 1 2
-5 -5 -6 -4 -12 -2 0 0 0 0 2 0 2 2 2 3 3 3 2 1 1 2 1 1 1 0 -1 -0 2 3 4 4 4 4 2 2 4 3 2 1 1 1 4 3
-3 -4 -4 -4 -10 -2 -1 -0 0 1 3 1 1 0 -0 3 3 3 1 0 3 2 2 2 1 2 2 1 1 1 3 5 3 4 2 6 6 4 5 6 6 4 4 5
-4 -4 -3 -8 -7 -4 -3 -0 0 1 2 2 1 0 0 -0 2 3 2 3 3 2 3 4 4 4 3 3 2 2 2 3 5 5 5 3 3 5 6 7 6 5 6 5
-3 -4 -5 -12 -6 -3 -3 -0 0 0 2 2 2 1 0 2 1 3 3 4 3 3 4 5 4 4 2 4 4 3 3 3 6 5 6 6 3 3 2 4 8 6 6 6
-4 -3 -3 -6 -9 -3 -2 -0 0 -0 1 2 3 2 3 1 2 3 3 4 4 4 4 5 5 3 -0 4 3 5 5 5 5 4 5 3 -1 2 3 7 5 4 6 5
-4 -3 -3 -3 -5 -3 -2 -1 -0 -0 0 2 4 3 3 3 2 4 4 4 4 4 5 5 4 5 2 1 1 3 4 5 5 4 4 3 -0 1 4 3 1 2 2 3
-4 -3 -2 -4 -3 -5 -3 -1 -0 -0 -0 2 4 3 2 3 4 4 4 4 3 4 4 4 4 5 2 2 4 -0 2 0 1 1 2 -2 -0 -0 -0 0 1 2 2 2
-3 -3 -4 -3 -2 -3 -7 -1 -0 0 1 3 4 3 3 3 3 3 4 4 3 3 3 4 4 5 3 4 2 1 -1 -2 -0 2 1 -0 -1 -0 1 2 2 2 2 1
-4 -3 -3 -3 -3 -4 -6 -3 -0 -0 1 3 4 3 3 3 3 3 3 4 3 4 4 4 5 5 3 4 3 3 2 0 0 1 0 -0 1 2 2 2 1 1 0 1
-4 -4 -4 -3 -3 -4 -9 -7 -4 -1 1 3 3 3 4 4 4 4 4 4 4 4 4 4 5 4 4 3 3 4 2 2 4 3 1 2 2 2 2 2 1 -0 0 1
-3 -3 -2 -3 -3 -5 -3 1 1 -0 1 2 3 4 4 4 4 4 4 4 4 4 3 4 3 3 3 5 4 1 -0 1 0 1 2 2 2 2 2 1 0 -0 -0 1
-2 -1 -3 -3 -4 -4 -1 1 1 2 2 3 3 4 4 4 4 4 4 3 4 4 4 4 5 4 4 4 5 0 2 2 2 2 2 2 2 2 2 1 -0 -0 -0 -0
-1 -2 -4 -3 -4 -4 -2 1 1 2 2 3 3 4 4 4 4 4 3 4 4 4 4 5 5 5 5 5 4 3 2 3 3 2 2 2 2 2 1 0 -0 -1 -1 -1
-2 -2 -2 -3 -3 -1 0 2 2 2 2 3 3 4 4 4 4 4 4 4 5 4 5 5 5 5 5 4 3 3 3 3 2 2 2 2 2 1 1 -0 -1 -1 -1 -1
-1 -1 0 -0 -1 0 2 3 3 2 3 4 4 3 4 3 4 4 4 3 4 3 4 3 4 5 3 3 2 2 3 3 3 2 2 2 2 2 0 -0 -0 0 -2 -1
0 1 1 2 1 3 3 3 4 3 4 4 3 3 3 3 4 4 3 3 2 4 3 4 5 4 2 -0 -1 0 1 2 3 2 2 1 2 2 1 -0 -1 -1 -1 -0
1 1 1 2 3 3 3 3 2 3 4 3 3 3 4 3 3 3 3 3 2 5 2 4 4 2 -2 -3 -1 0 1 2 2 2 1 1 2 1 1 1 0 -1 -1 -0
1 1 1 2 2 3 3 4 3 4 2 1 2 3 3 3 3 2 2 3 4 1 3 3 2 -3 -3 -1 -0 1 1 1 1 1 1 1 1 1 1 2 -0 -0 -0 -1
1 1 2 2 3 3 2 2 2 0 1 1 1 2 2 2 2 2 3 2 1 3 3 2 -2 -3 -2 -1 -0 1 1 1 1 1 1 1 1 1 1 0 -0 -0 -0 -1
0 0 2 2 1 1 0 0 1 0 0 1 2 1 1 2 2 1 2 3 4 2 3 1 -2 -3 -2 -1 -1 0 1 1 0 0 0 0 0 0 -0 -1 -1 -1 -1 -1
-1 -1 0 -1 0 0 -0 -1 0 0 1 1 1 1 1 3 3 2 3 3 2 1 -1 -2 -3 -2 -2 -2 -2 -1 0 0 0 -0 -0 -0 -0 -0 -1 -1 -1 -2 -2 -2
-2 -1 -1 -1 -1 0 0 -0 -0 -0 1 1 1 2 2 -1 2 3 -0 0 -2 -2 -3 -3 -4 -4 -3 -3 -2 -2 -0 0 0 -0 -1 -1 -1 -1 -2 -2 -3 -2 -2 -3

GFSNW_850_dewp_057.txt.gz
Dewpoint
-4 -4 -3 -2 -2 -1 0 1 1 1 1 1 1 1 2 2 1 1 4 4 0 2 3 3 2 3 1 -2 -1 1 0 3 5 4 1 0 1 3 2 1 -0 1 0 2
-4 -5 -3 -7 -2 -1 0 0 1 1 -0 0 1 1 3 3 2 3 3 2 -0 -0 2 3 1 1 -0 -2 -1 1 0 3 5 4 2 1 3 2 2 2 3 0 1 1
-3 -4 -7 -7 -9 -0 -0 -0 0 -0 0 1 2 2 4 4 2 4 2 1 0 3 3 4 4 2 2 0 1 -1 -1 1 1 2 2 3 3 3 2 3 4 2 2 1
-3 -6 -6 -6 -11 -0 0 0 1 1 1 -0 1 2 3 4 5 3 2 1 1 4 6 4 3 2 2 2 1 1 0 3 2 2 2 2 3 2 2 3 3 4 1 1
-3 -4 -4 -5 -10 -1 0 1 0 0 1 2 1 1 4 3 5 4 2 2 1 2 4 2 2 2 2 3 2 2 1 2 3 3 2 2 3 2 2 2 2 2 2 2
-3 -4 -5 -6 -8 -2 -0 0 0 0 1 2 2 2 3 3 4 2 2 2 3 3 3 1 0 -0 -0 1 2 3 3 3 4 1 2 2 2 2 2 1 1 1 3 1
-3 -4 -10 -10 -9 -3 -2 0 0 1 3 2 2 1 2 4 4 4 2 2 3 2 1 1 1 1 1 1 1 2 3 4 4 3 2 4 -0 4 3 4 5 2 2 2
-3 -3 -4 -15 -14 -3 -3 -0 0 1 2 1 2 1 1 2 2 3 4 3 2 2 1 3 3 3 2 2 2 2 2 4 5 4 3 2 5 5 6 6 5 5 5 4
-3 -3 -3 -6 -13 -4 -2 -0 -0 0 1 1 2 2 1 2 2 2 4 3 2 2 3 4 4 3 2 4 3 3 3 3 5 5 5 6 3 3 3 3 8 5 5 6
-3 -3 -4 -5 -5 -6 -2 -0 -0 0 0 1 3 3 3 1 2 2 4 4 4 3 4 5 4 4 1 3 3 4 5 5 5 3 5 2 -1 3 2 7 4 4 6 6
-3 -4 -4 -4 -5 -4 -4 -2 -0 -0 -0 1 3 4 3 3 2 3 4 3 3 4 4 4 4 4 2 2 1 3 3 4 4 3 3 3 -3 2 4 2 1 1 3 3
-3 -4 -4 -4 -4 -3 -4 -4 -0 -0 -0 1 3 3 3 4 4 3 3 4 3 2 3 4 3 4 3 2 3 1 3 2 3 1 1 -3 -1 -2 -0 -0 1 2 2 2
-3 -3 -4 -4 -4 -4 -3 -5 -3 -0 -0 2 3 3 3 3 3 3 3 4 3 3 3 4 4 4 2 4 2 1 -0 -1 -0 0 -1 -2 -3 -1 0 1 2 2 2 2
-2 -4 -3 -4 -5 -4 -3 -4 -4 -1 0 1 3 4 3 3 3 3 3 3 3 3 3 4 4 5 2 4 3 3 1 -1 -1 -1 -1 -1 0 2 2 2 1 0 0 1
-4 -3 -4 -4 -3 -4 -4 -5 -9 -3 0 2 3 3 2 3 4 4 4 4 4 4 4 4 3 3 3 3 3 3 1 1 2 2 0 2 2 2 2 2 1 0 1 1
-3 -3 -4 -3 -3 -3 -5 -1 -5 -3 -2 1 3 3 3 4 4 4 4 4 5 4 4 4 3 2 4 5 5 2 1 1 1 1 1 2 2 2 2 1 0 -0 0 1
-3 -2 -2 -3 -2 -4 -2 0 1 1 1 2 3 4 4 4 4 4 4 4 4 3 4 3 3 4 4 4 4 1 1 2 2 2 2 2 2 2 2 1 0 -0 0 1
-2 -2 -3 -3 -3 -5 -4 -0 1 1 1 2 2 3 3 4 4 4 3 3 3 3 3 4 4 4 4 6 3 3 3 3 2 2 2 2 2 2 2 1 -0 -0 -0 -0
-3 -1 -2 -3 -4 -4 -1 1 2 2 2 3 3 3 3 4 4 4 4 3 4 3 3 4 5 5 5 3 3 3 3 3 3 2 2 2 2 2 1 -0 -1 -1 -1 -1
-1 -1 -0 -1 -1 -0 1 2 2 1 2 3 3 3 3 3 4 4 4 3 3 3 4 3 4 5 3 -2 -1 0 0 1 3 3 2 2 2 2 1 0 -1 -1 -0 -1
-0 0 1 1 1 2 2 3 3 3 3 3 4 3 3 3 3 4 3 2 1 4 3 3 3 5 -1 -3 -1 0 1 1 2 2 2 2 1 2 2 -0 -1 -0 -1 -1
-0 -0 0 2 2 2 2 3 2 2 3 3 3 3 3 3 3 3 2 2 2 4 2 3 4 2 -3 -1 -1 1 1 1 2 2 2 1 1 1 1 -0 -1 -0 -1 -1
0 0 0 1 2 2 3 3 3 3 2 1 2 2 3 3 3 2 2 3 4 1 3 3 1 -3 -3 -1 -1 0 1 1 1 1 1 1 2 3 2 2 2 -1 -1 -1
0 0 1 2 2 2 2 1 1 1 1 1 2 2 2 2 2 2 3 2 1 3 3 2 -1 -2 -2 -2 -2 -1 0 0 0 0 1 1 1 1 1 2 2 1 0 0
-0 -0 1 2 1 0 0 0 1 0 0 1 1 1 1 1 2 1 2 3 3 2 3 -1 -2 -3 -3 -3 -2 -1 -1 -0 -0 -0 0 0 0 0 0 0 -0 1 -1 -1
-1 -1 -0 -0 0 -0 -0 -0 0 0 1 1 1 1 2 2 2 2 3 3 2 0 -3 -2 -4 -4 -3 -3 -3 -2 -1 -0 -0 -0 -1 -1 -1 -1 -1 -1 -2 -2 -1 -1
-1 -1 -1 -1 -0 0 0 -0 0 -0 1 1 1 2 1 -2 1 2 0 -0 -1 -3 -3 -4 -4 -4 -4 -3 -3 -1 -1 -0 -0 -1 -1 -1 -1 -1 -1 -2 -3 -3 -3 -2

GFSNW_850_dewp_060.txt.gz
Dewpoint
-3 -4 -2 -3 -2 -2 -0 -1 1 1 1 0 -0 1 1 1 2 1 2 4 2 3 2 2 2 2 1 -1 -1 1 -0 2 5 4 1 1 1 2 2 1 -1 0 1 2
-2 -3 -2 -5 -10 -1 -1 -0 0 -0 0 -1 -0 1 0 3 2 2 4 4 -0 0 2 3 1 1 -1 -1 -1 1 -0 2 3 4 2 1 3 2 2 1 2 1 1 1
-3 -3 -3 -6 -11 -1 -1 -0 -1 -1 -1 0 2 3 4 4 2 3 3 1 -0 2 4 3 3 3 2 -1 -1 -1 -1 1 1 2 2 2 3 3 2 2 3 1 1 1
-3 -2 -3 -6 -9 -1 -0 0 0 0 1 -1 0 2 3 4 5 4 2 1 3 4 5 3 3 3 2 2 2 0 -0 2 2 2 2 2 2 2 3 3 3 3 1 1
-3 -3 -5 -8 -8 -2 0 0 0 0 1 2 2 1 3 4 5 4 4 4 4 3 4 2 3 2 2 2 1 2 1 2 3 3 1 2 3 2 2 3 3 3 2 2
-4 -2 -4 -11 -6 -3 -1 0 0 0 1 2 2 3 3 4 4 3 3 3 3 3 3 1 1 0 0 1 2 3 2 2 3 2 1 1 1 2 2 2 1 1 3 1
-3 -3 -3 -6 -8 -2 -2 -0 0 1 2 2 2 2 3 4 4 4 3 2 3 2 1 0 0 0 1 1 2 1 2 3 3 2 2 4 -1 1 0 1 0 0 -0 -1
-3 -3 -3 -3 -11 -4 -2 -1 0 0 2 1 2 2 2 2 2 3 3 3 2 1 0 2 2 3 2 2 2 2 1 3 4 4 3 2 2 5 5 6 4 4 5 4
-3 -3 -3 -3 -4 -8 -4 -0 -0 0 1 1 1 2 2 1 2 3 4 3 2 1 2 2 2 4 2 3 4 3 3 3 5 4 5 5 1 3 3 3 7 3 5 5
-4 -4 -4 -4 -5 -5 -6 -2 -0 -0 0 1 2 3 3 1 2 2 3 4 3 2 2 2 2 3 1 3 2 4 5 5 5 5 5 2 -1 -1 3 7 4 2 4 5
-4 -3 -4 -3 -4 -4 -5 -6 -0 -0 -0 0 1 3 4 3 2 3 3 2 2 3 3 3 2 3 2 2 1 2 3 4 5 4 4 3 -3 2 4 3 1 0 1 3
-4 -4 -4 -5 -4 -4 -3 -6 -1 -1 -1 0 2 3 4 4 4 3 3 2 2 2 3 2 2 4 3 2 4 0 3 1 2 1 1 -3 -3 -0 -3 -2 0 1 2 2
-4 -5 -4 -5 -5 -5 -3 -4 -5 -2 -0 1 2 2 2 2 3 4 4 3 3 3 2 3 3 4 2 3 2 1 0 -1 0 0 -1 -1 -2 -3 -3 -1 2 2 2 2
-4 -5 -4 -3 -3 -5 -3 -3 -5 -1 -1 0 3 4 4 4 3 3 3 3 3 3 3 3 4 5 2 3 3 2 0 -1 -0 -1 -2 -2 0 1 2 2 2 1 0 1
-4 -2 -3 -4 -3 -4 -4 -4 -6 -4 -1 1 2 2 3 3 4 4 3 4 4 3 4 4 4 3 3 2 2 3 1 1 0 1 -2 -0 1 2 2 2 1 0 0 1
-3 -3 -2 -2 -4 -2 -4 -7 -12 -9 -5 -0 2 3 3 4 4 4 4 4 4 4 4 4 3 2 2 5 5 0 1 1 1 -0 0 1 2 2 2 2 1 0 0 1
-4 -2 -2 -3 -3 -2 -5 -0 0 -1 -1 0 2 3 4 3 4 3 3 4 4 4 4 4 3 4 3 4 4 1 2 2 2 2 2 2 2 2 2 2 1 0 0 1
-2 -1 -3 -3 -2 -3 -5 -0 -0 1 1 1 2 3 2 4 4 4 4 3 3 4 3 3 4 3 3 5 3 3 3 3 2 2 2 2 2 2 2 2 0 -0 0 0
-2 -2 -2 -2 -3 -7 -2 0 1 1 1 2 3 3 1 4 4 4 4 3 3 3 4 4 4 4 5 1 -1 0 -0 1 1 2 3 2 2 2 2 1 -0 -1 -0 -1
-2 -2 -2 -1 -3 -1 0 1 1 1 2 2 3 3 3 3 3 4 4 3 2 3 4 3 4 5 -0 -2 -1 -0 0 0 1 1 2 2 2 2 2 1 0 -1 -1 -1
0 -0 0 1 -0 1 1 2 2 1 2 3 3 3 3 3 3 4 3 2 1 4 3 3 3 4 -1 -2 -1 0 1 1 1 1 2 2 2 1 2 2 0 -1 -1 -1
-0 -0 0 1 1 2 2 2 2 2 3 3 3 3 3 3 3 3 2 2 1 4 1 3 4 -0 -3 -2 -2 -0 0 0 1 1 1 2 1 2 2 2 -0 -1 -1 -1
-1 -0 -0 1 1 2 2 3 2 3 2 2 2 2 3 3 3 2 2 3 4 1 3 3 0 -2 -2 -2 -2 -1 -0 0 0 0 1 1 1 3 3 1 0 0 1 0
0 -0 1 1 2 1 -1 -2 -1 1 1 1 2 2 2 2 2 2 3 2 1 3 3 2 -1 -3 -3 -3 -3 -2 -1 -0 -0 -0 0 1 1 2 2 3 3 1 1 1
-1 -1 1 1 1 0 0 0 1 0 1 1 1 1 1 1 2 1 2 3 3 3 3 -1 -3 -4 -3 -3 -2 -2 -1 -1 -1 -1 -0 -0 0 1 0 1 2 2 0 -0
-2 -1 -1 -0 0 0 -0 0 0 0 1 1 1 1 2 2 2 2 3 3 3 1 -2 -3 -4 -4 -3 -3 -3 -2 -1 -1 -0 -1 -1 -1 -1 -1 -1 -1 -1 -1 1 -1
-2 -2 -2 -1 -0 -0 -0 -0 0 -0 1 1 1 2 2 -1 1 2 0 2 -1 -3 -3 -4 -4 -3 -4 -5 -4 -3 -1 -1 -0 -0 -1 -1 -1 -1 -1 -2 -2 -3 -3 -2

GFSNW_850_dewp_063.txt.gz
Dewpoint
-4 -2 -2 -2 -3 -0 -1 -0 -1 -0 -1 -1 -1 -1 1 1 2 2 3 3 2 2 2 2 2 2 1 -1 -1 1 0 3 5 3 1 1 1 2 2 1 0 0 -0 1
-3 -2 -3 -3 -9 -0 -1 -1 -1 -2 -1 -2 -0 1 2 2 3 3 4 2 1 0 1 2 1 0 -1 -1 -1 1 -0 1 3 3 2 1 3 2 1 0 0 -1 1 0
-3 -2 -3 -8 -9 -1 -0 0 -1 -1 -1 -0 1 2 3 4 3 3 3 1 0 2 4 2 2 2 2 -1 -1 -0 -1 1 1 3 1 2 3 3 2 2 3 1 1 0
-3 -3 -3 -9 -9 -1 -0 -0 -1 0 1 -0 2 1 2 3 5 3 2 2 3 3 4 3 4 3 2 1 2 0 -1 2 2 1 1 2 2 2 3 2 2 1 1 1
-2 -4 -3 -6 -9 -2 -0 -1 0 0 1 2 3 3 4 5 3 4 3 4 3 2 3 2 3 2 2 2 1 1 -0 3 2 2 1 2 3 2 2 2 2 2 2 2
-3 -3 -4 -4 -5 -2 -1 -0 0 0 1 2 2 4 4 5 4 4 3 3 2 3 3 1 0 0 0 1 1 2 1 1 2 1 1 1 1 1 2 1 1 2 3 1
-3 -4 -4 -3 -6 -2 -1 -0 0 0 1 1 1 2 3 4 4 5 3 3 2 2 1 0 0 1 1 1 1 0 1 2 3 2 1 3 -2 -1 -0 1 0 -0 -0 -1
-3 -4 -4 -6 -3 -5 -3 -0 -0 0 1 -0 1 2 2 2 2 4 3 3 2 1 -0 1 3 3 3 3 2 1 1 3 3 3 4 1 1 4 4 3 3 1 0 0
-3 -5 -4 -5 -7 -6 -6 -1 -0 -0 0 -0 1 2 2 2 2 3 3 3 2 0 1 1 2 3 2 3 4 2 3 4 2 3 4 4 -0 2 3 2 6 3 5 5
-3 -5 -3 -4 -6 -4 -5 -6 -1 -0 0 0 1 2 4 2 1 2 3 3 3 2 1 1 1 3 1 3 2 4 5 5 5 4 5 1 -2 -1 2 6 5 1 2 2
-3 -4 -6 -4 -5 -6 -3 -4 -4 -0 -0 -0 -0 1 3 4 3 2 3 1 1 2 2 1 1 2 1 1 1 2 3 4 3 3 4 2 -3 2 3 2 -1 -1 1 1
-5 -4 -6 -5 -4 -6 -5 -2 -4 -1 -1 -0 -0 1 2 3 4 4 3 2 2 1 2 1 2 3 2 1 3 0 3 1 2 1 1 -3 -4 1 0 -2 -2 0 2 2
-4 -4 -5 -4 -4 -5 -4 -2 -3 -3 -2 -0 1 1 2 3 2 4 4 3 3 2 2 2 2 3 1 2 2 1 0 -1 0 0 -1 -1 -2 -2 -2 -2 -2 1 1 0
-4 -4 -3 -3 -2 -3 -3 -4 -2 -3 -1 -1 2 4 4 3 3 3 4 4 3 3 3 3 3 4 1 2 2 2 0 -0 0 -0 -2 -2 -1 0 2 2 2 1 0 0
-4 -4 -3 -4 -3 -4 -3 -4 -4 -3 -2 -0 1 2 3 3 4 4 3 4 4 3 4 4 3 2 3 1 2 2 0 0 0 1 -1 -1 -1 1 2 1 1 1 1 1
-4 -4 -3 -3 -2 -3 -2 -3 -7 -5 -3 -1 2 3 3 4 4 4 4 4 4 4 4 4 3 2 2 4 4 1 1 2 2 -0 1 1 1 2 2 2 2 1 0 1
-4 -3 -2 -2 -2 -2 -3 -3 -1 -7 -4 -1 1 3 3 4 4 4 3 3 4 4 4 4 4 3 3 4 5 1 2 2 3 2 2 2 2 2 2 2 2 1 0 1
-10 -2 -1 -3 -2 -2 -2 -3 -1 -1 -1 0 2 3 1 4 4 4 3 3 3 4 3 3 4 4 4 4 1 -1 -0 -0 2 2 1 2 2 2 2 2 1 0 0 0
-10 -2 -1 -2 -2 -3 -5 -1 -0 -1 0 1 2 3 1 3 4 4 4 3 4 3 3 3 4 4 4 1 -1 -1 -0 0 0 -1 -1 -1 2 2 2 1 1 0 -0 -0
-1 -2 -2 -2 -3 -5 -0 0 -0 -0 1 1 2 3 3 3 3 3 4 3 2 3 3 3 4 3 0 -1 -1 -1 0 0 1 1 0 0 1 2 2 2 1 0 -1 -1
-1 -1 -0 -0 -2 -0 0 0 1 1 2 2 2 2 3 3 3 3 3 2 1 3 3 3 3 3 -1 -2 -2 -2 -0 0 0 0 1 1 1 2 2 1 1 0 -1 -1
-4 -2 -1 0 0 0 1 1 2 2 3 3 3 3 3 3 3 3 2 2 1 3 1 3 4 -0 -3 -2 -3 -2 -1 -0 -0 0 0 1 1 1 2 2 2 0 -1 -1
-2 -1 -1 -0 0 1 3 3 2 2 2 2 2 2 3 3 3 2 2 2 3 1 3 3 1 -2 -3 -3 -3 -2 -1 -1 -0 -0 0 1 2 3 3 2 0 -1 -1 -1
-1 -1 0 1 2 1 1 -0 -3 1 1 1 2 2 2 2 2 2 3 2 1 3 3 3 -1 -3 -3 -3 -2 -2 -1 -1 -0 -0 -0 1 1 2 2 3 2 2 2 1
-1 -1 0 1 0 0 0 0 0 1 1 1 1 1 1 1 2 1 2 3 2 2 2 -1 -3 -4 -3 -3 -3 -2 -2 -1 -1 -0 -1 -1 -1 -0 1 1 2 2 1 1
-2 -1 -2 -1 -0 -0 -0 0 0 1 1 1 1 0 2 2 2 2 3 3 2 0 -2 -3 -4 -3 -4 -5 -3 -3 -2 -1 -1 -1 -1 -1 -1 -1 -0 -1 -0 0 2 1
-3 -2 -1 -2 -1 -0 -0 -0 -0 0 0 0 1 2 2 -0 1 2 1 2 -0 -3 -4 -4 -3 -4 -5 -7 -5 -4 -3 -2 -1 -1 -1 -1 -2 -2 -2 -2 -2 -3 -2 0

GFSNW_850_dewp_066.txt.gz
Dewpoint
-1 -2 -3 -3 -3 -1 -1 -1 -4 -3 -1 -3 -1 1 3 2 3 3 3 3 2 2 1 2 2 2 1 -1 -1 1 0 2 4 4 1 0 1 2 1 1 1 -0 -1 -0
-1 -4 -3 -6 -6 -1 -0 -0 -1 -2 -2 -1 1 1 2 3 3 3 3 1 1 0 1 2 1 0 -1 -1 -1 0 -0 1 4 4 1 1 3 2 0 -0 -0 -0 1 -1
-2 -4 -3 -10 -8 -1 -1 -1 -1 -1 -1 -1 1 2 3 4 3 3 3 1 1 2 3 1 2 3 2 -1 -1 -0 -1 0 0 2 0 2 3 3 1 1 1 1 0 -1
-2 -3 -4 -5 -10 -2 -1 -1 -1 1 1 1 2 2 2 4 5 3 2 3 3 2 3 3 4 2 1 1 1 -0 -1 2 2 1 1 2 2 3 2 1 1 2 0 0
-2 -3 -7 -3 -13 -3 -2 0 0 0 1 1 2 3 4 4 4 3 4 3 3 2 2 3 3 2 2 1 1 1 -1 3 1 1 1 2 3 2 2 2 2 1 1 2
-2 -2 -4 -6 -7 -5 -2 -0 0 0 0 1 2 4 4 4 2 3 3 3 2 2 2 1 0 0 0 0 1 1 1 1 1 1 1 1 1 1 2 2 1 1 3 1
-2 -3 -4 -6 -4 -5 -4 -1 -0 1 1 0 1 2 3 3 4 4 3 2 2 2 1 1 0 1 1 1 1 -0 1 1 2 2 0 1 -3 -2 -1 1 -0 0 0 -1
-2 -3 -4 -3 -8 -4 -7 -1 -0 0 1 -1 0 1 2 2 3 4 4 3 2 1 -0 1 2 3 2 3 3 2 -0 2 3 2 2 0 1 4 2 3 3 0 -0 -0
-3 -2 -4 -3 -5 -7 -7 -4 -1 -0 -0 -0 1 1 2 2 2 2 3 2 2 0 1 1 2 3 2 4 4 2 3 2 1 2 3 3 -1 1 3 3 6 3 2 4
-4 -3 -3 -6 -4 -6 -6 -4 -3 -1 -0 -0 1 2 3 3 1 2 2 3 2 0 0 1 1 2 0 3 2 5 4 4 3 3 3 1 -2 -1 1 5 5 2 0 -0
-7 -5 -5 -5 -5 -4 -6 -5 -4 -1 -0 -1 -1 0 2 3 3 2 2 1 1 1 1 1 1 2 1 1 0 2 2 3 3 2 4 1 -4 0 3 2 0 -1 -2 2
-8 -3 -5 -3 -4 -3 -4 -5 -4 -2 -2 -1 -1 -1 -1 1 3 4 3 1 2 1 1 1 1 3 2 1 2 -0 2 0 1 0 0 -4 -4 -1 -2 -1 -3 -2 -0 1
-4 -5 -4 -5 -3 -3 -2 -3 -4 -2 -4 -3 -0 0 0 2 3 3 3 3 3 2 2 1 1 2 0 2 2 1 0 -1 0 -0 -1 -2 -2 -2 -2 -2 -2 -2 1 1
-4 -5 -4 -4 -2 -3 -3 -2 -3 -3 -3 -1 -0 3 4 3 3 3 4 4 3 3 3 2 3 3 1 2 1 1 0 -1 0 -0 -1 -1 -1 -0 2 2 2 2 1 0
-4 -3 -5 -5 -4 -3 -2 -3 -3 -2 -3 -1 -0 1 3 4 4 4 4 4 4 3 3 3 3 2 2 1 1 1 0 0 1 2 -1 -1 -1 -0 1 2 2 2 1 1
-3 -3 -4 -4 -3 -3 -2 -2 -3 -3 -3 -2 1 3 3 3 3 4 4 4 4 4 4 3 3 2 2 3 4 1 2 2 2 0 1 2 2 2 2 2 2 2 1 0
-3 -3 -4 -2 -2 -2 -3 -5 -1 -3 -3 -2 0 2 3 4 4 4 4 4 3 4 4 4 3 3 2 4 3 2 1 1 3 2 2 2 2 2 2 2 2 1 1 0
-7 -10 -1 -1 -2 -1 -2 -3 -2 -2 -3 -1 1 3 2 4 4 4 4 2 3 4 4 3 4 3 4 4 1 -1 -0 -0 0 2 1 -0 -0 2 2 2 1 1 1 0
-15 -3 -2 -2 -2 -1 -2 -2 -2 -2 -1 -0 1 3 2 3 4 3 3 3 4 3 3 2 3 3 4 1 -1 -1 -1 -0 0 -0 -0 -1 0 1 2 2 2 1 1 0
-2 -1 -3 -3 -3 -3 -2 -1 -1 -1 -1 -0 2 2 3 3 4 3 4 3 3 3 3 3 3 3 0 -1 -2 -1 -1 -0 0 -0 -0 -0 -0 0 0 1 2 2 1 0
-2 -1 -1 -1 -1 -1 -1 -1 -0 -1 1 1 1 1 2 3 3 3 3 2 1 3 3 3 3 3 -0 -2 -2 -2 -2 -0 0 0 0 0 0 1 1 1 2 1 1 0
-14 -6 -4 -1 -1 -1 -0 1 1 1 2 2 3 3 2 3 3 3 2 2 1 2 1 2 4 -0 -3 -3 -3 -3 -2 -1 -0 -0 -0 -0 0 1 1 1 2 2 1 -1
-2 -1 -1 -1 -0 1 2 2 2 2 2 2 2 2 3 3 3 2 1 2 3 1 3 3 1 -2 -2 -3 -3 -2 -2 -1 -1 -1 -1 0 1 2 2 2 1 0 -1 -1
-1 -1 -0 0 1 1 1 0 -0 0 1 1 2 2 1 2 2 2 3 2 1 2 1 1 -1 -2 -3 -3 -2 -2 -2 -2 -2 -1 -1 -0 -0 1 2 2 1 0 0 1
-1 -1 -0 0 0 0 0 0 0 0 1 1 1 1 1 1 2 1 2 3 1 1 1 -1 -3 -3 -2 -2 -2 -2 -2 -2 -2 -1 -1 -1 -0 -0 -1 0 1 1 1 1
-2 -1 -1 -1 -1 -0 -0 0 0 1 1 1 1 0 1 1 2 2 2 2 0 -1 -3 -3 -4 -3 -3 -5 -4 -3 -3 -2 -1 -1 -2 -2 -2 -1 -0 -0 -0 -0 1 0
-4 -2 -2 -2 -2 -1 -1 -0 0 0 0 -1 0 1 0 -0 2 2 1 2 -0 -3 -3 -4 -3 -4 -6 -8 -9 -9 -9 -8 -4 -2 -2 -2 -2 -3 -3 -3 -3 -2 -2 -0

GFSNW_850_dewp_069.txt.gz
Dewpoint
-2 -2 -3 -2 -3 -1 -1 -2 -4 -4 -2 -1 -2 2 2 2 3 3 3 2 1 2 2 2 2 2 1 -1 -1 2 1 2 5 4 1 -0 0 2 0 1 2 -0 -0 -1
-2 -3 -4 -3 -8 -1 -0 -1 -1 -4 -1 1 1 0 1 3 2 2 3 1 0 0 1 2 1 1 -0 -1 -1 0 -0 1 5 3 1 1 2 2 -0 -1 0 2 2 -3
-3 -2 -4 -10 -8 -2 -1 -2 -3 -1 -1 -0 2 3 3 3 3 3 2 1 0 1 2 1 2 3 1 -1 1 0 -1 0 0 2 0 2 4 3 0 1 2 1 1 -1
-2 -3 -4 -16 -9 -2 -1 -2 -2 0 1 2 2 2 3 4 4 2 2 2 2 1 2 3 3 2 1 1 1 -1 -1 2 1 1 2 2 2 3 2 2 1 2 -0 0
-4 -3 -4 -9 -13 -3 -2 0 1 0 0 1 2 3 4 4 3 3 3 3 2 2 3 3 3 2 1 0 0 -0 -1 3 0 1 1 2 3 2 2 2 1 1 1 1
-3 -2 -4 -4 -13 -5 -2 -0 -0 0 0 1 2 3 3 3 3 3 3 2 2 2 2 1 0 0 0 0 0 1 0 1 1 1 0 1 1 2 2 2 1 1 3 0
-4 -2 -4 -4 -6 -9 -4 -1 -0 0 0 1 1 2 2 3 4 4 3 2 2 1 1 1 0 1 1 1 1 -1 1 1 1 2 -0 1 -3 -2 -0 1 0 0 0 -0
-5 -3 -3 -5 -4 -9 -6 -2 -0 -0 0 -0 0 1 2 1 2 3 3 3 2 1 -0 1 2 2 1 3 3 2 -0 1 3 2 2 -1 3 2 1 2 4 -1 0 -1
-6 -4 -4 -3 -5 -4 -9 -6 -4 -1 -0 -0 0 1 2 2 2 1 2 2 1 0 0 0 2 3 2 3 4 2 2 -0 1 2 3 2 -1 2 2 2 8 2 -1 3
-7 -5 -3 -4 -5 -4 -3 -6 -4 -4 -0 -1 -0 1 2 3 2 2 2 3 2 -0 0 1 1 2 0 3 2 3 3 3 3 3 3 1 -3 -2 1 5 5 2 -0 -1
-6 -7 -5 -4 -3 -4 -2 -4 -6 -4 -1 -1 -1 -1 1 1 3 3 2 0 0 1 1 0 1 2 1 1 -0 2 2 3 2 2 4 0 -4 -0 3 1 -0 -0 -1 -1
-6 -7 -5 -5 -4 -4 -2 -2 -3 -5 -3 -3 -2 -2 -2 -0 -1 1 3 1 2 1 1 1 1 2 1 -0 2 -0 2 -0 1 0 -0 -4 -4 -1 -1 -3 -2 -2 1 -0
-8 -7 -4 -4 -4 -4 -2 -2 -2 -2 -4 -4 -3 -5 1 -1 1 1 2 3 3 2 1 -0 1 2 0 2 1 1 -0 -1 0 -0 -1 -2 -2 -1 -0 1 -0 -1 -1 1
-5 -5 -3 -4 -4 -5 -3 -2 -2 -2 -4 -2 -1 2 2 3 2 3 3 3 4 3 3 1 2 2 -0 1 1 1 -0 -1 -0 -0 -1 -1 -1 -1 0 2 2 2 1 1
-4 -4 -4 -3 -5 -5 -3 -3 -3 -2 -5 -2 -2 -2 1 3 4 4 3 4 4 3 3 3 3 2 2 0 0 1 -0 0 1 2 -1 -1 -1 0 2 1 2 2 2 1
-4 -4 -3 -3 -3 -3 -2 -2 -4 -2 -3 -3 -1 1 3 3 3 4 4 4 4 4 4 3 3 1 1 2 4 0 1 2 2 0 2 2 2 2 2 2 2 2 2 1
-4 -4 -4 -3 -1 -1 -3 -3 -3 -2 -2 -2 -1 1 1 4 3 4 4 4 4 4 3 4 3 3 2 3 4 -0 2 1 1 2 2 2 2 1 2 2 2 1 1 1
-9 -13 -10 -4 -1 -1 -2 -2 -2 -3 -2 -3 -0 2 2 4 4 4 4 3 3 3 3 3 3 3 3 4 2 -0 -0 0 0 1 2 1 0 -0 -0 2 2 1 1 1
-15 -9 -2 -2 -2 -2 -2 -3 -2 -2 -3 -2 0 3 1 3 3 3 3 3 3 3 3 3 3 4 4 1 -0 -0 -0 -1 -0 -0 -0 -0 0 -1 -1 1 2 2 2 2
-16 -3 -2 -2 -2 -2 -2 -2 -2 -2 -2 -1 1 2 2 3 3 4 3 3 3 3 3 3 3 4 0 -1 -1 -2 -2 -2 -0 -0 -0 -0 -0 -0 0 -0 0 1 1 2
-15 -2 -1 -1 -1 -2 -1 -1 -1 -1 0 -0 1 1 2 2 3 3 3 2 2 3 3 3 3 4 1 -1 -2 -2 -3 -2 -1 -1 0 0 -0 -0 0 1 1 1 1 1
-13 -11 -8 -5 -1 -1 -1 0 0 1 1 2 2 1 1 3 3 3 2 2 1 2 2 2 3 1 -2 -3 -3 -3 -2 -2 -1 -1 -0 -0 -0 0 1 1 1 2 2 2
-6 -2 -2 -2 -1 -0 1 2 2 2 2 1 2 2 2 2 3 2 1 2 3 1 2 2 -0 -2 -2 -3 -2 -2 -2 -2 -2 -1 -1 -1 -0 0 1 1 1 0 0 -0
-2 -1 -1 -0 1 1 1 0 0 -0 0 1 2 2 2 2 2 2 3 2 1 2 1 1 -2 -2 -3 -2 -2 -2 -2 -2 -2 -2 -2 -1 -1 -0 0 1 1 0 -0 -1
-2 -1 -1 -0 -1 -0 -0 -0 -0 -0 0 1 1 1 1 1 2 1 2 3 2 1 2 -0 -2 -3 -2 -2 -1 -1 -1 -2 -2 -2 -2 -1 -1 -0 -0 -0 0 0 0 0
-3 -2 -1 -2 -1 -1 -0 -0 -0 -0 0 1 1 0 1 1 2 2 2 2 2 -0 -2 -3 -2 -2 -2 -3 -4 -5 -7 -6 -3 -2 -2 -2 -2 -2 -1 -1 -0 -0 -0 -0
-5 -3 -2 -2 -2 -2 -1 -1 -1 -0 0 1 -0 1 -0 -1 0 2 -0 -1 -2 -2 -3 -4 -3 -5 -7 -8 -9 -11 -12 -12 -12 -8 -4 -2 -2 -2 -2 -2 -3 -2 -1 -1

GFSNW_850_dewp_072.txt.gz
Dewpoint
-3 -2 -9 -20 -11 -2 -2 -2 1 -4 -1 1 1 4 2 3 3 3 3 2 1 2 1 2 2 3 4 -1 -1 1 0 2 5 4 1 -0 0 1 -0 5 4 2 3 -1
-2 -2 -9 -21 -10 -2 -1 -0 -1 -3 -0 3 3 1 2 2 3 3 2 1 0 0 1 2 1 1 -1 -1 -0 -0 -1 2 5 4 1 1 2 1 -0 0 1 4 3 -2
-2 -4 -9 -17 -12 -3 -1 -0 2 0 -0 1 2 3 3 4 3 2 2 1 -0 0 1 0 2 2 1 1 0 -0 -2 -0 1 2 1 2 4 2 0 2 5 2 1 -2
-4 -3 -6 -11 -17 -3 -2 -0 0 0 3 1 2 3 4 5 4 2 1 1 2 1 1 1 2 1 1 0 0 -1 -1 2 2 2 1 2 2 3 2 4 1 1 -1 -1
-6 -3 -3 -5 -16 -10 -2 -0 -0 0 0 1 2 3 4 4 3 3 3 2 2 1 3 2 2 1 0 0 -1 -1 -1 2 1 2 1 2 3 2 2 1 1 0 -0 0
-6 -5 -3 -5 -7 -12 -2 -1 -1 -1 -0 0 1 2 3 3 3 3 2 2 2 2 2 1 1 0 -0 -0 -0 0 0 1 1 3 1 1 2 1 2 2 1 1 2 -1
-7 -7 -3 -4 -6 -8 -6 -1 -1 -0 -0 1 2 2 2 3 3 3 3 2 1 1 1 1 1 1 1 0 0 -1 0 0 1 2 0 2 -1 -1 -0 1 0 0 -0 -1
-4 -6 -6 -4 -5 -5 -7 -6 -3 -1 -1 -1 1 1 2 2 2 3 3 3 2 1 0 1 2 1 1 2 2 0 -1 0 3 2 1 -1 3 1 0 2 4 -0 -0 -0
-2 -6 -6 -4 -4 -5 -4 -6 -6 -4 -0 -1 -0 0 1 3 3 2 2 2 1 -0 1 1 3 3 1 1 3 1 -0 -1 1 3 3 1 3 2 2 2 7 0 -1 1
-6 -6 -7 -5 -5 -3 -3 -4 -6 -5 -2 -2 -0 1 1 2 3 3 2 3 2 -0 1 2 2 2 0 2 1 2 3 3 3 3 3 -0 -3 -3 1 5 5 2 1 1
-8 -7 -5 -5 -5 -4 -4 -3 -3 -5 -2 -3 -4 -1 0 0 3 3 3 2 1 2 2 1 1 2 1 1 -0 2 2 3 2 1 3 2 -4 -0 4 1 -0 -1 1 2
-5 -9 -4 -4 -4 -4 -4 -2 -2 -2 -2 -4 -6 -7 -4 -1 -1 1 2 3 2 2 2 2 2 2 1 1 2 -1 2 0 1 0 -1 -3 -3 -1 -1 -2 -2 -1 -1 1
-8 -3 -3 -4 -3 -4 -4 -2 -2 -2 -2 -3 -3 -7 -7 -7 -3 -3 1 3 3 3 1 1 1 2 1 2 1 1 0 -1 0 0 -1 -2 -2 -1 0 1 1 -0 -1 1
-8 -2 -3 -4 -4 -4 -5 -3 -2 -2 -2 -3 -4 -1 1 2 2 0 1 2 4 3 3 3 2 2 0 1 1 1 0 -0 0 0 -1 -1 -1 -0 1 1 1 2 2 1
-3 -2 -2 -4 -4 -4 -5 -4 -3 -3 -2 -4 -4 -7 -3 1 2 2 3 3 2 4 4 4 3 3 2 1 2 2 -0 -0 1 -0 -1 -0 -0 1 2 2 2 2 1 1
-5 -2 -3 -4 -3 -2 -2 -3 -4 -3 -3 -3 -3 -1 0 2 3 4 4 4 4 4 3 3 3 1 1 3 2 -2 0 0 0 0 2 2 2 2 2 2 2 2 2 1
-7 -3 -4 -5 -6 -2 -1 -3 -3 -4 -3 -3 -2 -0 1 3 3 3 4 4 4 4 3 3 3 3 2 2 2 -1 1 2 1 2 2 2 2 1 0 0 2 2 1 1
-5 -2 -8 -5 -3 -2 -2 -2 -3 -4 -2 -3 -1 1 2 3 3 4 3 4 4 3 3 3 3 3 3 4 2 0 1 1 0 0 1 1 1 1 0 0 1 2 2 2
-4 -7 -10 -2 -2 -2 -2 -2 -2 -2 -2 -2 -1 2 3 2 3 3 3 3 3 3 3 3 3 3 4 2 2 1 -0 0 0 -0 0 0 -0 -0 -0 -0 -1 -0 1 1
-4 -8 -2 -2 -2 -2 -3 -2 -2 -2 -3 -3 -1 0 3 2 2 3 3 3 3 3 3 2 3 3 1 -0 -1 -1 -1 -1 -1 -1 -0 -0 -0 -0 -0 -0 0 0 -0 0
-9 -11 -2 -2 -5 -2 -2 -2 -2 -2 -0 -2 -1 1 2 3 3 3 3 3 2 4 2 4 4 3 1 -1 -2 -2 -2 -3 -2 -1 -1 -1 -1 -1 -1 -0 0 1 1 1
-5 -10 -9 -7 -3 -2 -1 0 -0 0 1 1 1 1 1 3 3 3 2 2 2 3 2 3 3 1 -2 -3 -3 -3 -2 -2 -2 -1 -1 -1 -1 -1 -0 0 1 1 1 1
-9 -2 -3 -2 -2 0 1 2 2 2 1 1 1 2 2 2 3 1 2 3 3 1 3 2 1 -2 -3 -3 -2 -2 -2 -2 -2 -2 -2 -1 -1 -1 -0 0 1 0 -1 -0
-4 -1 -0 -0 1 1 2 1 1 -0 -0 -0 1 1 2 2 1 2 3 3 2 3 3 2 -0 -2 -3 -2 -2 -2 -2 -2 -2 -2 -2 -2 -2 -1 -1 -1 -0 0 0 -1
-3 -2 -0 -1 -1 -1 -0 -1 -1 -0 -0 -0 1 1 1 1 2 1 2 3 3 2 3 2 -2 -3 -2 -2 -2 -2 -2 -2 -2 -2 -2 -2 -2 -1 -1 -1 -1 -1 -0 -0
-3 -3 -2 -2 -2 -1 -2 -1 -1 -1 -0 -0 1 1 2 2 2 3 3 3 3 2 1 -2 -2 -2 -2 -2 -5 -8 -10 -11 -8 -5 -3 -2 -1 -1 -2 -2 -1 -1 -1 -1
-4 -4 -3 -2 -2 -2 -2 -2 -2 -1 -1 1 0 2 1 0 2 2 1 2 1 -1 -3 -2 -2 -2 -4 -8 -8 -11 -13 -15 -15 -15 -13 -10 -5 -3 -2 -2 -2 -2 -1 -1

GFSNW_850_dewp_075.txt.gz
Dewpoint
-6 -5 -9 -15 -16 -5 -3 0 3 -1 -0 3 2 4 2 2 2 3 3 2 1 1 0 2 2 3 1 -1 -1 1 0 2 6 4 1 3 3 4 3 6 5 3 5 0
-6 -3 -8 -16 -19 -4 -1 0 0 -1 2 4 2 1 2 2 2 2 2 1 0 -1 0 2 2 1 -1 -0 -0 -1 -1 2 5 4 2 1 2 1 -0 -0 3 7 5 -0
-5 -5 -9 -14 -22 -10 -1 0 1 1 2 1 2 3 2 3 2 1 1 0 -1 -1 0 -1 2 1 1 -0 -1 -1 -2 -1 2 3 3 2 4 2 0 2 6 2 0 -1
-7 -8 -7 -10 -17 -13 0 0 0 0 3 2 2 2 2 4 3 1 0 -0 0 -0 0 0 2 1 -0 -1 -1 -2 -2 2 1 1 1 1 2 3 1 5 1 1 -2 -2
-6 -10 -6 -7 -12 -17 -1 0 -0 -0 0 0 1 2 3 4 3 2 2 2 0 0 2 2 0 0 -0 0 -1 -1 -1 2 0 1 0 1 3 1 1 1 0 -0 -1 -1
-4 -8 -10 -6 -8 -10 -3 -1 -1 -0 -1 -0 1 3 2 3 3 2 2 2 1 2 2 1 0 -1 -1 -1 -1 -0 -0 -0 0 4 0 1 3 1 1 1 -0 -0 1 -2
-3 -7 -10 -3 -5 -6 -2 -3 -2 -0 -0 -0 0 2 2 3 3 3 2 2 1 1 2 1 -0 -1 -1 -1 -1 -2 -0 -0 0 1 -0 4 0 -1 -1 1 -0 -1 -1 -1
-3 -8 -8 -6 -3 -4 -2 -3 -2 -1 -1 -2 -1 1 2 3 2 2 2 2 2 2 1 1 2 1 1 1 0 -1 -2 -1 2 3 0 -1 2 1 0 2 4 -0 -0 -0
-2 -8 -7 -7 -5 -4 -2 -2 -4 -3 -2 -1 -3 -1 1 3 4 2 2 2 2 1 0 1 3 3 0 1 1 -0 -1 -2 1 2 2 0 4 2 1 2 6 -0 0 2
-1 -7 -10 -7 -7 -5 -4 -2 -2 -2 -3 -5 -3 -0 1 1 3 3 2 3 2 1 1 2 2 1 -0 1 1 1 1 1 3 2 3 -1 -1 -3 -0 5 6 1 2 2
-2 -5 -7 -6 -6 -4 -4 -2 -2 -2 -2 -4 -4 -4 -3 -1 2 3 2 3 2 2 2 2 1 1 0 1 -0 1 1 2 2 1 2 3 -2 1 4 2 1 1 0 2
-2 -4 -7 -2 -4 -4 -4 -2 -2 -2 -2 -3 -5 -4 -3 -3 -2 0 0 3 3 2 3 1 1 1 1 0 2 -1 2 -0 1 0 -0 -3 -3 -2 -2 -2 -1 -0 -1 1
-2 -7 -2 -2 -3 -4 -4 -4 -2 -3 -2 -3 -3 -4 -3 -4 -8 -1 -2 3 4 3 2 2 1 2 1 1 0 1 -1 -1 -0 0 -1 -2 -2 -0 1 1 2 0 -0 0
-6 -6 -3 -2 -2 -4 -4 -3 -3 -3 -2 -2 -5 -5 -1 -0 1 -2 -4 0 3 3 4 4 3 1 -0 0 1 1 -0 -1 -0 -0 -1 -2 -1 1 1 2 2 2 2 1
-4 -4 -6 -3 -3 -3 -3 -3 -3 -3 -2 -3 -4 -5 -7 -9 -2 2 3 -1 -0 2 4 3 3 2 1 0 1 0 -1 -1 0 -1 -1 -0 -0 1 2 2 2 1 1 1
-3 -4 -6 -2 -4 -4 -2 -2 -4 -3 -2 -2 -2 -4 -5 1 1 2 3 2 1 2 4 3 2 3 1 1 1 -2 -1 -1 -1 -1 1 2 2 2 1 1 2 1 1 1
-3 -5 -5 -2 -4 -5 -2 -2 -2 -3 -3 -2 -3 -3 -0 1 2 3 3 3 3 3 3 3 2 2 2 1 2 -2 -1 -0 1 2 2 2 2 2 1 1 1 2 1 1
-3 -3 -2 -8 -8 -2 -2 -2 -2 -2 -3 -3 -2 -2 1 2 3 3 3 3 3 3 3 3 2 2 3 4 1 1 1 1 1 1 1 1 1 1 1 1 -0 0 1 1
-3 -3 -8 -2 -2 -2 -2 -2 -2 -2 -2 -2 -1 1 3 2 3 2 3 3 3 3 3 2 2 2 4 2 1 1 0 0 0 0 0 -0 0 1 0 -0 -0 -0 -0 -0
-4 -9 -3 -2 -2 -3 -2 -2 -2 -2 -2 -2 -2 -2 1 2 3 3 3 2 3 4 2 3 3 4 1 -0 -0 0 -0 -1 -1 -0 0 0 -0 -0 -0 -0 -0 -0 0 0
-4 -9 -4 -2 -2 -4 -2 -2 -2 -2 -1 -2 -2 -2 1 2 3 3 3 3 2 4 3 3 4 3 1 -1 -1 -1 -1 -2 -2 -2 -1 -1 -1 -1 -0 -0 -0 0 1 1
-6 -7 -6 -4 -5 -2 -1 -0 -0 -0 -2 0 0 1 1 2 2 2 2 3 2 4 2 3 3 1 -2 -2 -2 -3 -2 -2 -2 -2 -2 -2 -1 -1 -1 -1 -0 0 1 0
-9 -3 -3 -2 -2 -0 0 1 1 2 -0 0 1 2 2 2 2 1 2 3 3 2 3 2 1 -1 -2 -2 -2 -2 -2 -2 -2 -2 -2 -2 -2 -1 -1 -1 -1 -0 -0 -1
-3 -3 -3 -1 0 0 1 0 0 -0 -1 -1 -1 -0 1 1 2 2 3 3 2 3 3 3 1 -1 -3 -2 -2 -2 -2 -2 -2 -2 -2 -2 -2 -2 -2 -1 -1 -1 -0 -0
-4 -3 -3 -2 -1 -1 -1 -1 -1 -1 -1 -2 -0 0 1 1 2 1 2 3 3 2 3 2 -1 -2 -2 -2 -2 -2 -2 -2 -2 -2 -2 -2 -2 -2 -2 -1 -1 -1 -1 -1
-4 -4 -4 -3 -2 -2 -3 -2 -2 -2 -1 -1 -0 1 2 3 2 3 4 3 4 4 1 -1 -2 -2 -2 -2 -4 -9 -11 -11 -11 -11 -8 -6 -5 -3 -2 -2 -2 -2 -2 -1
-4 -4 -3 -3 -3 -3 -2 -2 -2 -6 -1 0 -0 2 2 1 2 2 2 3 3 0 -2 -1 -1 -1 -2 -4 -3 -7 -12 -15 -17 -18 -17 -17 -14 -11 -9 -8 -5 -3 -2 -2

GFSNW_850_dewp_078.txt.gz
Dewpoint
-5 -9 -11 -13 -22 -17 -5 0 4 -1 2 2 1 4 2 2 3 3 3 3 1 1 1 2 3 2 1 -1 -1 3 4 6 7 7 4 3 3 5 5 7 6 5 5 2
-6 -10 -12 -12 -21 -7 1 0 1 2 1 2 3 0 1 2 2 2 2 1 0 -1 0 3 2 2 0 -1 0 0 0 4 7 7 6 4 5 5 5 2 4 6 7 1
-4 -9 -11 -15 -19 -11 0 0 1 0 2 2 2 3 2 4 2 2 -0 0 -1 -0 1 0 2 2 1 -0 -1 -1 0 0 3 6 4 4 4 4 4 3 7 4 2 -1
-3 -6 -11 -14 -19 -11 -1 -1 1 0 2 2 1 2 3 3 4 1 0 0 0 0 2 1 1 0 0 -1 -2 -2 -0 3 2 2 1 2 3 3 2 3 3 3 -2 -1
-3 -7 -10 -10 -14 -11 -4 -1 -1 -1 0 -0 2 2 2 3 2 3 2 3 1 1 3 2 2 1 1 1 -1 -1 -2 2 1 2 1 2 3 2 2 2 1 -0 -1 -1
-2 -8 -9 -7 -10 -10 -3 -3 -3 -0 -2 -0 2 3 3 3 3 4 1 2 2 2 2 1 0 -1 -2 -1 -0 -0 -0 0 1 3 0 1 3 2 2 1 -0 -0 1 -1
-1 -5 -10 -7 -7 -5 -1 -2 -2 -2 -2 -2 1 2 1 3 3 4 1 2 1 2 2 1 1 -1 -1 -1 -2 -2 -0 -0 1 2 -0 4 1 -1 -0 1 -0 -1 -1 -0
-1 -2 -10 -8 -7 -7 -3 -1 -3 -3 -2 -4 -2 -3 2 2 3 3 2 2 2 2 1 3 2 2 1 1 -0 -1 -2 -0 2 3 1 -0 -0 1 0 1 2 -1 -1 -1
-0 -2 -7 -10 -8 -7 -4 -1 -2 -2 -3 -3 -4 -4 1 2 3 3 2 2 2 1 2 2 4 6 -0 1 -0 -1 -2 -2 2 2 4 2 5 1 0 2 5 -0 -0 2
-1 -2 -5 -9 -6 -7 -4 -3 -2 -2 -3 -4 -4 -4 -3 1 1 2 3 2 2 1 3 4 3 3 -0 2 1 1 1 2 3 2 3 0 0 -2 0 6 5 1 2 2
-1 -2 -4 -5 -3 -4 -5 -5 -2 -2 -3 -4 -3 -4 -4 -3 -2 2 2 3 3 3 4 3 2 2 1 1 -0 1 1 2 3 2 3 2 -1 1 5 3 2 2 1 3
-1 -2 -5 -3 -2 -2 -3 -5 -3 -3 -2 -4 -6 -6 -4 -4 -3 -2 1 2 3 3 3 3 2 2 1 0 3 -1 2 0 2 1 1 -3 -2 -2 -2 -2 0 0 -0 1
-1 -5 -5 -3 -2 -2 -3 -4 -4 -3 -2 -4 -4 -4 -4 -3 -3 -4 -0 1 3 4 4 3 2 3 1 2 2 0 -1 -2 0 0 -1 -2 -2 1 1 1 2 1 -0 1
-4 -5 -2 -4 -4 -3 -7 -4 -4 -2 -3 -2 -6 -6 -5 -3 -2 -3 -2 -1 -1 0 2 3 4 3 -0 1 1 0 0 -1 0 0 -1 -1 -0 1 1 2 2 2 2 1
-2 -2 -2 -4 -3 -2 -5 -6 -5 -2 -2 -2 -3 -4 -3 -4 -6 -5 -1 -3 -4 1 3 3 3 2 1 0 1 1 -1 -1 1 1 0 -0 1 1 1 2 2 1 1 2
-2 -2 -3 -5 -3 -1 -3 -4 -3 -2 -3 -2 -2 -5 -7 -6 -1 -6 -1 1 -1 1 3 3 3 2 1 2 2 -2 -2 -1 -1 0 1 1 2 2 2 1 1 2 1 1
-3 -3 -3 -3 -3 -3 -4 -4 -3 -2 -2 -3 -3 -3 -3 -1 1 1 1 1 2 2 3 3 2 2 1 2 2 -2 -2 -1 0 1 1 2 2 2 2 1 1 1 1 1
-3 -4 -4 -5 -6 -4 -2 -3 -3 -2 -2 -3 -3 -3 -3 1 2 3 2 3 2 3 2 3 3 2 2 3 1 1 1 1 1 1 1 1 1 1 1 1 1 0 -0 0
-4 -5 -6 -4 -3 -2 -2 -2 -3 -2 -3 -2 -2 -1 -0 0 2 1 2 3 3 3 3 3 2 3 4 1 0 1 1 0 1 1 0 0 -0 0 0 0 -0 -0 -0 -0
-5 -7 -3 -3 -2 -3 -4 -2 -2 -2 -3 -3 -3 -4 -1 -2 2 2 2 3 3 3 2 2 2 3 1 1 0 0 0 0 -0 -0 0 0 0 -0 -0 -1 -0 -0 -0 -0
-5 -6 -4 -4 -4 -7 -2 -2 -2 -2 -2 -3 -2 -3 -2 -0 1 2 2 2 2 3 3 2 2 1 1 0 -0 -1 -1 -1 -1 -2 -2 -1 -1 -1 -1 -1 -1 -0 -0 0
-6 -8 -6 -4 -4 -3 -2 -1 -1 -1 -0 -1 -1 -0 -1 0 1 2 2 2 2 3 2 3 2 0 -1 -2 -2 -2 -2 -2 -2 -2 -2 -2 -2 -2 -1 -1 -1 -1 -0 0
-5 -4 -3 -2 -2 -2 -0 1 1 1 -0 -1 -1 -1 0 1 1 1 2 3 3 2 3 1 -0 -1 -2 -2 -2 -2 -2 -2 -2 -2 -2 -2 -2 -2 -1 -1 -1 -1 -0 -0
-5 -4 -6 -2 -0 -0 0 -0 -1 -1 -1 -1 -2 -2 -1 1 1 1 2 2 1 2 3 2 -0 -0 -2 -2 -1 -2 -2 -1 -1 -2 -2 -2 -2 -2 -2 -2 -2 -1 -1 -1
-6 -4 -5 -3 -2 -2 -1 -1 -2 -2 -2 -2 -2 -1 -1 0 1 1 2 2 2 1 3 1 -0 -1 -2 -1 -2 -2 -2 -2 -3 -5 -4 -3 -3 -2 -2 -2 -2 -2 -2 -2
-5 -4 -4 -5 -3 -3 -4 -3 -2 -2 -5 -2 -2 -0 1 2 2 2 3 3 2 2 0 -0 -1 -1 -2 -2 -2 -3 -8 -11 -14 -15 -15 -13 -12 -10 -7 -7 -5 -4 -2 -2
-5 -4 -4 -4 -4 -4 -4 -4 -3 -3 -3 -1 -1 1 1 0 2 2 2 3 1 -0 -1 -1 -1 -1 -2 -1 -1 -3 -12 -16 -18 -19 -19 -19 -19 -17 -18 -19 -18 -14 -7 -4

GFSNW_850_dewp_081.txt.gz
Dewpoint
-4 -6 -10 -16 -20 -14 -4 -0 -0 2 1 0 2 3 2 2 2 3 3 3 4 2 1 3 2 3 3 2 3 6 4 4 5 6 4 3 4 4 4 3 5 2 5 3
-4 -7 -10 -18 -19 -9 -1 -0 0 0 0 2 3 1 1 1 3 3 2 2 1 -0 1 3 2 2 1 -1 -0 2 3 4 5 5 5 4 5 5 4 3 3 1 4 4
-3 -6 -9 -12 -18 -12 -3 -0 -0 -1 0 1 2 3 3 3 2 3 1 1 0 1 2 1 2 2 1 -0 -1 1 2 4 5 4 3 5 6 6 4 2 3 4 2 -0
-2 -4 -9 -9 -13 -14 -8 -3 -1 -1 1 -0 0 2 2 3 4 2 2 2 2 2 3 2 2 1 0 -1 -2 -2 -0 3 3 2 3 3 4 6 5 4 3 4 -0 0
-1 -2 -9 -8 -8 -10 -10 -4 -2 -3 -1 -0 1 0 2 3 3 4 3 4 3 2 3 3 3 1 1 1 -1 -1 -2 3 1 2 2 2 4 3 4 4 4 2 -1 -0
0 -1 -6 -9 -8 -7 -3 -4 -3 -2 -2 -3 1 0 2 2 2 3 3 3 3 3 2 2 2 2 -1 -2 -0 0 -1 1 1 2 1 2 3 2 2 1 0 -0 0 -1
0 -1 -4 -9 -9 -6 -3 -3 -3 -3 -3 -4 -4 -1 -1 2 2 3 3 2 3 2 1 1 0 0 -1 -1 -1 -2 -1 -0 1 1 0 3 1 -1 -0 1 -0 -1 -0 -1
-0 -1 -4 -7 -8 -7 -4 -2 -3 -3 -4 -4 -4 -4 -1 1 2 3 4 2 2 1 1 2 2 3 1 1 -0 -1 -2 0 2 2 1 0 -0 0 0 1 1 -2 -1 0
-0 -1 -4 -6 -6 -5 -5 -3 -3 -3 -2 -4 -4 -4 -0 1 2 2 3 2 1 1 2 2 4 4 0 1 1 -1 -1 -1 1 1 2 3 4 0 0 2 5 -0 -1 2
-0 -1 -2 -5 -3 -3 -3 -4 -2 -2 -2 -5 -4 -4 -4 -2 0 0 2 1 2 2 2 2 2 3 -1 2 1 0 1 1 2 2 2 2 2 -2 2 5 3 2 2 2
-1 -1 -2 -5 -3 -2 -3 -4 -3 -2 -4 -4 -4 -3 -3 -4 -3 -0 1 2 3 3 4 3 2 2 1 1 0 1 1 2 2 1 2 2 -1 1 4 4 2 2 2 2
-1 -1 -5 -5 -3 -3 -3 -6 -6 -4 -2 -4 -5 -4 -5 -4 -5 -4 -1 1 1 3 3 3 1 2 1 0 4 -1 2 0 1 1 1 -3 -1 -1 -1 -1 -0 0 -0 2
-2 -3 -4 -2 -3 -4 -2 -5 -6 -4 -3 -4 -5 -5 -5 -3 -2 -3 -3 1 2 1 2 3 2 2 0 3 2 1 -1 -2 -0 0 -2 -2 0 1 1 2 1 0 0 1
-4 -3 -2 -2 -2 -4 -2 -2 -4 -4 -2 -2 -5 -6 -6 -4 -3 -3 -3 -1 0 -1 0 3 2 2 -1 1 0 -0 -0 -1 -0 0 -1 1 2 1 2 2 2 2 1 1
-4 -3 -2 -2 -3 -4 -2 -2 -4 -3 -2 -3 -3 -6 -5 -5 -6 -5 -5 -2 -3 -1 2 3 2 2 1 0 1 1 -1 -1 1 1 0 -0 1 1 1 1 1 1 1 1
-5 -4 -4 -3 -2 -2 -2 -5 -3 -4 -2 -2 -3 -5 -7 -2 -5 -2 -3 -3 -2 -2 2 2 2 2 1 1 1 -2 -2 -1 -1 0 1 1 2 2 1 1 1 1 1 1
-5 -4 -4 -2 -2 -3 -3 -6 -4 -4 -2 -2 -3 -4 -6 -4 -2 -4 -5 -1 1 0 2 2 2 2 1 2 1 -2 -1 -1 -0 0 1 2 2 2 2 1 1 1 1 1
-5 -5 -4 -4 -5 -3 -2 -2 -3 -3 -3 -3 -2 -4 -3 0 1 1 2 1 1 2 2 2 3 2 2 3 1 1 1 1 1 0 0 1 1 1 1 0 0 0 0 -0
-5 -6 -5 -4 -3 -2 -2 -3 -3 -3 -3 -3 -3 -4 -2 -2 -0 1 1 2 2 2 2 2 3 2 3 1 1 0 1 1 1 1 0 0 0 0 0 -0 -0 -0 -0 -0
-6 -6 -4 -3 -2 -3 -6 -2 -2 -2 -3 -3 -3 -4 -2 -3 -1 1 2 2 3 3 3 2 3 3 1 0 0 0 0 0 0 0 0 0 0 -0 -1 -1 -1 -1 -1 -1
-5 -6 -5 -5 -6 -6 -3 -3 -2 -2 -2 -2 -2 -2 -2 -2 0 1 2 2 2 3 1 2 2 2 -0 -0 0 -0 -1 -1 -1 -1 -1 -1 -1 -1 -1 -1 -1 -1 -1 -1
-3 -5 -5 -4 -4 -3 -3 -5 -2 -2 -1 -1 -1 -1 -1 -1 -0 0 1 2 2 2 1 3 2 -0 -1 -1 -1 -2 -2 -2 -2 -2 -2 -2 -2 -2 -2 -1 -1 -1 -1 -1
-5 -4 -3 -3 -3 -4 -4 -5 -3 -4 -1 -0 -1 -1 -1 -0 0 1 1 2 2 1 2 2 -1 -2 -2 -2 -2 -2 -2 -2 -2 -2 -2 -2 -2 -2 -2 -2 -2 -1 -1 -1
-7 -5 -8 -5 -7 -3 -2 -3 -3 -3 -2 -2 -2 -2 -2 -0 0 1 2 2 1 2 2 1 -2 -2 -2 -2 -1 -1 -1 -1 -1 -2 -2 -2 -2 -2 -2 -2 -2 -2 -2 -2
-6 -4 -8 -9 -4 -2 -2 -3 -3 -3 -2 -2 -3 -2 -2 -0 1 1 1 2 2 1 2 1 -0 -1 -1 -1 -1 -2 -1 -3 -9 -13 -13 -11 -9 -7 -5 -5 -5 -4 -3 -2
-6 -5 -5 -5 -5 -5 -4 -5 -4 -4 -3 -4 -2 -2 1 2 1 2 3 2 1 2 0 -0 -1 -1 -1 -2 -2 -4 -4 -11 -15 -17 -17 -17 -17 -15 -14 -16 -16 -12 -6 -4
-5 -5 -5 -4 -5 -5 -5 -4 -5 -3 -4 -3 -3 -0 -0 -1 1 2 2 2 1 -1 -2 -1 -2 -1 -2 -1 -1 -1 -9 -15 -18 -19 -20 -21 -20 -19 -19 -20 -19 -17 -16 -13

GFSNW_850_dewp_084.txt.gz
Dewpoint
-2 -4 -8 -9 -13 -14 -8 -1 -1 0 0 -1 1 3 2 1 2 2 3 3 4 3 2 4 4 5 5 1 2 2 2 5 6 4 4 3 3 5 4 3 6 0 2 2
-1 -3 -6 -8 -10 -15 -5 -1 -1 -1 -0 1 3 1 1 2 3 4 3 2 1 1 2 3 2 2 0 4 4 5 4 4 5 6 6 5 6 5 4 2 1 -0 2 3
-1 -2 -5 -8 -8 -13 -8 -2 -3 -3 -1 1 1 2 2 2 1 3 2 2 1 2 2 1 2 2 -0 -0 2 2 2 4 1 2 3 4 6 5 3 2 1 2 2 0
-0 -2 -5 -8 -8 -10 -7 -7 -1 -3 0 -1 0 1 0 2 3 2 2 2 3 3 3 3 3 2 0 -1 -0 1 1 5 3 3 4 4 4 5 3 0 2 2 1 -0
-0 -1 -5 -8 -8 -8 -11 -5 -3 -3 -2 -1 0 -0 1 1 2 3 4 4 4 2 3 3 4 3 0 1 -1 -1 -1 3 0 2 2 3 4 5 4 3 3 2 -1 -1
-0 -1 -4 -7 -8 -8 -5 -5 -4 -2 -3 -4 -2 -0 -0 -0 2 1 2 3 4 2 2 2 2 2 2 -0 -0 0 -1 1 2 3 2 2 6 5 4 3 3 1 0 -2
-0 -1 -3 -6 -7 -6 -5 -3 -3 -4 -4 -4 -3 -3 -3 -1 1 2 1 3 3 2 2 1 0 0 -1 -1 -1 -2 -1 0 1 2 0 3 0 -1 1 1 0 -1 -1 -2
-0 -1 -2 -4 -7 -5 -5 -3 -4 -3 -4 -4 -4 -4 -4 -4 -1 1 3 3 3 2 2 2 2 3 1 0 -0 -1 -2 0 2 2 1 0 -0 -1 1 1 1 -1 -0 1
-0 -1 -2 -4 -4 -3 -3 -4 -2 -3 -2 -5 -4 -4 -5 -1 -1 -1 2 2 1 2 1 2 3 3 1 1 -0 -1 -1 -1 1 1 2 2 3 0 0 1 4 -1 -0 1
-1 -2 -2 -5 -3 -3 -3 -4 -4 -3 -3 -4 -5 -4 -5 -4 -1 -1 -2 -0 1 2 1 2 1 2 -0 2 2 1 1 1 1 2 1 1 2 -1 2 4 1 0 1 2
-4 -4 -4 -5 -3 -4 -3 -3 -6 -4 -4 -4 -4 -3 -3 -4 -4 -2 -3 -2 3 2 3 2 2 2 1 0 -0 1 1 1 2 1 2 1 -1 1 4 2 2 2 2 2
-8 -6 -4 -3 -3 -3 -5 -3 -3 -5 -4 -7 -6 -5 -5 -5 -4 -3 -4 -0 -1 3 4 2 1 2 0 0 3 -1 1 -0 1 0 1 -3 -1 -0 -1 -0 -0 -0 2 2
-7 -6 -5 -3 -2 -3 -4 -2 -1 -2 -3 -4 -5 -8 -5 -5 -5 -3 -4 -2 0 0 -1 2 2 2 -0 2 2 1 -1 -2 -0 -0 -2 -2 0 1 1 1 0 0 1 1
-7 -6 -5 -4 -4 -3 -4 -2 -2 -2 -3 -3 -5 -6 -6 -6 -4 -4 -3 -2 -1 -1 -1 3 2 3 -1 0 0 -0 -1 -1 -0 0 -0 1 1 2 2 2 2 2 1 1
-7 -6 -6 -5 -4 -3 -2 -2 -2 -3 -3 -3 -2 -6 -6 -6 -5 -5 -5 -5 -2 -2 -1 3 3 1 2 0 0 1 -1 -1 1 1 -0 -1 1 1 2 1 1 1 1 1
-9 -8 -7 -5 -4 -3 -2 -3 -3 -3 -3 -2 -4 -5 -7 -6 -3 -4 -5 -4 -3 -2 -0 2 2 2 2 1 1 -1 -1 -2 -1 0 1 1 1 1 1 1 1 1 1 1
-9 -8 -7 -6 -5 -4 -3 -5 -4 -3 -2 -2 -3 -5 -6 -2 -1 -3 -2 -3 -3 -1 1 1 2 2 2 2 1 -1 -1 -1 -0 0 1 1 1 2 2 1 1 1 0 1
-10 -8 -8 -7 -5 -4 -3 -3 -3 -4 -3 -3 -3 -4 -5 -2 -1 -1 -4 -2 0 1 2 2 2 2 3 4 1 1 1 1 1 1 1 1 2 2 1 0 0 -0 0 0
-11 -9 -6 -4 -3 -3 -4 -4 -5 -3 -3 -3 -3 -2 -3 -3 -2 -1 1 1 2 1 2 2 2 2 3 1 0 1 1 1 1 1 0 1 1 1 1 0 -0 -1 -1 -0
-10 -8 -7 -3 -4 -6 -6 -2 -2 -3 -3 -3 -3 -3 -3 -2 -1 0 1 2 2 3 3 2 3 2 1 0 0 0 0 0 0 0 0 0 0 -0 -0 -1 -1 -1 -1 -1
-8 -6 -7 -6 -5 -6 -3 -4 -3 -3 -4 -3 -3 -2 -2 -3 -0 0 1 1 2 2 1 3 1 1 -1 -0 -0 -1 -1 -1 -1 -1 -0 -1 -1 -1 -1 -1 -1 -1 -1 -1
-5 -6 -5 -4 -4 -3 -4 -6 -2 -3 -4 -1 -2 -2 -2 -2 -1 -1 0 2 1 2 2 2 2 -1 -1 -1 -1 -2 -2 -2 -2 -2 -2 -2 -2 -2 -2 -2 -2 -1 -1 -1
-5 -5 -4 -4 -3 -5 -6 -4 -7 -7 -3 -2 -3 -4 -3 -2 -0 0 0 2 2 1 2 2 -0 -2 -1 -2 -2 -2 -2 -2 -2 -2 -2 -2 -2 -2 -2 -2 -2 -2 -2 -2
-5 -6 -11 -7 -7 -4 -3 -4 -4 -4 -3 -3 -4 -3 -3 -1 -0 1 2 2 1 2 2 1 -3 -2 -2 -2 -2 -2 -2 -2 -3 -3 -3 -3 -2 -2 -2 -2 -3 -3 -2 -2
-4 -5 -9 -10 -6 -3 -3 -3 -3 -6 -5 -4 -4 -3 -3 -1 -0 0 1 2 2 1 1 1 0 -0 -1 -1 -2 -2 -2 -3 -6 -14 -16 -16 -15 -13 -12 -15 -15 -12 -7 -5
-4 -5 -6 -6 -6 -6 -4 -4 -5 -5 -4 -4 -4 -2 -1 0 1 2 2 2 1 1 0 -1 -1 -1 -1 -2 -2 -3 -6 -8 -15 -17 -19 -20 -19 -17 -18 -19 -19 -17 -16 -14
-5 -5 -5 -5 -5 -5 -5 -5 -4 -4 -4 -5 -4 -2 -1 -2 0 2 1 1 -0 -2 -2 -2 -2 -2 -2 -2 -2 -2 -5 -14 -16 -18 -19 -20 -21 -20 -20 -20 -19 -18 -17 -16

GFSNW_850_dewp_087.txt.gz
Dewpoint
-2 -4 -6 -8 -8 -10 -9 -2 -2 -0 0 -1 1 3 2 1 2 3 3 4 4 5 5 5 2 3 2 0 -1 1 -0 1 0 3 4 2 3 4 2 3 3 0 -0 1
-2 -4 -6 -8 -8 -10 -10 -2 -2 -1 -1 1 2 1 0 1 3 4 3 3 2 1 2 4 3 2 3 1 2 0 1 1 1 5 5 4 3 4 5 2 0 0 2 1
-3 -4 -6 -7 -8 -10 -10 -4 -5 -6 -1 0 1 2 0 1 1 2 2 3 2 2 2 1 3 3 3 1 1 2 -1 5 1 2 3 3 5 4 4 3 0 1 1 1
-2 -3 -5 -7 -8 -9 -9 -8 -2 -3 -1 -2 -1 0 0 1 2 1 2 3 3 4 3 3 3 3 1 4 4 4 4 5 2 3 3 3 3 5 4 2 2 2 1 1
-1 -2 -4 -6 -7 -8 -10 -7 -5 -3 -2 -3 -2 -1 -0 -0 -1 1 4 4 3 3 3 3 4 3 2 1 -1 0 -1 4 1 2 4 3 5 4 4 2 2 1 -0 -1
-1 -2 -3 -6 -7 -7 -8 -6 -3 -3 -4 -5 -4 -3 -1 -2 -3 0 1 2 3 3 2 2 2 2 2 2 0 -0 -1 1 1 2 2 4 6 5 3 3 3 0 0 -2
-0 -2 -3 -5 -5 -5 -7 -8 -5 -4 -5 -5 -4 -4 -4 -3 -4 1 1 2 4 2 2 1 1 1 1 -1 -1 -2 -1 0 1 2 1 3 -1 -1 3 2 1 1 -1 -2
-0 -2 -3 -6 -4 -4 -5 -7 -7 -3 -4 -4 -4 -4 -4 -5 -3 -2 -1 3 1 1 2 2 2 2 -0 -1 -1 -1 -2 0 2 2 2 -0 -0 -0 2 2 2 -1 -1 -0
-2 -3 -4 -6 -4 -4 -6 -9 -8 -4 -3 -6 -4 -4 -5 -4 -2 -3 -1 -2 -3 2 1 1 3 1 1 1 -0 -2 -1 -1 0 1 2 1 4 0 0 -1 3 -1 -1 1
-4 -5 -5 -5 -4 -5 -4 -4 -6 -6 -3 -6 -4 -5 -5 -3 -3 -3 -4 -3 -5 2 1 2 1 2 -0 2 2 1 0 1 1 2 1 0 0 -0 1 3 0 -1 0 1
-6 -6 -6 -5 -4 -4 -6 -3 -2 -3 -5 -5 -6 -4 -4 -4 -4 -3 -4 -3 1 3 3 2 2 1 0 0 -0 1 1 1 1 1 1 -0 -2 1 2 1 2 1 1 2
-7 -6 -6 -5 -3 -3 -4 -5 -3 -3 -3 -4 -4 -5 -6 -5 -5 -3 -3 -3 -2 0 3 2 1 1 -0 -0 1 -1 1 -0 1 -0 0 -3 -1 -0 -0 0 0 1 2 2
-7 -6 -6 -5 -5 -4 -4 -5 -2 -2 -2 -4 -6 -7 -5 -5 -5 -4 -3 -3 -1 -1 -1 -1 2 3 -1 1 1 0 -1 -2 -1 -0 -2 -1 1 2 1 0 -0 0 1 2
-8 -7 -6 -6 -6 -5 -3 -2 -2 -3 -3 -3 -6 -7 -6 -6 -5 -5 -3 -3 -2 -3 -1 -0 3 2 -1 -0 -0 -0 -2 -1 -0 -0 -0 1 1 1 2 2 2 1 1 1
-9 -8 -8 -7 -7 -5 -3 -3 -4 -4 -4 -3 -3 -6 -6 -6 -5 -4 -4 -4 -4 -2 -1 1 3 1 2 -0 -0 0 -1 -1 0 0 -1 -1 1 2 2 1 1 1 1 1
-10 -10 -10 -8 -7 -6 -4 -5 -3 -3 -3 -2 -3 -5 -8 -3 -2 -2 -3 -4 -3 -3 -2 0 2 1 2 2 1 -1 -1 -1 -2 -1 1 0 1 1 1 1 1 1 1 1
-12 -10 -11 -9 -8 -7 -6 -6 -4 -3 -4 -3 -4 -5 -7 -7 -1 -3 -2 -3 -3 -4 -1 1 1 1 2 2 2 -1 0 -1 -0 1 1 1 1 1 1 1 1 1 1 1
-13 -10 -10 -8 -6 -5 -4 -4 -4 -6 -4 -4 -5 -5 -6 -3 -2 -0 -2 -2 -2 -0 1 2 2 2 3 3 0 1 1 1 1 1 1 1 1 2 1 1 0 -0 -0 -0
-13 -10 -7 -5 -5 -4 -4 -5 -5 -5 -4 -3 -3 -5 -5 -4 -2 -2 -1 -1 1 -0 2 1 2 2 3 1 0 0 1 1 1 1 0 1 1 1 1 0 -0 -0 -1 -1
-12 -8 -7 -4 -7 -6 -5 -4 -4 -4 -3 -3 -3 -4 -4 -3 -2 -1 0 1 2 2 1 1 2 1 0 0 0 0 0 0 0 0 0 0 0 0 -0 -0 -1 -1 -1 -1
-9 -7 -7 -6 -6 -5 -4 -4 -4 -4 -4 -3 -3 -3 -2 -4 -2 -2 -0 1 1 2 2 3 2 2 -2 -0 -0 -0 -1 -1 -1 -0 -0 -0 -0 -1 -1 -1 -1 -1 -1 -1
-10 -9 -7 -5 -4 -4 -6 -6 -3 -3 -5 -4 -2 -3 -4 -3 -2 -1 -1 1 1 2 2 3 1 -1 -1 -1 -1 -1 -1 -2 -2 -2 -2 -2 -2 -2 -2 -2 -2 -1 -1 -1
-8 -7 -5 -5 -4 -8 -6 -5 -9 -8 -4 -4 -4 -4 -4 -4 -2 -1 0 2 1 2 2 1 -1 -2 -1 -1 -1 -2 -2 -2 -2 -2 -2 -2 -2 -2 -2 -2 -2 -2 -2 -2
-6 -7 -11 -10 -9 -4 -4 -5 -8 -5 -4 -5 -5 -4 -4 -3 -1 -0 2 2 1 1 2 0 -2 -1 -2 -2 -2 -2 -2 -2 -4 -6 -6 -4 -3 -4 -4 -5 -8 -9 -7 -5
-5 -6 -10 -9 -6 -4 -3 -3 -3 -4 -5 -5 -5 -5 -4 -3 -1 -0 1 2 0 1 1 1 -1 -1 -1 -2 -2 -2 -2 -3 -6 -15 -17 -18 -17 -15 -17 -19 -19 -17 -14 -13
-5 -5 -7 -6 -6 -6 -5 -4 -4 -5 -5 -5 -4 -3 -2 -3 -0 1 2 2 0 1 -1 -2 -2 -2 -1 -2 -2 -2 -3 -10 -12 -16 -19 -19 -20 -19 -20 -21 -21 -20 -19 -18
-4 -5 -5 -5 -5 -6 -5 -5 -4 -4 -5 -6 -6 -5 -5 -4 -1 1 -0 -0 -1 -2 -2 -3 -3 -2 -2 -2 -2 -2 -2 -11 -15 -17 -17 -18 -20 -21 -21 -21 -20 -19 -18 -17

GFSNW_850_dewp_090.txt.gz
Dewpoint
-4 -6 -7 -8 -9 -10 -10 -2 -2 -1 -1 -1 1 3 2 1 2 3 3 4 4 5 5 3 2 2 1 -0 -2 -1 -2 -0 2 1 2 0 2 3 2 1 5 -0 -0 2
-5 -6 -7 -8 -9 -10 -11 -4 -3 -2 -2 -1 1 0 -0 -1 3 3 1 4 3 2 3 4 4 5 2 0 -2 -2 -2 -2 2 4 2 3 2 4 0 1 1 0 1 0
-5 -7 -7 -8 -9 -10 -10 -8 -6 -6 -2 -1 1 1 1 0 -2 2 1 3 1 2 2 3 4 5 2 1 -1 -2 -4 -1 -0 1 -0 2 3 4 3 0 0 1 1 1
-6 -6 -7 -7 -8 -10 -11 -9 -3 -3 -3 -3 -3 -1 -2 -1 -0 -1 1 4 3 4 4 3 3 3 3 1 0 2 1 4 2 3 3 1 1 4 4 1 1 2 1 1
-6 -5 -6 -7 -8 -10 -11 -9 -7 -4 -4 -4 -3 -3 -2 -1 -2 -2 2 3 3 4 5 4 4 4 3 2 3 2 1 5 2 3 3 3 3 4 4 4 2 1 -0 -1
-3 -4 -6 -7 -8 -9 -10 -8 -4 -5 -5 -5 -4 -4 -3 -3 -4 -3 1 2 2 3 3 2 2 2 2 2 2 2 1 3 1 4 3 4 5 4 4 2 1 1 2 -1
-3 -4 -6 -6 -7 -9 -12 -11 -6 -7 -6 -6 -4 -5 -4 -4 -5 -3 -2 -1 3 3 0 1 1 2 2 1 -1 -1 -1 0 1 3 1 5 -0 -2 2 2 2 0 -2 -3
-3 -5 -6 -5 -6 -6 -7 -10 -9 -7 -5 -5 -4 -4 -4 -6 -4 -3 -4 1 -1 -2 1 1 2 2 -1 -2 -3 -1 -2 0 1 2 2 -1 -0 1 3 3 3 0 1 -2
-3 -5 -6 -5 -5 -6 -5 -5 -7 -8 -7 -6 -5 -4 -5 -5 -3 -4 -4 -6 -6 2 1 2 3 2 1 1 -0 -2 -2 -2 1 1 2 0 3 -0 0 -1 3 -1 -1 -0
-5 -5 -6 -5 -5 -5 -6 -4 -3 -5 -6 -7 -5 -6 -5 -4 -4 -4 -4 -4 -3 1 1 2 1 2 -0 2 2 1 0 1 1 2 1 0 -1 -0 1 3 -0 -1 -1 1
-8 -6 -6 -6 -5 -4 -5 -5 -3 -4 -4 -5 -6 -5 -4 -4 -4 -3 -4 -2 -1 0 2 3 2 2 -0 -0 -1 1 1 1 1 1 1 0 -2 1 1 -0 2 0 1 1
-12 -8 -6 -5 -5 -6 -5 -5 -2 -2 -3 -4 -4 -6 -6 -5 -5 -4 -3 -4 -2 -1 0 1 2 2 -1 -1 1 -2 1 -0 1 -0 0 -3 -1 -0 0 0 1 2 2 2
-13 -10 -8 -6 -6 -5 -4 -3 -2 -2 -3 -6 -7 -7 -6 -5 -6 -5 -4 -3 -1 -1 -2 -1 2 3 -1 0 0 -0 -2 -2 -1 -1 -2 -1 1 2 1 0 0 1 2 2
-13 -11 -8 -7 -6 -4 -2 -3 -4 -5 -5 -4 -7 -7 -6 -6 -5 -5 -4 -4 -2 -2 -3 -1 2 2 -1 0 -1 -0 -2 -1 -1 -1 -1 1 1 1 2 1 1 1 1 1
-14 -12 -9 -8 -6 -7 -4 -5 -4 -4 -6 -4 -4 -8 -8 -5 -3 -4 -4 -4 -3 -3 -3 -1 3 2 2 0 -1 -0 -1 -2 0 -0 -2 -1 0 2 1 1 1 1 1 1
-15 -12 -11 -9 -7 -7 -5 -5 -4 -4 -3 -5 -4 -6 -8 -8 -5 -2 -2 -2 -3 -3 -2 -2 1 2 2 2 1 -2 -2 -1 -2 -1 1 0 1 2 1 1 1 1 1 1
-14 -12 -13 -10 -7 -7 -6 -5 -4 -6 -4 -4 -4 -5 -7 -6 -1 -2 -3 -4 -3 -3 -3 -1 1 0 2 2 2 -1 0 0 -0 1 1 1 1 1 1 1 1 1 0 0
-12 -12 -12 -9 -6 -5 -5 -4 -4 -5 -4 -5 -5 -5 -6 -4 -3 -1 -2 -2 -3 -2 -2 1 1 1 2 3 -0 -0 1 1 1 1 1 1 1 1 1 1 0 -0 -0 -1
-13 -11 -8 -6 -6 -5 -6 -5 -4 -4 -4 -4 -4 -4 -4 -4 -4 -2 -1 -1 -0 -1 1 1 1 0 2 1 0 0 0 1 1 1 0 1 1 1 1 1 0 -0 -1 -1
-12 -8 -8 -5 -7 -6 -4 -4 -4 -4 -4 -3 -4 -4 -5 -4 -4 -3 -1 0 1 2 -0 -0 2 1 -0 -0 0 0 0 0 0 0 0 0 0 0 -0 -0 -0 -0 -1 -1
-9 -8 -7 -7 -5 -4 -4 -4 -5 -4 -4 -4 -4 -3 -3 -5 -2 -2 -2 0 1 2 1 2 2 1 -2 -0 -1 -1 -1 -1 -1 -0 -0 -0 -0 -0 -1 -1 -1 -2 -2 -2
-11 -9 -7 -4 -4 -4 -7 -5 -4 -4 -4 -5 -3 -4 -5 -4 -2 -2 -1 0 1 -0 1 2 1 -1 -1 -1 -1 -1 -1 -2 -2 -2 -2 -2 -2 -2 -2 -2 -2 -2 -2 -2
-10 -8 -7 -5 -5 -6 -7 -6 -10 -10 -4 -5 -5 -5 -5 -5 -3 -2 -0 1 1 1 2 1 -1 -2 -1 -1 -1 -2 -2 -2 -2 -2 -2 -2 -2 -2 -2 -2 -2 -2 -3 -3
-8 -8 -9 -9 -7 -6 -6 -9 -9 -6 -4 -5 -5 -5 -4 -4 -2 -2 0 1 1 -1 -0 -1 -1 -1 -1 -2 -1 -2 -2 -2 -2 -5 -7 -7 -9 -8 -9 -11 -17 -17 -14 -12
-7 -7 -9 -7 -7 -4 -4 -4 -4 -4 -4 -5 -5 -5 -5 -4 -3 -2 0 2 0 0 1 -0 -2 -2 -2 -1 -2 -2 -2 -4 -7 -17 -18 -19 -19 -18 -19 -20 -20 -19 -19 -18
-6 -6 -8 -7 -6 -6 -4 -4 -5 -4 -4 -5 -5 -6 -3 -6 -3 -1 1 1 -1 -2 -3 -3 -3 -3 -3 -2 -2 -2 -2 -5 -11 -15 -18 -18 -18 -18 -20 -21 -21 -20 -19 -18
-5 -5 -5 -7 -6 -6 -5 -6 -5 -5 -5 -8 -6 -6 -5 -7 -6 -1 -2 -2 -3 -4 -8 -8 -4 -3 -3 -3 -3 -3 -2 -3 -11 -12 -16 -16 -17 -19 -20 -20 -19 -18 -18 -17

GFSNW_850_dewp_093.txt.gz
Dewpoint
-9 -9 -10 -9 -10 -10 -10 -2 -3 -3 -1 -2 -0 0 2 -1 1 2 3 3 3 4 5 3 2 2 2 -1 -3 -2 -2 0 1 -0 0 -1 2 2 1 2 5 1 1 3
-10 -12 -11 -9 -10 -10 -10 -4 -5 -3 -2 -2 1 -1 -0 -1 -0 2 1 3 2 1 4 5 4 4 1 -0 -3 -2 -2 -3 1 2 0 1 2 2 1 0 1 2 2 1
-12 -12 -10 -9 -10 -11 -11 -9 -6 -6 -4 -3 -1 0 -1 -1 -2 2 0 3 2 2 2 3 4 5 1 -0 -3 -2 -4 -3 -1 -0 -3 1 3 3 0 -0 2 1 1 0
-14 -11 -9 -9 -10 -11 -10 -9 -4 -4 -7 -5 -4 -2 -3 -2 -2 -3 -0 3 1 4 4 4 4 4 2 1 1 1 -1 1 -0 0 2 1 1 3 2 -0 -1 0 -2 0
-13 -10 -9 -9 -10 -11 -11 -9 -7 -4 -5 -5 -4 -4 -3 -2 -5 -3 0 2 0 2 4 4 4 3 3 3 1 1 1 3 2 4 3 2 2 2 2 0 0 1 -1 -0
-12 -10 -9 -9 -10 -11 -11 -9 -7 -7 -6 -6 -5 -4 -4 -4 -4 -5 -3 -1 -1 2 3 0 -1 0 1 2 3 2 2 3 2 5 4 4 4 3 3 3 1 1 3 0
-12 -10 -9 -8 -9 -9 -9 -9 -8 -8 -7 -6 -5 -5 -5 -4 -5 -4 -4 -3 2 1 -2 1 1 1 1 2 1 2 2 3 1 4 4 5 -1 -1 2 2 1 0 -1 -3
-13 -10 -9 -8 -8 -8 -7 -7 -8 -10 -7 -5 -5 -5 -5 -6 -5 -4 -3 -2 -4 -3 0 1 1 1 -1 -2 -2 -1 -2 -0 1 3 3 -0 -0 2 3 3 3 1 -1 -2
-13 -10 -8 -9 -8 -7 -6 -6 -6 -8 -8 -7 -6 -5 -6 -5 -4 -5 -5 -6 -3 1 1 1 3 2 1 1 0 -3 -2 -2 -0 1 2 0 3 -0 0 -0 4 -1 0 -0
-13 -11 -9 -9 -8 -7 -6 -5 -5 -6 -7 -7 -6 -7 -5 -4 -4 -4 -5 -4 -2 -1 1 2 1 2 -0 2 2 1 0 0 1 2 1 0 -2 -1 0 2 0 0 -1 -0
-14 -10 -10 -10 -8 -7 -6 -4 -4 -4 -4 -5 -6 -5 -4 -4 -5 -4 -5 -3 -3 -2 2 2 2 2 -0 -0 -1 1 1 1 2 1 1 1 -2 1 0 0 1 1 1 1
-15 -10 -10 -11 -9 -7 -5 -4 -3 -3 -4 -5 -6 -6 -5 -5 -5 -4 -4 -3 -2 -1 -1 -1 2 1 -1 -1 1 -2 1 -0 1 -0 0 -3 -2 -0 1 0 1 2 2 2
-15 -9 -11 -11 -8 -6 -5 -4 -6 -4 -6 -7 -7 -6 -6 -6 -5 -5 -4 -4 -1 -2 -2 -2 -0 3 0 1 -0 -0 -2 -2 -0 -1 -2 -2 1 2 1 1 1 2 2 2
-14 -9 -12 -10 -8 -2 -4 -7 -7 -6 -7 -8 -8 -7 -6 -6 -5 -4 -5 -4 -3 -3 -3 -1 1 2 -1 0 -1 -1 -2 -2 -1 -1 -2 -0 1 2 1 1 1 1 1 1
-14 -11 -13 -11 -10 -6 -6 -6 -6 -6 -5 -7 -8 -8 -7 -4 -6 -3 -2 -4 -3 -3 -4 -2 1 2 2 1 -1 -1 -2 -2 -0 -1 -2 -1 -0 2 1 1 1 1 1 1
-12 -12 -12 -11 -11 -7 -6 -6 -5 -6 -3 -6 -6 -7 -8 -6 -1 -2 -3 -2 -4 -3 -3 -3 -1 0 2 3 1 -2 -2 -1 -1 -1 1 -0 1 2 1 1 1 1 1 1
-12 -13 -13 -9 -9 -8 -8 -7 -6 -6 -3 -5 -6 -6 -7 -5 -3 -2 -3 -4 -3 -3 -2 -2 -2 0 2 0 1 -2 -0 0 0 0 1 1 1 1 1 1 1 1 0 -0
-13 -13 -14 -7 -7 -7 -6 -6 -6 -6 -5 -6 -9 -6 -6 -5 -4 -2 -2 -3 -4 -3 -3 -2 1 1 1 3 0 -1 0 1 1 1 1 1 1 1 1 1 1 -0 -0 -1
-13 -14 -8 -7 -8 -7 -6 -6 -5 -5 -5 -5 -5 -5 -6 -5 -5 -4 -1 -2 -1 -3 -0 0 0 1 1 0 -0 0 0 1 1 1 1 1 1 1 1 1 0 -0 -1 -1
-14 -9 -6 -6 -7 -6 -4 -4 -4 -4 -4 -4 -4 -4 -6 -4 -5 -4 -2 -0 1 1 -0 -1 1 1 -1 -0 -0 -0 0 0 0 0 0 0 0 0 -0 -0 -0 -0 -0 -0
-11 -8 -7 -6 -5 -4 -4 -4 -5 -4 -4 -5 -5 -4 -4 -5 -4 -5 -3 -1 0 2 -0 1 2 2 -2 -1 -1 -1 -1 -1 -0 -0 -0 -0 -0 -0 -0 -1 -1 -2 -2 -2
-13 -10 -8 -5 -4 -5 -7 -5 -5 -6 -4 -4 -4 -4 -5 -5 -3 -2 -2 -2 -0 1 0 2 2 -2 -1 -1 -1 -1 -1 -2 -2 -2 -2 -2 -2 -2 -2 -2 -2 -2 -2 -2
-11 -10 -6 -5 -5 -7 -8 -6 -9 -10 -5 -5 -5 -7 -6 -6 -4 -3 -2 -0 -0 1 2 2 -1 -1 -2 -1 -1 -1 -2 -2 -2 -2 -2 -2 -2 -2 -2 -2 -3 -7 -9 -10
-11 -9 -6 -7 -7 -6 -8 -10 -10 -6 -5 -5 -5 -5 -5 -5 -4 -4 -2 -2 1 1 -1 -1 -2 -3 -3 -3 -2 -2 -2 -2 -2 -4 -6 -8 -11 -11 -14 -18 -19 -18 -17 -17
-10 -10 -7 -7 -7 -4 -5 -4 -4 -4 -4 -5 -5 -6 -5 -7 -4 -5 -3 -0 2 -0 -1 -3 -5 -5 -4 -3 -3 -2 -2 -2 -6 -14 -16 -18 -17 -17 -19 -20 -20 -20 -20 -19
-9 -8 -7 -7 -6 -5 -5 -4 -5 -4 -4 -5 -6 -6 -6 -7 -6 -4 -3 -0 -2 -2 -4 -6 -11 -10 -3 -3 -3 -2 -3 -3 -5 -13 -16 -17 -17 -16 -18 -20 -21 -20 -19 -18
-6 -5 -7 -7 -7 -6 -5 -5 -5 -5 -6 -9 -7 -6 -8 -7 -8 -6 -6 -6 -6 -4 -3 -4 -8 -12 -4 -3 -3 -3 -3 -3 -4 -8 -14 -14 -16 -17 -18 -20 -19 -18 -18 -18

GFSNW_850_dewp_099.txt.gz
Dewpoint
-15 -16 -19 -15 -13 -12 -8 -0 1 -5 -2 1 0 0 -1 -2 -1 -0 1 2 2 2 1 5 4 4 3 -1 -5 -3 -4 -0 -1 -2 -2 -1 3 4 2 6 5 4 5 3
-18 -20 -20 -15 -14 -13 -10 -3 -3 -5 -3 3 1 -2 -3 -2 -2 -0 0 2 0 1 2 4 5 2 1 -2 -5 -6 -4 -1 -1 -2 -3 0 2 0 0 0 2 6 7 1
-20 -24 -19 -15 -15 -13 -12 -5 3 -4 -3 -2 -1 -1 -4 -6 -4 -1 -1 2 -1 1 1 1 3 3 0 -2 -6 -4 -4 -5 -2 -2 -2 -2 1 -0 -1 -0 5 3 1 -0
-21 -25 -19 -15 -15 -13 -12 -5 -1 -3 1 -4 -5 -3 -7 -6 -4 -4 -2 2 -1 0 3 1 4 2 1 -0 -0 -3 -4 -3 -6 -4 -1 -1 -1 -2 -0 3 0 5 -2 -1
-23 -25 -19 -16 -15 -13 -13 -6 -4 -5 -6 -5 -5 -6 -7 -7 -7 -4 -1 -1 -2 -0 3 2 3 3 1 2 0 1 -1 0 1 1 -5 -4 -2 -1 -3 -2 -2 -3 -3 -2
-25 -26 -19 -17 -15 -14 -11 -12 -11 -5 -7 -7 -7 -7 -7 -7 -7 -7 -4 -5 -2 -0 1 -2 -1 -1 1 2 2 0 1 -1 4 6 5 2 4 0 -2 -4 -5 -4 -3 -4
-20 -27 -20 -18 -17 -14 -12 -13 -8 -8 -9 -9 -8 -8 -7 -7 -7 -6 -7 -4 -1 -2 -2 -0 1 0 -0 0 2 1 0 1 2 6 4 6 1 -0 -1 -3 -5 -7 -4 -2
-24 -25 -23 -20 -18 -15 -14 -14 -10 -9 -9 -10 -8 -8 -7 -7 -7 -6 -5 -5 -4 -2 0 2 1 2 2 1 1 2 2 4 5 5 3 0 0 0 1 1 -0 -4 -5 -5
-22 -23 -23 -25 -20 -16 -16 -16 -14 -9 -10 -9 -8 -7 -7 -5 -6 -6 -6 -5 -3 -1 1 1 3 3 0 1 0 0 2 2 2 2 2 1 2 0 0 0 3 -0 -1 -3
-22 -22 -23 -26 -21 -18 -15 -12 -13 -7 -9 -6 -6 -6 -6 -5 -5 -6 -6 -4 -2 -1 0 1 2 1 -0 1 2 2 1 1 2 3 2 2 -0 1 1 4 4 1 -0 -0
-19 -21 -25 -26 -21 -17 -12 -11 -12 -5 -7 -5 -5 -5 -5 -5 -5 -5 -5 -2 -2 -1 1 1 1 0 0 1 -1 1 1 2 1 0 1 3 -1 1 3 2 1 1 1 -0
-18 -20 -25 -25 -20 -14 -11 -12 -12 -10 -4 -5 -6 -5 -5 -4 -5 -4 -4 -3 -2 -2 -1 -1 -0 -1 -1 -0 3 -2 3 0 1 1 1 -2 -0 1 2 1 2 2 2 1
-19 -22 -25 -23 -18 -12 -11 -11 -11 -8 -5 -5 -5 -5 -6 -7 -6 -5 -4 -3 -2 -2 -2 -2 -1 1 -1 -0 1 -0 -2 -2 -0 -0 -1 -1 1 2 1 2 2 2 2 2
-18 -22 -24 -21 -17 -11 -10 -11 -9 -8 -5 -6 -6 -5 -4 -4 -4 -4 -5 -2 -3 -2 -2 -2 -1 0 -0 -1 0 -0 -2 -1 -1 -2 -1 -2 1 2 1 2 2 2 1 2
-18 -21 -21 -18 -15 -11 -9 -10 -10 -10 -3 -6 -6 -7 -7 -5 -3 -3 -2 -3 -3 -3 -3 -2 -1 -0 2 -1 -0 -0 -1 -1 -1 2 -0 -1 0 2 2 1 2 1 1 1
-17 -19 -19 -16 -13 -12 -9 -8 -8 -10 -8 -3 -3 -7 -6 -5 -3 -2 -2 -3 -3 -4 -4 -4 -3 -1 -0 1 1 -2 -2 -1 -1 -1 -1 1 1 2 1 1 1 1 1 1
-16 -17 -17 -14 -10 -10 -10 -5 -7 -9 -9 -3 -4 -6 -6 -5 -2 -2 -2 -2 -3 -3 -3 -3 -3 -2 1 1 1 -2 -1 -0 1 1 1 1 1 1 1 1 1 1 1 0
-14 -15 -14 -10 -8 -8 -6 -5 -7 -7 -8 -7 1 -4 -5 -6 -4 -3 -3 -2 -2 -2 -3 -3 -3 -2 -1 0 -1 -0 0 1 1 1 1 1 1 1 1 1 1 0 -0 -0
-12 -13 -10 -7 -7 -8 -5 -4 -6 -7 -6 -2 -3 -2 -2 -4 -4 -3 -1 -1 -2 -2 -3 -3 -2 -2 0 -0 -1 -1 -1 -0 0 1 1 1 1 1 1 1 0 0 -0 -0
-11 -10 -5 -5 -7 -5 -4 -4 -6 -5 -6 -5 -5 -5 -4 -4 -5 -3 -3 -1 -1 1 -1 -1 -0 -1 -0 -1 -2 -1 -1 -1 -1 0 1 1 1 1 0 0 -0 -0 -0 -0
-8 -7 -5 -5 -4 -4 -4 -3 -3 -3 -3 -4 -4 -5 -4 -5 -3 -3 -3 -1 -1 1 1 1 0 1 -2 -2 -2 -2 -1 -1 -1 -1 -1 -0 -0 -0 -0 -0 -0 -0 -1 -1
-12 -10 -5 -3 -4 -4 -3 -3 -3 -3 -3 -4 -4 -4 -4 -4 -3 -3 -3 -3 -2 -1 0 2 1 -2 -3 -3 -3 -2 -2 -1 -2 -2 -2 -2 -2 -2 -1 -1 -1 -2 -2 -2
-12 -11 -6 -3 -4 -2 -2 -2 -2 -3 -4 -3 -4 -4 -5 -4 -3 -5 -3 -1 -1 -3 1 0 -2 -3 -5 -4 -3 -3 -3 -2 -2 -2 -2 -2 -2 -2 -3 -3 -2 -3 -7 -12
-15 -10 -5 -1 -3 -3 -2 -2 -2 -4 -2 -3 -4 -4 -4 -4 -4 -5 -3 -4 -2 0 1 -0 -3 -5 -7 -7 -6 -3 -3 -3 -2 -2 -2 -3 -3 -4 -5 -8 -15 -17 -17 -18
-14 -8 -3 -4 -4 -4 -5 -6 -5 -4 -4 -5 -4 -5 -5 -4 -4 -5 -4 -2 -2 -1 -1 -2 -3 -4 -5 -8 -12 -10 -3 -3 -3 -3 -3 -6 -12 -12 -11 -15 -18 -19 -19 -19
-11 -9 -5 -4 -4 -4 -4 -3 -4 -5 -4 -6 -5 -5 -4 -4 -4 -3 -3 -2 -1 -1 -1 -2 -5 -7 -9 -10 -11 -12 -5 -3 -3 -3 -3 -4 -15 -15 -13 -15 -17 -20 -19 -19
-6 -5 -5 -4 -4 -4 -3 -4 -4 -6 -5 -4 -5 -5 -5 -5 -4 -3 -3 -2 -1 -2 -3 -4 -7 -10 -12 -14 -14 -15 -7 -4 -4 -4 -4 -4 -6 -9 -8 -4 -15 -19 -18 -18